<?xml version="1.0" encoding="UTF-8" standalone="no" ?>
<gpx xmlns="http://www.topografix.com/GPX/1/1" xmlns:xsi="http://www.w3.org/2001/XMLSchema-instance" xsi:schemaLocation="http://www.topografix.com/GPX/1/1 http://www.topografix.com/GPX/1/1/gpx.xsd" version="1.1" creator="VisuGPX - https://www.visugpx.com">
  <metadata>
    <name>170308HR3ROBJeunes</name>
    <desc><![CDATA[Excellente et tres bonne sortie]]></desc>
  </metadata>
  <trk>
    <name><![CDATA[170308HR3ROBJeunes]]></name>
    <trkseg>
      <trkpt lat="43.41581" lon="6.07035">
        <ele>215.60000610352</ele>
        <time>2017-03-08T13:02:26Z</time>
      </trkpt>
      <trkpt lat="43.41581" lon="6.07035">
        <ele>202.19999694824</ele>
        <time>2017-03-08T13:02:27Z</time>
      </trkpt>
      <trkpt lat="43.41583" lon="6.07038">
        <ele>202</ele>
        <time>2017-03-08T13:02:37Z</time>
      </trkpt>
      <trkpt lat="43.41582" lon="6.07045">
        <ele>202.19999694824</ele>
        <time>2017-03-08T13:02:47Z</time>
      </trkpt>
      <trkpt lat="43.41582" lon="6.07047">
        <ele>202</ele>
        <time>2017-03-08T13:02:56Z</time>
      </trkpt>
      <trkpt lat="43.41582" lon="6.07047">
        <ele>202</ele>
        <time>2017-03-08T13:02:57Z</time>
      </trkpt>
      <trkpt lat="43.41584" lon="6.07046">
        <ele>201.80000305176</ele>
        <time>2017-03-08T13:03:07Z</time>
      </trkpt>
      <trkpt lat="43.41585" lon="6.07046">
        <ele>201.60000610352</ele>
        <time>2017-03-08T13:03:11Z</time>
      </trkpt>
      <trkpt lat="43.41586" lon="6.07046">
        <ele>201.39999389648</ele>
        <time>2017-03-08T13:03:17Z</time>
      </trkpt>
      <trkpt lat="43.41587" lon="6.07048">
        <ele>201.39999389648</ele>
        <time>2017-03-08T13:03:27Z</time>
      </trkpt>
      <trkpt lat="43.41587" lon="6.07047">
        <ele>201.19999694824</ele>
        <time>2017-03-08T13:03:37Z</time>
      </trkpt>
      <trkpt lat="43.41586" lon="6.07054">
        <ele>201.39999389648</ele>
        <time>2017-03-08T13:03:46Z</time>
      </trkpt>
      <trkpt lat="43.41586" lon="6.07057">
        <ele>201.39999389648</ele>
        <time>2017-03-08T13:03:47Z</time>
      </trkpt>
      <trkpt lat="43.41587" lon="6.07093">
        <ele>201.19999694824</ele>
        <time>2017-03-08T13:03:57Z</time>
      </trkpt>
      <trkpt lat="43.41587" lon="6.07106">
        <ele>201.19999694824</ele>
        <time>2017-03-08T13:04:01Z</time>
      </trkpt>
      <trkpt lat="43.41584" lon="6.07113">
        <ele>200.80000305176</ele>
        <time>2017-03-08T13:04:04Z</time>
      </trkpt>
      <trkpt lat="43.41579" lon="6.07114">
        <ele>201</ele>
        <time>2017-03-08T13:04:07Z</time>
      </trkpt>
      <trkpt lat="43.41556" lon="6.0712">
        <ele>200.80000305176</ele>
        <time>2017-03-08T13:04:17Z</time>
      </trkpt>
      <trkpt lat="43.41549" lon="6.07117">
        <ele>200.60000610352</ele>
        <time>2017-03-08T13:04:20Z</time>
      </trkpt>
      <trkpt lat="43.41545" lon="6.07092">
        <ele>200.39999389648</ele>
        <time>2017-03-08T13:04:27Z</time>
      </trkpt>
      <trkpt lat="43.41528" lon="6.07078">
        <ele>200.19999694824</ele>
        <time>2017-03-08T13:04:34Z</time>
      </trkpt>
      <trkpt lat="43.41524" lon="6.07079">
        <ele>200</ele>
        <time>2017-03-08T13:04:35Z</time>
      </trkpt>
      <trkpt lat="43.41515" lon="6.07082">
        <ele>199.60000610352</ele>
        <time>2017-03-08T13:04:37Z</time>
      </trkpt>
      <trkpt lat="43.41496" lon="6.07084">
        <ele>199</ele>
        <time>2017-03-08T13:04:42Z</time>
      </trkpt>
      <trkpt lat="43.4148" lon="6.07077">
        <ele>198.80000305176</ele>
        <time>2017-03-08T13:04:47Z</time>
      </trkpt>
      <trkpt lat="43.4147" lon="6.07073">
        <ele>199.19999694824</ele>
        <time>2017-03-08T13:04:57Z</time>
      </trkpt>
      <trkpt lat="43.41468" lon="6.07072">
        <ele>199.19999694824</ele>
        <time>2017-03-08T13:04:58Z</time>
      </trkpt>
      <trkpt lat="43.41465" lon="6.0707">
        <ele>198.80000305176</ele>
        <time>2017-03-08T13:05:01Z</time>
      </trkpt>
      <trkpt lat="43.41465" lon="6.07067">
        <ele>198.60000610352</ele>
        <time>2017-03-08T13:05:03Z</time>
      </trkpt>
      <trkpt lat="43.41468" lon="6.0706">
        <ele>198</ele>
        <time>2017-03-08T13:05:07Z</time>
      </trkpt>
      <trkpt lat="43.41482" lon="6.07027">
        <ele>198</ele>
        <time>2017-03-08T13:05:17Z</time>
      </trkpt>
      <trkpt lat="43.41488" lon="6.07014">
        <ele>198</ele>
        <time>2017-03-08T13:05:20Z</time>
      </trkpt>
      <trkpt lat="43.41492" lon="6.06996">
        <ele>198</ele>
        <time>2017-03-08T13:05:24Z</time>
      </trkpt>
      <trkpt lat="43.41491" lon="6.06982">
        <ele>198.39999389648</ele>
        <time>2017-03-08T13:05:27Z</time>
      </trkpt>
      <trkpt lat="43.41479" lon="6.06957">
        <ele>199</ele>
        <time>2017-03-08T13:05:33Z</time>
      </trkpt>
      <trkpt lat="43.41471" lon="6.06943">
        <ele>199.39999389648</ele>
        <time>2017-03-08T13:05:37Z</time>
      </trkpt>
      <trkpt lat="43.41464" lon="6.06927">
        <ele>199.80000305176</ele>
        <time>2017-03-08T13:05:41Z</time>
      </trkpt>
      <trkpt lat="43.41468" lon="6.06921">
        <ele>200.19999694824</ele>
        <time>2017-03-08T13:05:43Z</time>
      </trkpt>
      <trkpt lat="43.41474" lon="6.06906">
        <ele>200.39999389648</ele>
        <time>2017-03-08T13:05:47Z</time>
      </trkpt>
      <trkpt lat="43.41473" lon="6.06901">
        <ele>200.60000610352</ele>
        <time>2017-03-08T13:05:51Z</time>
      </trkpt>
      <trkpt lat="43.41473" lon="6.069">
        <ele>201.19999694824</ele>
        <time>2017-03-08T13:05:57Z</time>
      </trkpt>
      <trkpt lat="43.41473" lon="6.06895">
        <ele>201.19999694824</ele>
        <time>2017-03-08T13:06:04Z</time>
      </trkpt>
      <trkpt lat="43.41474" lon="6.06883">
        <ele>200.80000305176</ele>
        <time>2017-03-08T13:06:07Z</time>
      </trkpt>
      <trkpt lat="43.41472" lon="6.06861">
        <ele>201</ele>
        <time>2017-03-08T13:06:12Z</time>
      </trkpt>
      <trkpt lat="43.41475" lon="6.06835">
        <ele>200.60000610352</ele>
        <time>2017-03-08T13:06:17Z</time>
      </trkpt>
      <trkpt lat="43.41477" lon="6.0683">
        <ele>200.39999389648</ele>
        <time>2017-03-08T13:06:18Z</time>
      </trkpt>
      <trkpt lat="43.41481" lon="6.06819">
        <ele>200</ele>
        <time>2017-03-08T13:06:20Z</time>
      </trkpt>
      <trkpt lat="43.4149" lon="6.06787">
        <ele>200.60000610352</ele>
        <time>2017-03-08T13:06:26Z</time>
      </trkpt>
      <trkpt lat="43.41491" lon="6.06781">
        <ele>200.60000610352</ele>
        <time>2017-03-08T13:06:27Z</time>
      </trkpt>
      <trkpt lat="43.41493" lon="6.06758">
        <ele>201.19999694824</ele>
        <time>2017-03-08T13:06:31Z</time>
      </trkpt>
      <trkpt lat="43.41496" lon="6.06725">
        <ele>202.39999389648</ele>
        <time>2017-03-08T13:06:37Z</time>
      </trkpt>
      <trkpt lat="43.41497" lon="6.06692">
        <ele>203.19999694824</ele>
        <time>2017-03-08T13:06:43Z</time>
      </trkpt>
      <trkpt lat="43.41498" lon="6.06675">
        <ele>203.39999389648</ele>
        <time>2017-03-08T13:06:46Z</time>
      </trkpt>
      <trkpt lat="43.41499" lon="6.0667">
        <ele>203.60000610352</ele>
        <time>2017-03-08T13:06:47Z</time>
      </trkpt>
      <trkpt lat="43.41501" lon="6.06656">
        <ele>203.60000610352</ele>
        <time>2017-03-08T13:06:50Z</time>
      </trkpt>
      <trkpt lat="43.41507" lon="6.06623">
        <ele>204.19999694824</ele>
        <time>2017-03-08T13:06:57Z</time>
      </trkpt>
      <trkpt lat="43.41513" lon="6.06588">
        <ele>204.19999694824</ele>
        <time>2017-03-08T13:07:04Z</time>
      </trkpt>
      <trkpt lat="43.41515" lon="6.06573">
        <ele>204.19999694824</ele>
        <time>2017-03-08T13:07:07Z</time>
      </trkpt>
      <trkpt lat="43.41519" lon="6.06554">
        <ele>204.39999389648</ele>
        <time>2017-03-08T13:07:11Z</time>
      </trkpt>
      <trkpt lat="43.41522" lon="6.06528">
        <ele>204.60000610352</ele>
        <time>2017-03-08T13:07:17Z</time>
      </trkpt>
      <trkpt lat="43.41539" lon="6.0649">
        <ele>205.80000305176</ele>
        <time>2017-03-08T13:07:26Z</time>
      </trkpt>
      <trkpt lat="43.41541" lon="6.06486">
        <ele>206</ele>
        <time>2017-03-08T13:07:27Z</time>
      </trkpt>
      <trkpt lat="43.41544" lon="6.06442">
        <ele>206.80000305176</ele>
        <time>2017-03-08T13:07:36Z</time>
      </trkpt>
      <trkpt lat="43.41547" lon="6.06417">
        <ele>207.60000610352</ele>
        <time>2017-03-08T13:07:41Z</time>
      </trkpt>
      <trkpt lat="43.41549" lon="6.06407">
        <ele>208</ele>
        <time>2017-03-08T13:07:43Z</time>
      </trkpt>
      <trkpt lat="43.41552" lon="6.06386">
        <ele>208.80000305176</ele>
        <time>2017-03-08T13:07:47Z</time>
      </trkpt>
      <trkpt lat="43.41553" lon="6.0638">
        <ele>209.19999694824</ele>
        <time>2017-03-08T13:07:48Z</time>
      </trkpt>
      <trkpt lat="43.41556" lon="6.06371">
        <ele>209.80000305176</ele>
        <time>2017-03-08T13:07:50Z</time>
      </trkpt>
      <trkpt lat="43.41558" lon="6.06361">
        <ele>210.39999389648</ele>
        <time>2017-03-08T13:07:52Z</time>
      </trkpt>
      <trkpt lat="43.41563" lon="6.06349">
        <ele>210.80000305176</ele>
        <time>2017-03-08T13:07:55Z</time>
      </trkpt>
      <trkpt lat="43.4157" lon="6.06339">
        <ele>211.60000610352</ele>
        <time>2017-03-08T13:07:58Z</time>
      </trkpt>
      <trkpt lat="43.41573" lon="6.06336">
        <ele>211.80000305176</ele>
        <time>2017-03-08T13:07:59Z</time>
      </trkpt>
      <trkpt lat="43.41583" lon="6.06319">
        <ele>212.60000610352</ele>
        <time>2017-03-08T13:08:04Z</time>
      </trkpt>
      <trkpt lat="43.41587" lon="6.06299">
        <ele>213.60000610352</ele>
        <time>2017-03-08T13:08:09Z</time>
      </trkpt>
      <trkpt lat="43.41584" lon="6.06275">
        <ele>214.39999389648</ele>
        <time>2017-03-08T13:08:15Z</time>
      </trkpt>
      <trkpt lat="43.41587" lon="6.0627">
        <ele>214.60000610352</ele>
        <time>2017-03-08T13:08:17Z</time>
      </trkpt>
      <trkpt lat="43.41589" lon="6.06267">
        <ele>214.60000610352</ele>
        <time>2017-03-08T13:08:18Z</time>
      </trkpt>
      <trkpt lat="43.41599" lon="6.06259">
        <ele>215.60000610352</ele>
        <time>2017-03-08T13:08:24Z</time>
      </trkpt>
      <trkpt lat="43.416" lon="6.06258">
        <ele>215.60000610352</ele>
        <time>2017-03-08T13:08:25Z</time>
      </trkpt>
      <trkpt lat="43.416" lon="6.06257">
        <ele>215.80000305176</ele>
        <time>2017-03-08T13:08:26Z</time>
      </trkpt>
      <trkpt lat="43.416" lon="6.06257">
        <ele>215.80000305176</ele>
        <time>2017-03-08T13:08:27Z</time>
      </trkpt>
      <trkpt lat="43.416" lon="6.06257">
        <ele>216.60000610352</ele>
        <time>2017-03-08T13:08:33Z</time>
      </trkpt>
      <trkpt lat="43.416" lon="6.06255">
        <ele>216.60000610352</ele>
        <time>2017-03-08T13:08:35Z</time>
      </trkpt>
      <trkpt lat="43.416" lon="6.06252">
        <ele>216.60000610352</ele>
        <time>2017-03-08T13:08:37Z</time>
      </trkpt>
      <trkpt lat="43.41601" lon="6.06249">
        <ele>216.60000610352</ele>
        <time>2017-03-08T13:08:38Z</time>
      </trkpt>
      <trkpt lat="43.41608" lon="6.06237">
        <ele>216.19999694824</ele>
        <time>2017-03-08T13:08:43Z</time>
      </trkpt>
      <trkpt lat="43.41616" lon="6.06235">
        <ele>216.60000610352</ele>
        <time>2017-03-08T13:08:47Z</time>
      </trkpt>
      <trkpt lat="43.41619" lon="6.06235">
        <ele>217</ele>
        <time>2017-03-08T13:08:48Z</time>
      </trkpt>
      <trkpt lat="43.41624" lon="6.06234">
        <ele>217.60000610352</ele>
        <time>2017-03-08T13:08:52Z</time>
      </trkpt>
      <trkpt lat="43.41632" lon="6.06238">
        <ele>217.39999389648</ele>
        <time>2017-03-08T13:08:57Z</time>
      </trkpt>
      <trkpt lat="43.41653" lon="6.06248">
        <ele>217.80000305176</ele>
        <time>2017-03-08T13:09:07Z</time>
      </trkpt>
      <trkpt lat="43.41655" lon="6.06249">
        <ele>218</ele>
        <time>2017-03-08T13:09:08Z</time>
      </trkpt>
      <trkpt lat="43.4167" lon="6.06253">
        <ele>218.39999389648</ele>
        <time>2017-03-08T13:09:14Z</time>
      </trkpt>
      <trkpt lat="43.41678" lon="6.06255">
        <ele>218.39999389648</ele>
        <time>2017-03-08T13:09:17Z</time>
      </trkpt>
      <trkpt lat="43.41686" lon="6.06255">
        <ele>218.39999389648</ele>
        <time>2017-03-08T13:09:20Z</time>
      </trkpt>
      <trkpt lat="43.417" lon="6.06256">
        <ele>218.19999694824</ele>
        <time>2017-03-08T13:09:25Z</time>
      </trkpt>
      <trkpt lat="43.41705" lon="6.06256">
        <ele>218.19999694824</ele>
        <time>2017-03-08T13:09:27Z</time>
      </trkpt>
      <trkpt lat="43.41732" lon="6.06256">
        <ele>218.80000305176</ele>
        <time>2017-03-08T13:09:37Z</time>
      </trkpt>
      <trkpt lat="43.4174" lon="6.06256">
        <ele>219</ele>
        <time>2017-03-08T13:09:40Z</time>
      </trkpt>
      <trkpt lat="43.41748" lon="6.06257">
        <ele>219.60000610352</ele>
        <time>2017-03-08T13:09:43Z</time>
      </trkpt>
      <trkpt lat="43.41754" lon="6.06258">
        <ele>220.19999694824</ele>
        <time>2017-03-08T13:09:45Z</time>
      </trkpt>
      <trkpt lat="43.4176" lon="6.06259">
        <ele>220.39999389648</ele>
        <time>2017-03-08T13:09:47Z</time>
      </trkpt>
      <trkpt lat="43.41766" lon="6.06262">
        <ele>220.60000610352</ele>
        <time>2017-03-08T13:09:49Z</time>
      </trkpt>
      <trkpt lat="43.41775" lon="6.06267">
        <ele>221.19999694824</ele>
        <time>2017-03-08T13:09:52Z</time>
      </trkpt>
      <trkpt lat="43.41784" lon="6.06273">
        <ele>221.80000305176</ele>
        <time>2017-03-08T13:09:55Z</time>
      </trkpt>
      <trkpt lat="43.41789" lon="6.06277">
        <ele>222.19999694824</ele>
        <time>2017-03-08T13:09:57Z</time>
      </trkpt>
      <trkpt lat="43.41791" lon="6.0628">
        <ele>222.19999694824</ele>
        <time>2017-03-08T13:09:58Z</time>
      </trkpt>
      <trkpt lat="43.41817" lon="6.06295">
        <ele>223.39999389648</ele>
        <time>2017-03-08T13:10:07Z</time>
      </trkpt>
      <trkpt lat="43.41836" lon="6.06297">
        <ele>224.39999389648</ele>
        <time>2017-03-08T13:10:13Z</time>
      </trkpt>
      <trkpt lat="43.41848" lon="6.06297">
        <ele>225.19999694824</ele>
        <time>2017-03-08T13:10:17Z</time>
      </trkpt>
      <trkpt lat="43.41862" lon="6.06296">
        <ele>226</ele>
        <time>2017-03-08T13:10:22Z</time>
      </trkpt>
      <trkpt lat="43.41868" lon="6.06296">
        <ele>226.60000610352</ele>
        <time>2017-03-08T13:10:24Z</time>
      </trkpt>
      <trkpt lat="43.41877" lon="6.06297">
        <ele>227</ele>
        <time>2017-03-08T13:10:27Z</time>
      </trkpt>
      <trkpt lat="43.41885" lon="6.06298">
        <ele>227.60000610352</ele>
        <time>2017-03-08T13:10:30Z</time>
      </trkpt>
      <trkpt lat="43.41893" lon="6.06299">
        <ele>228.39999389648</ele>
        <time>2017-03-08T13:10:33Z</time>
      </trkpt>
      <trkpt lat="43.41901" lon="6.06298">
        <ele>228.80000305176</ele>
        <time>2017-03-08T13:10:36Z</time>
      </trkpt>
      <trkpt lat="43.41904" lon="6.06298">
        <ele>229</ele>
        <time>2017-03-08T13:10:37Z</time>
      </trkpt>
      <trkpt lat="43.41914" lon="6.06298">
        <ele>229.80000305176</ele>
        <time>2017-03-08T13:10:41Z</time>
      </trkpt>
      <trkpt lat="43.41926" lon="6.06296">
        <ele>231</ele>
        <time>2017-03-08T13:10:46Z</time>
      </trkpt>
      <trkpt lat="43.41928" lon="6.06295">
        <ele>231</ele>
        <time>2017-03-08T13:10:47Z</time>
      </trkpt>
      <trkpt lat="43.41952" lon="6.06287">
        <ele>231.60000610352</ele>
        <time>2017-03-08T13:10:56Z</time>
      </trkpt>
      <trkpt lat="43.41957" lon="6.06287">
        <ele>232</ele>
        <time>2017-03-08T13:10:58Z</time>
      </trkpt>
      <trkpt lat="43.41972" lon="6.06283">
        <ele>233</ele>
        <time>2017-03-08T13:11:04Z</time>
      </trkpt>
      <trkpt lat="43.41978" lon="6.06281">
        <ele>233.39999389648</ele>
        <time>2017-03-08T13:11:07Z</time>
      </trkpt>
      <trkpt lat="43.41994" lon="6.06275">
        <ele>235.19999694824</ele>
        <time>2017-03-08T13:11:16Z</time>
      </trkpt>
      <trkpt lat="43.41996" lon="6.06274">
        <ele>235.60000610352</ele>
        <time>2017-03-08T13:11:17Z</time>
      </trkpt>
      <trkpt lat="43.42002" lon="6.06271">
        <ele>236.60000610352</ele>
        <time>2017-03-08T13:11:21Z</time>
      </trkpt>
      <trkpt lat="43.42005" lon="6.0627">
        <ele>237</ele>
        <time>2017-03-08T13:11:23Z</time>
      </trkpt>
      <trkpt lat="43.42007" lon="6.0627">
        <ele>237.60000610352</ele>
        <time>2017-03-08T13:11:25Z</time>
      </trkpt>
      <trkpt lat="43.4201" lon="6.06269">
        <ele>237.80000305176</ele>
        <time>2017-03-08T13:11:27Z</time>
      </trkpt>
      <trkpt lat="43.42017" lon="6.06266">
        <ele>238.60000610352</ele>
        <time>2017-03-08T13:11:31Z</time>
      </trkpt>
      <trkpt lat="43.42025" lon="6.06264">
        <ele>239.80000305176</ele>
        <time>2017-03-08T13:11:36Z</time>
      </trkpt>
      <trkpt lat="43.42027" lon="6.06263">
        <ele>240</ele>
        <time>2017-03-08T13:11:37Z</time>
      </trkpt>
      <trkpt lat="43.42035" lon="6.06262">
        <ele>240.80000305176</ele>
        <time>2017-03-08T13:11:41Z</time>
      </trkpt>
      <trkpt lat="43.42042" lon="6.06259">
        <ele>242</ele>
        <time>2017-03-08T13:11:45Z</time>
      </trkpt>
      <trkpt lat="43.42049" lon="6.06257">
        <ele>243</ele>
        <time>2017-03-08T13:11:49Z</time>
      </trkpt>
      <trkpt lat="43.42062" lon="6.06253">
        <ele>244.60000610352</ele>
        <time>2017-03-08T13:11:57Z</time>
      </trkpt>
      <trkpt lat="43.42067" lon="6.06251">
        <ele>245.19999694824</ele>
        <time>2017-03-08T13:12:00Z</time>
      </trkpt>
      <trkpt lat="43.42076" lon="6.06247">
        <ele>246.39999389648</ele>
        <time>2017-03-08T13:12:06Z</time>
      </trkpt>
      <trkpt lat="43.42084" lon="6.06244">
        <ele>247.60000610352</ele>
        <time>2017-03-08T13:12:12Z</time>
      </trkpt>
      <trkpt lat="43.4209" lon="6.0624">
        <ele>248.19999694824</ele>
        <time>2017-03-08T13:12:17Z</time>
      </trkpt>
      <trkpt lat="43.42095" lon="6.0624">
        <ele>248.60000610352</ele>
        <time>2017-03-08T13:12:20Z</time>
      </trkpt>
      <trkpt lat="43.42105" lon="6.06237">
        <ele>249.80000305176</ele>
        <time>2017-03-08T13:12:27Z</time>
      </trkpt>
      <trkpt lat="43.42118" lon="6.06231">
        <ele>250.80000305176</ele>
        <time>2017-03-08T13:12:37Z</time>
      </trkpt>
      <trkpt lat="43.42131" lon="6.06227">
        <ele>251.60000610352</ele>
        <time>2017-03-08T13:12:45Z</time>
      </trkpt>
      <trkpt lat="43.42134" lon="6.06225">
        <ele>251.60000610352</ele>
        <time>2017-03-08T13:12:47Z</time>
      </trkpt>
      <trkpt lat="43.42142" lon="6.06224">
        <ele>252.39999389648</ele>
        <time>2017-03-08T13:12:52Z</time>
      </trkpt>
      <trkpt lat="43.42145" lon="6.0622">
        <ele>252.60000610352</ele>
        <time>2017-03-08T13:12:55Z</time>
      </trkpt>
      <trkpt lat="43.42145" lon="6.06218">
        <ele>252.60000610352</ele>
        <time>2017-03-08T13:12:56Z</time>
      </trkpt>
      <trkpt lat="43.42145" lon="6.06217">
        <ele>252.60000610352</ele>
        <time>2017-03-08T13:12:57Z</time>
      </trkpt>
      <trkpt lat="43.42144" lon="6.06216">
        <ele>252.60000610352</ele>
        <time>2017-03-08T13:12:58Z</time>
      </trkpt>
      <trkpt lat="43.42143" lon="6.06213">
        <ele>252.60000610352</ele>
        <time>2017-03-08T13:13:04Z</time>
      </trkpt>
      <trkpt lat="43.42143" lon="6.06213">
        <ele>252.60000610352</ele>
        <time>2017-03-08T13:13:07Z</time>
      </trkpt>
      <trkpt lat="43.42143" lon="6.06213">
        <ele>252.60000610352</ele>
        <time>2017-03-08T13:13:10Z</time>
      </trkpt>
      <trkpt lat="43.42143" lon="6.06213">
        <ele>252.60000610352</ele>
        <time>2017-03-08T13:13:12Z</time>
      </trkpt>
      <trkpt lat="43.42143" lon="6.06213">
        <ele>252.60000610352</ele>
        <time>2017-03-08T13:13:17Z</time>
      </trkpt>
      <trkpt lat="43.42143" lon="6.06213">
        <ele>252.60000610352</ele>
        <time>2017-03-08T13:13:22Z</time>
      </trkpt>
      <trkpt lat="43.42143" lon="6.06213">
        <ele>252.60000610352</ele>
        <time>2017-03-08T13:13:25Z</time>
      </trkpt>
      <trkpt lat="43.42143" lon="6.06213">
        <ele>252.80000305176</ele>
        <time>2017-03-08T13:13:31Z</time>
      </trkpt>
      <trkpt lat="43.42143" lon="6.06213">
        <ele>252.60000610352</ele>
        <time>2017-03-08T13:13:37Z</time>
      </trkpt>
      <trkpt lat="43.42143" lon="6.06213">
        <ele>252.60000610352</ele>
        <time>2017-03-08T13:13:47Z</time>
      </trkpt>
      <trkpt lat="43.42143" lon="6.06214">
        <ele>252.39999389648</ele>
        <time>2017-03-08T13:13:57Z</time>
      </trkpt>
      <trkpt lat="43.42143" lon="6.06214">
        <ele>252.60000610352</ele>
        <time>2017-03-08T13:14:08Z</time>
      </trkpt>
      <trkpt lat="43.42143" lon="6.06213">
        <ele>252.60000610352</ele>
        <time>2017-03-08T13:14:37Z</time>
      </trkpt>
      <trkpt lat="43.42143" lon="6.06214">
        <ele>252.60000610352</ele>
        <time>2017-03-08T13:14:46Z</time>
      </trkpt>
      <trkpt lat="43.42144" lon="6.0621">
        <ele>252.19999694824</ele>
        <time>2017-03-08T13:14:57Z</time>
      </trkpt>
      <trkpt lat="43.42144" lon="6.06208">
        <ele>252.39999389648</ele>
        <time>2017-03-08T13:14:58Z</time>
      </trkpt>
      <trkpt lat="43.42142" lon="6.06194">
        <ele>251.60000610352</ele>
        <time>2017-03-08T13:15:03Z</time>
      </trkpt>
      <trkpt lat="43.42136" lon="6.06178">
        <ele>251.19999694824</ele>
        <time>2017-03-08T13:15:07Z</time>
      </trkpt>
      <trkpt lat="43.42131" lon="6.06163">
        <ele>250.60000610352</ele>
        <time>2017-03-08T13:15:10Z</time>
      </trkpt>
      <trkpt lat="43.42123" lon="6.06138">
        <ele>249.39999389648</ele>
        <time>2017-03-08T13:15:14Z</time>
      </trkpt>
      <trkpt lat="43.42118" lon="6.0612">
        <ele>249.39999389648</ele>
        <time>2017-03-08T13:15:17Z</time>
      </trkpt>
      <trkpt lat="43.42114" lon="6.06098">
        <ele>250.60000610352</ele>
        <time>2017-03-08T13:15:22Z</time>
      </trkpt>
      <trkpt lat="43.42112" lon="6.06083">
        <ele>251.80000305176</ele>
        <time>2017-03-08T13:15:26Z</time>
      </trkpt>
      <trkpt lat="43.42112" lon="6.06079">
        <ele>252</ele>
        <time>2017-03-08T13:15:27Z</time>
      </trkpt>
      <trkpt lat="43.42112" lon="6.06069">
        <ele>252.60000610352</ele>
        <time>2017-03-08T13:15:30Z</time>
      </trkpt>
      <trkpt lat="43.42111" lon="6.06066">
        <ele>252.80000305176</ele>
        <time>2017-03-08T13:15:31Z</time>
      </trkpt>
      <trkpt lat="43.42109" lon="6.06047">
        <ele>253.19999694824</ele>
        <time>2017-03-08T13:15:37Z</time>
      </trkpt>
      <trkpt lat="43.42101" lon="6.0601">
        <ele>253.80000305176</ele>
        <time>2017-03-08T13:15:47Z</time>
      </trkpt>
      <trkpt lat="43.4209" lon="6.05964">
        <ele>253</ele>
        <time>2017-03-08T13:15:57Z</time>
      </trkpt>
      <trkpt lat="43.42088" lon="6.05954">
        <ele>252.80000305176</ele>
        <time>2017-03-08T13:15:59Z</time>
      </trkpt>
      <trkpt lat="43.42076" lon="6.05909">
        <ele>252.19999694824</ele>
        <time>2017-03-08T13:16:07Z</time>
      </trkpt>
      <trkpt lat="43.42074" lon="6.05899">
        <ele>252.19999694824</ele>
        <time>2017-03-08T13:16:09Z</time>
      </trkpt>
      <trkpt lat="43.42062" lon="6.05853">
        <ele>251.80000305176</ele>
        <time>2017-03-08T13:16:17Z</time>
      </trkpt>
      <trkpt lat="43.42055" lon="6.05826">
        <ele>250.80000305176</ele>
        <time>2017-03-08T13:16:20Z</time>
      </trkpt>
      <trkpt lat="43.42051" lon="6.05807">
        <ele>249</ele>
        <time>2017-03-08T13:16:22Z</time>
      </trkpt>
      <trkpt lat="43.42048" lon="6.05788">
        <ele>247.60000610352</ele>
        <time>2017-03-08T13:16:24Z</time>
      </trkpt>
      <trkpt lat="43.42042" lon="6.05761">
        <ele>247.19999694824</ele>
        <time>2017-03-08T13:16:27Z</time>
      </trkpt>
      <trkpt lat="43.42034" lon="6.05714">
        <ele>247.39999389648</ele>
        <time>2017-03-08T13:16:32Z</time>
      </trkpt>
      <trkpt lat="43.42028" lon="6.05687">
        <ele>247.19999694824</ele>
        <time>2017-03-08T13:16:35Z</time>
      </trkpt>
      <trkpt lat="43.42025" lon="6.0567">
        <ele>247.39999389648</ele>
        <time>2017-03-08T13:16:37Z</time>
      </trkpt>
      <trkpt lat="43.4202" lon="6.05647">
        <ele>248</ele>
        <time>2017-03-08T13:16:40Z</time>
      </trkpt>
      <trkpt lat="43.42019" lon="6.05633">
        <ele>248.80000305176</ele>
        <time>2017-03-08T13:16:42Z</time>
      </trkpt>
      <trkpt lat="43.42017" lon="6.05619">
        <ele>249.80000305176</ele>
        <time>2017-03-08T13:16:44Z</time>
      </trkpt>
      <trkpt lat="43.42016" lon="6.05612">
        <ele>250.19999694824</ele>
        <time>2017-03-08T13:16:45Z</time>
      </trkpt>
      <trkpt lat="43.42014" lon="6.05599">
        <ele>251</ele>
        <time>2017-03-08T13:16:47Z</time>
      </trkpt>
      <trkpt lat="43.42013" lon="6.05593">
        <ele>251.60000610352</ele>
        <time>2017-03-08T13:16:48Z</time>
      </trkpt>
      <trkpt lat="43.4201" lon="6.05577">
        <ele>252.80000305176</ele>
        <time>2017-03-08T13:16:51Z</time>
      </trkpt>
      <trkpt lat="43.42005" lon="6.05555">
        <ele>254</ele>
        <time>2017-03-08T13:16:56Z</time>
      </trkpt>
      <trkpt lat="43.42004" lon="6.05552">
        <ele>254.60000610352</ele>
        <time>2017-03-08T13:16:57Z</time>
      </trkpt>
      <trkpt lat="43.42004" lon="6.05545">
        <ele>255.39999389648</ele>
        <time>2017-03-08T13:16:59Z</time>
      </trkpt>
      <trkpt lat="43.42001" lon="6.05522">
        <ele>256.60000610352</ele>
        <time>2017-03-08T13:17:06Z</time>
      </trkpt>
      <trkpt lat="43.41998" lon="6.055">
        <ele>257.60000610352</ele>
        <time>2017-03-08T13:17:13Z</time>
      </trkpt>
      <trkpt lat="43.41996" lon="6.05487">
        <ele>258.20001220703</ele>
        <time>2017-03-08T13:17:17Z</time>
      </trkpt>
      <trkpt lat="43.4199" lon="6.05461">
        <ele>258</ele>
        <time>2017-03-08T13:17:23Z</time>
      </trkpt>
      <trkpt lat="43.41983" lon="6.05437">
        <ele>257.20001220703</ele>
        <time>2017-03-08T13:17:27Z</time>
      </trkpt>
      <trkpt lat="43.41979" lon="6.05423">
        <ele>256.60000610352</ele>
        <time>2017-03-08T13:17:29Z</time>
      </trkpt>
      <trkpt lat="43.41977" lon="6.05415">
        <ele>256.20001220703</ele>
        <time>2017-03-08T13:17:30Z</time>
      </trkpt>
      <trkpt lat="43.41972" lon="6.05397">
        <ele>255</ele>
        <time>2017-03-08T13:17:32Z</time>
      </trkpt>
      <trkpt lat="43.41965" lon="6.05369">
        <ele>253.39999389648</ele>
        <time>2017-03-08T13:17:35Z</time>
      </trkpt>
      <trkpt lat="43.41961" lon="6.05349">
        <ele>252.39999389648</ele>
        <time>2017-03-08T13:17:37Z</time>
      </trkpt>
      <trkpt lat="43.41954" lon="6.05319">
        <ele>251</ele>
        <time>2017-03-08T13:17:40Z</time>
      </trkpt>
      <trkpt lat="43.41948" lon="6.05287">
        <ele>250</ele>
        <time>2017-03-08T13:17:43Z</time>
      </trkpt>
      <trkpt lat="43.41944" lon="6.05265">
        <ele>248.80000305176</ele>
        <time>2017-03-08T13:17:45Z</time>
      </trkpt>
      <trkpt lat="43.41941" lon="6.05241">
        <ele>247.80000305176</ele>
        <time>2017-03-08T13:17:47Z</time>
      </trkpt>
      <trkpt lat="43.41938" lon="6.05217">
        <ele>246.80000305176</ele>
        <time>2017-03-08T13:17:49Z</time>
      </trkpt>
      <trkpt lat="43.41937" lon="6.05207">
        <ele>245.60000610352</ele>
        <time>2017-03-08T13:17:50Z</time>
      </trkpt>
      <trkpt lat="43.41936" lon="6.05186">
        <ele>244</ele>
        <time>2017-03-08T13:17:52Z</time>
      </trkpt>
      <trkpt lat="43.41937" lon="6.05167">
        <ele>243.19999694824</ele>
        <time>2017-03-08T13:17:54Z</time>
      </trkpt>
      <trkpt lat="43.41938" lon="6.0516">
        <ele>242.80000305176</ele>
        <time>2017-03-08T13:17:55Z</time>
      </trkpt>
      <trkpt lat="43.41941" lon="6.05154">
        <ele>242.60000610352</ele>
        <time>2017-03-08T13:17:56Z</time>
      </trkpt>
      <trkpt lat="43.41945" lon="6.05151">
        <ele>242.39999389648</ele>
        <time>2017-03-08T13:17:57Z</time>
      </trkpt>
      <trkpt lat="43.41949" lon="6.05148">
        <ele>242.39999389648</ele>
        <time>2017-03-08T13:17:58Z</time>
      </trkpt>
      <trkpt lat="43.41966" lon="6.0514">
        <ele>243.60000610352</ele>
        <time>2017-03-08T13:18:02Z</time>
      </trkpt>
      <trkpt lat="43.4197" lon="6.05139">
        <ele>243.80000305176</ele>
        <time>2017-03-08T13:18:03Z</time>
      </trkpt>
      <trkpt lat="43.41978" lon="6.05137">
        <ele>244.19999694824</ele>
        <time>2017-03-08T13:18:05Z</time>
      </trkpt>
      <trkpt lat="43.4199" lon="6.05137">
        <ele>245</ele>
        <time>2017-03-08T13:18:08Z</time>
      </trkpt>
      <trkpt lat="43.42002" lon="6.05135">
        <ele>245.19999694824</ele>
        <time>2017-03-08T13:18:11Z</time>
      </trkpt>
      <trkpt lat="43.42023" lon="6.05128">
        <ele>245.39999389648</ele>
        <time>2017-03-08T13:18:17Z</time>
      </trkpt>
      <trkpt lat="43.4204" lon="6.05122">
        <ele>246</ele>
        <time>2017-03-08T13:18:22Z</time>
      </trkpt>
      <trkpt lat="43.42059" lon="6.05119">
        <ele>247.39999389648</ele>
        <time>2017-03-08T13:18:27Z</time>
      </trkpt>
      <trkpt lat="43.4208" lon="6.05118">
        <ele>248</ele>
        <time>2017-03-08T13:18:33Z</time>
      </trkpt>
      <trkpt lat="43.42091" lon="6.05119">
        <ele>248.60000610352</ele>
        <time>2017-03-08T13:18:37Z</time>
      </trkpt>
      <trkpt lat="43.42102" lon="6.05119">
        <ele>249.80000305176</ele>
        <time>2017-03-08T13:18:41Z</time>
      </trkpt>
      <trkpt lat="43.42118" lon="6.05121">
        <ele>250.60000610352</ele>
        <time>2017-03-08T13:18:47Z</time>
      </trkpt>
      <trkpt lat="43.42119" lon="6.05122">
        <ele>250.80000305176</ele>
        <time>2017-03-08T13:18:48Z</time>
      </trkpt>
      <trkpt lat="43.42133" lon="6.05131">
        <ele>251.60000610352</ele>
        <time>2017-03-08T13:18:56Z</time>
      </trkpt>
      <trkpt lat="43.42134" lon="6.05133">
        <ele>251.80000305176</ele>
        <time>2017-03-08T13:18:57Z</time>
      </trkpt>
      <trkpt lat="43.42135" lon="6.05135">
        <ele>252</ele>
        <time>2017-03-08T13:18:58Z</time>
      </trkpt>
      <trkpt lat="43.42136" lon="6.05138">
        <ele>252.19999694824</ele>
        <time>2017-03-08T13:19:01Z</time>
      </trkpt>
      <trkpt lat="43.42137" lon="6.0514">
        <ele>252.39999389648</ele>
        <time>2017-03-08T13:19:03Z</time>
      </trkpt>
      <trkpt lat="43.42139" lon="6.05143">
        <ele>252.60000610352</ele>
        <time>2017-03-08T13:19:05Z</time>
      </trkpt>
      <trkpt lat="43.42141" lon="6.05143">
        <ele>252.80000305176</ele>
        <time>2017-03-08T13:19:07Z</time>
      </trkpt>
      <trkpt lat="43.42143" lon="6.05145">
        <ele>252.80000305176</ele>
        <time>2017-03-08T13:19:09Z</time>
      </trkpt>
      <trkpt lat="43.42143" lon="6.05147">
        <ele>253</ele>
        <time>2017-03-08T13:19:12Z</time>
      </trkpt>
      <trkpt lat="43.42142" lon="6.05147">
        <ele>253.19999694824</ele>
        <time>2017-03-08T13:19:17Z</time>
      </trkpt>
      <trkpt lat="43.42141" lon="6.05148">
        <ele>253.19999694824</ele>
        <time>2017-03-08T13:19:27Z</time>
      </trkpt>
      <trkpt lat="43.42142" lon="6.05149">
        <ele>253.19999694824</ele>
        <time>2017-03-08T13:19:32Z</time>
      </trkpt>
      <trkpt lat="43.42142" lon="6.05149">
        <ele>253</ele>
        <time>2017-03-08T13:19:35Z</time>
      </trkpt>
      <trkpt lat="43.42142" lon="6.05149">
        <ele>253</ele>
        <time>2017-03-08T13:19:37Z</time>
      </trkpt>
      <trkpt lat="43.42141" lon="6.05149">
        <ele>252.80000305176</ele>
        <time>2017-03-08T13:19:47Z</time>
      </trkpt>
      <trkpt lat="43.42139" lon="6.05148">
        <ele>253</ele>
        <time>2017-03-08T13:19:54Z</time>
      </trkpt>
      <trkpt lat="43.42138" lon="6.05147">
        <ele>253.39999389648</ele>
        <time>2017-03-08T13:19:57Z</time>
      </trkpt>
      <trkpt lat="43.42137" lon="6.05147">
        <ele>253.60000610352</ele>
        <time>2017-03-08T13:20:07Z</time>
      </trkpt>
      <trkpt lat="43.42137" lon="6.05148">
        <ele>252.80000305176</ele>
        <time>2017-03-08T13:20:17Z</time>
      </trkpt>
      <trkpt lat="43.42138" lon="6.05146">
        <ele>253</ele>
        <time>2017-03-08T13:20:47Z</time>
      </trkpt>
      <trkpt lat="43.42138" lon="6.05147">
        <ele>252.80000305176</ele>
        <time>2017-03-08T13:20:57Z</time>
      </trkpt>
      <trkpt lat="43.42138" lon="6.05144">
        <ele>252.80000305176</ele>
        <time>2017-03-08T13:21:14Z</time>
      </trkpt>
      <trkpt lat="43.42138" lon="6.05143">
        <ele>253.19999694824</ele>
        <time>2017-03-08T13:21:22Z</time>
      </trkpt>
      <trkpt lat="43.42138" lon="6.05143">
        <ele>253</ele>
        <time>2017-03-08T13:21:27Z</time>
      </trkpt>
      <trkpt lat="43.42137" lon="6.05144">
        <ele>253</ele>
        <time>2017-03-08T13:21:42Z</time>
      </trkpt>
      <trkpt lat="43.42137" lon="6.05145">
        <ele>253.39999389648</ele>
        <time>2017-03-08T13:21:47Z</time>
      </trkpt>
      <trkpt lat="43.42139" lon="6.05146">
        <ele>253.19999694824</ele>
        <time>2017-03-08T13:21:57Z</time>
      </trkpt>
      <trkpt lat="43.42141" lon="6.05146">
        <ele>253</ele>
        <time>2017-03-08T13:22:06Z</time>
      </trkpt>
      <trkpt lat="43.42141" lon="6.05146">
        <ele>253</ele>
        <time>2017-03-08T13:22:07Z</time>
      </trkpt>
      <trkpt lat="43.42141" lon="6.05146">
        <ele>253</ele>
        <time>2017-03-08T13:22:10Z</time>
      </trkpt>
      <trkpt lat="43.42141" lon="6.05146">
        <ele>253.19999694824</ele>
        <time>2017-03-08T13:22:11Z</time>
      </trkpt>
      <trkpt lat="43.42141" lon="6.05146">
        <ele>253.19999694824</ele>
        <time>2017-03-08T13:22:15Z</time>
      </trkpt>
      <trkpt lat="43.42142" lon="6.05147">
        <ele>253.39999389648</ele>
        <time>2017-03-08T13:22:17Z</time>
      </trkpt>
      <trkpt lat="43.42142" lon="6.05147">
        <ele>253.19999694824</ele>
        <time>2017-03-08T13:22:18Z</time>
      </trkpt>
      <trkpt lat="43.42147" lon="6.05154">
        <ele>253</ele>
        <time>2017-03-08T13:22:23Z</time>
      </trkpt>
      <trkpt lat="43.42152" lon="6.05159">
        <ele>253</ele>
        <time>2017-03-08T13:22:27Z</time>
      </trkpt>
      <trkpt lat="43.42176" lon="6.05172">
        <ele>253.19999694824</ele>
        <time>2017-03-08T13:22:37Z</time>
      </trkpt>
      <trkpt lat="43.42178" lon="6.05173">
        <ele>253.39999389648</ele>
        <time>2017-03-08T13:22:38Z</time>
      </trkpt>
      <trkpt lat="43.42181" lon="6.05174">
        <ele>253.39999389648</ele>
        <time>2017-03-08T13:22:39Z</time>
      </trkpt>
      <trkpt lat="43.422" lon="6.05188">
        <ele>254.39999389648</ele>
        <time>2017-03-08T13:22:47Z</time>
      </trkpt>
      <trkpt lat="43.42215" lon="6.05197">
        <ele>255</ele>
        <time>2017-03-08T13:22:53Z</time>
      </trkpt>
      <trkpt lat="43.42217" lon="6.05198">
        <ele>255.19999694824</ele>
        <time>2017-03-08T13:22:54Z</time>
      </trkpt>
      <trkpt lat="43.42224" lon="6.05204">
        <ele>255.60000610352</ele>
        <time>2017-03-08T13:22:57Z</time>
      </trkpt>
      <trkpt lat="43.42236" lon="6.05219">
        <ele>256.20001220703</ele>
        <time>2017-03-08T13:23:03Z</time>
      </trkpt>
      <trkpt lat="43.42246" lon="6.05222">
        <ele>257.39999389648</ele>
        <time>2017-03-08T13:23:07Z</time>
      </trkpt>
      <trkpt lat="43.42263" lon="6.05219">
        <ele>258.39999389648</ele>
        <time>2017-03-08T13:23:14Z</time>
      </trkpt>
      <trkpt lat="43.42271" lon="6.05219">
        <ele>258.60000610352</ele>
        <time>2017-03-08T13:23:17Z</time>
      </trkpt>
      <trkpt lat="43.42295" lon="6.05226">
        <ele>259</ele>
        <time>2017-03-08T13:23:27Z</time>
      </trkpt>
      <trkpt lat="43.42304" lon="6.05229">
        <ele>259.39999389648</ele>
        <time>2017-03-08T13:23:31Z</time>
      </trkpt>
      <trkpt lat="43.42317" lon="6.0523">
        <ele>260.39999389648</ele>
        <time>2017-03-08T13:23:37Z</time>
      </trkpt>
      <trkpt lat="43.42319" lon="6.0523">
        <ele>260.60000610352</ele>
        <time>2017-03-08T13:23:38Z</time>
      </trkpt>
      <trkpt lat="43.42326" lon="6.05231">
        <ele>260.79998779297</ele>
        <time>2017-03-08T13:23:42Z</time>
      </trkpt>
      <trkpt lat="43.42328" lon="6.05232">
        <ele>260.79998779297</ele>
        <time>2017-03-08T13:23:43Z</time>
      </trkpt>
      <trkpt lat="43.42333" lon="6.05233">
        <ele>262.20001220703</ele>
        <time>2017-03-08T13:23:46Z</time>
      </trkpt>
      <trkpt lat="43.42335" lon="6.05234">
        <ele>262.60000610352</ele>
        <time>2017-03-08T13:23:47Z</time>
      </trkpt>
      <trkpt lat="43.42346" lon="6.05237">
        <ele>263.79998779297</ele>
        <time>2017-03-08T13:23:53Z</time>
      </trkpt>
      <trkpt lat="43.42354" lon="6.05237">
        <ele>264.20001220703</ele>
        <time>2017-03-08T13:23:57Z</time>
      </trkpt>
      <trkpt lat="43.42362" lon="6.05234">
        <ele>264.79998779297</ele>
        <time>2017-03-08T13:24:02Z</time>
      </trkpt>
      <trkpt lat="43.42372" lon="6.05232">
        <ele>265.39999389648</ele>
        <time>2017-03-08T13:24:07Z</time>
      </trkpt>
      <trkpt lat="43.42386" lon="6.05233">
        <ele>266.39999389648</ele>
        <time>2017-03-08T13:24:14Z</time>
      </trkpt>
      <trkpt lat="43.42392" lon="6.05231">
        <ele>266.79998779297</ele>
        <time>2017-03-08T13:24:17Z</time>
      </trkpt>
      <trkpt lat="43.424" lon="6.0523">
        <ele>267</ele>
        <time>2017-03-08T13:24:21Z</time>
      </trkpt>
      <trkpt lat="43.42408" lon="6.05229">
        <ele>267.20001220703</ele>
        <time>2017-03-08T13:24:25Z</time>
      </trkpt>
      <trkpt lat="43.42411" lon="6.05229">
        <ele>267.39999389648</ele>
        <time>2017-03-08T13:24:27Z</time>
      </trkpt>
      <trkpt lat="43.42415" lon="6.05229">
        <ele>267.60000610352</ele>
        <time>2017-03-08T13:24:29Z</time>
      </trkpt>
      <trkpt lat="43.42432" lon="6.05229">
        <ele>267.79998779297</ele>
        <time>2017-03-08T13:24:37Z</time>
      </trkpt>
      <trkpt lat="43.42451" lon="6.05225">
        <ele>268.60000610352</ele>
        <time>2017-03-08T13:24:47Z</time>
      </trkpt>
      <trkpt lat="43.42454" lon="6.05224">
        <ele>269.39999389648</ele>
        <time>2017-03-08T13:24:49Z</time>
      </trkpt>
      <trkpt lat="43.42455" lon="6.05223">
        <ele>269.79998779297</ele>
        <time>2017-03-08T13:24:50Z</time>
      </trkpt>
      <trkpt lat="43.42463" lon="6.05219">
        <ele>270.79998779297</ele>
        <time>2017-03-08T13:24:55Z</time>
      </trkpt>
      <trkpt lat="43.42467" lon="6.0522">
        <ele>271.60000610352</ele>
        <time>2017-03-08T13:24:58Z</time>
      </trkpt>
      <trkpt lat="43.42468" lon="6.0522">
        <ele>272</ele>
        <time>2017-03-08T13:24:59Z</time>
      </trkpt>
      <trkpt lat="43.42484" lon="6.05223">
        <ele>272.20001220703</ele>
        <time>2017-03-08T13:25:07Z</time>
      </trkpt>
      <trkpt lat="43.42494" lon="6.05229">
        <ele>271.60000610352</ele>
        <time>2017-03-08T13:25:11Z</time>
      </trkpt>
      <trkpt lat="43.42508" lon="6.05232">
        <ele>271.60000610352</ele>
        <time>2017-03-08T13:25:17Z</time>
      </trkpt>
      <trkpt lat="43.42523" lon="6.05232">
        <ele>271.60000610352</ele>
        <time>2017-03-08T13:25:24Z</time>
      </trkpt>
      <trkpt lat="43.42528" lon="6.0523">
        <ele>271.79998779297</ele>
        <time>2017-03-08T13:25:27Z</time>
      </trkpt>
      <trkpt lat="43.42546" lon="6.05226">
        <ele>272.60000610352</ele>
        <time>2017-03-08T13:25:35Z</time>
      </trkpt>
      <trkpt lat="43.42554" lon="6.05225">
        <ele>274.20001220703</ele>
        <time>2017-03-08T13:25:39Z</time>
      </trkpt>
      <trkpt lat="43.42558" lon="6.05225">
        <ele>274.39999389648</ele>
        <time>2017-03-08T13:25:41Z</time>
      </trkpt>
      <trkpt lat="43.4257" lon="6.05228">
        <ele>274.20001220703</ele>
        <time>2017-03-08T13:25:47Z</time>
      </trkpt>
      <trkpt lat="43.42587" lon="6.05238">
        <ele>274.39999389648</ele>
        <time>2017-03-08T13:25:55Z</time>
      </trkpt>
      <trkpt lat="43.4259" lon="6.05241">
        <ele>274.39999389648</ele>
        <time>2017-03-08T13:25:57Z</time>
      </trkpt>
      <trkpt lat="43.42594" lon="6.05244">
        <ele>274.39999389648</ele>
        <time>2017-03-08T13:26:00Z</time>
      </trkpt>
      <trkpt lat="43.42597" lon="6.05246">
        <ele>274.39999389648</ele>
        <time>2017-03-08T13:26:03Z</time>
      </trkpt>
      <trkpt lat="43.42599" lon="6.05247">
        <ele>274.60000610352</ele>
        <time>2017-03-08T13:26:07Z</time>
      </trkpt>
      <trkpt lat="43.42599" lon="6.05247">
        <ele>274.60000610352</ele>
        <time>2017-03-08T13:26:14Z</time>
      </trkpt>
      <trkpt lat="43.42599" lon="6.05247">
        <ele>274.60000610352</ele>
        <time>2017-03-08T13:26:17Z</time>
      </trkpt>
      <trkpt lat="43.42601" lon="6.05249">
        <ele>274.39999389648</ele>
        <time>2017-03-08T13:26:23Z</time>
      </trkpt>
      <trkpt lat="43.42603" lon="6.05249">
        <ele>274</ele>
        <time>2017-03-08T13:26:27Z</time>
      </trkpt>
      <trkpt lat="43.42605" lon="6.05254">
        <ele>274.60000610352</ele>
        <time>2017-03-08T13:26:37Z</time>
      </trkpt>
      <trkpt lat="43.42608" lon="6.05257">
        <ele>274.39999389648</ele>
        <time>2017-03-08T13:26:47Z</time>
      </trkpt>
      <trkpt lat="43.42612" lon="6.05262">
        <ele>274.20001220703</ele>
        <time>2017-03-08T13:26:53Z</time>
      </trkpt>
      <trkpt lat="43.42618" lon="6.05265">
        <ele>275</ele>
        <time>2017-03-08T13:26:57Z</time>
      </trkpt>
      <trkpt lat="43.4262" lon="6.05266">
        <ele>275.39999389648</ele>
        <time>2017-03-08T13:26:59Z</time>
      </trkpt>
      <trkpt lat="43.42628" lon="6.0527">
        <ele>275.60000610352</ele>
        <time>2017-03-08T13:27:07Z</time>
      </trkpt>
      <trkpt lat="43.4263" lon="6.05274">
        <ele>275.79998779297</ele>
        <time>2017-03-08T13:27:17Z</time>
      </trkpt>
      <trkpt lat="43.4263" lon="6.05274">
        <ele>275.79998779297</ele>
        <time>2017-03-08T13:27:27Z</time>
      </trkpt>
      <trkpt lat="43.4263" lon="6.05273">
        <ele>275.79998779297</ele>
        <time>2017-03-08T13:27:37Z</time>
      </trkpt>
      <trkpt lat="43.4263" lon="6.05273">
        <ele>275.79998779297</ele>
        <time>2017-03-08T13:27:39Z</time>
      </trkpt>
      <trkpt lat="43.42632" lon="6.05277">
        <ele>275.79998779297</ele>
        <time>2017-03-08T13:27:44Z</time>
      </trkpt>
      <trkpt lat="43.42633" lon="6.0528">
        <ele>276</ele>
        <time>2017-03-08T13:27:46Z</time>
      </trkpt>
      <trkpt lat="43.42634" lon="6.05281">
        <ele>276.20001220703</ele>
        <time>2017-03-08T13:27:47Z</time>
      </trkpt>
      <trkpt lat="43.42643" lon="6.05289">
        <ele>276.39999389648</ele>
        <time>2017-03-08T13:27:53Z</time>
      </trkpt>
      <trkpt lat="43.42646" lon="6.05292">
        <ele>276.39999389648</ele>
        <time>2017-03-08T13:27:55Z</time>
      </trkpt>
      <trkpt lat="43.42648" lon="6.05295">
        <ele>276.60000610352</ele>
        <time>2017-03-08T13:27:57Z</time>
      </trkpt>
      <trkpt lat="43.42652" lon="6.05302">
        <ele>277.20001220703</ele>
        <time>2017-03-08T13:28:03Z</time>
      </trkpt>
      <trkpt lat="43.42653" lon="6.05303">
        <ele>277.39999389648</ele>
        <time>2017-03-08T13:28:06Z</time>
      </trkpt>
      <trkpt lat="43.42653" lon="6.05303">
        <ele>277.39999389648</ele>
        <time>2017-03-08T13:28:07Z</time>
      </trkpt>
      <trkpt lat="43.42657" lon="6.05309">
        <ele>277.60000610352</ele>
        <time>2017-03-08T13:28:14Z</time>
      </trkpt>
      <trkpt lat="43.42659" lon="6.05312">
        <ele>278</ele>
        <time>2017-03-08T13:28:17Z</time>
      </trkpt>
      <trkpt lat="43.42663" lon="6.05318">
        <ele>278.39999389648</ele>
        <time>2017-03-08T13:28:23Z</time>
      </trkpt>
      <trkpt lat="43.42666" lon="6.05324">
        <ele>278.60000610352</ele>
        <time>2017-03-08T13:28:27Z</time>
      </trkpt>
      <trkpt lat="43.42674" lon="6.05335">
        <ele>279.60000610352</ele>
        <time>2017-03-08T13:28:35Z</time>
      </trkpt>
      <trkpt lat="43.42674" lon="6.05335">
        <ele>280.39999389648</ele>
        <time>2017-03-08T13:28:37Z</time>
      </trkpt>
      <trkpt lat="43.42674" lon="6.05336">
        <ele>280.60000610352</ele>
        <time>2017-03-08T13:28:39Z</time>
      </trkpt>
      <trkpt lat="43.42674" lon="6.05336">
        <ele>280.79998779297</ele>
        <time>2017-03-08T13:28:42Z</time>
      </trkpt>
      <trkpt lat="43.42675" lon="6.05339">
        <ele>280.79998779297</ele>
        <time>2017-03-08T13:28:47Z</time>
      </trkpt>
      <trkpt lat="43.42675" lon="6.0534">
        <ele>280.60000610352</ele>
        <time>2017-03-08T13:28:57Z</time>
      </trkpt>
      <trkpt lat="43.42676" lon="6.0534">
        <ele>280.60000610352</ele>
        <time>2017-03-08T13:29:07Z</time>
      </trkpt>
      <trkpt lat="43.42681" lon="6.05343">
        <ele>281.20001220703</ele>
        <time>2017-03-08T13:29:11Z</time>
      </trkpt>
      <trkpt lat="43.42692" lon="6.05348">
        <ele>281.60000610352</ele>
        <time>2017-03-08T13:29:17Z</time>
      </trkpt>
      <trkpt lat="43.42693" lon="6.05348">
        <ele>281.79998779297</ele>
        <time>2017-03-08T13:29:18Z</time>
      </trkpt>
      <trkpt lat="43.42712" lon="6.05347">
        <ele>282.60000610352</ele>
        <time>2017-03-08T13:29:27Z</time>
      </trkpt>
      <trkpt lat="43.42714" lon="6.05347">
        <ele>282.60000610352</ele>
        <time>2017-03-08T13:29:28Z</time>
      </trkpt>
      <trkpt lat="43.42717" lon="6.05349">
        <ele>282.79998779297</ele>
        <time>2017-03-08T13:29:30Z</time>
      </trkpt>
      <trkpt lat="43.42719" lon="6.05357">
        <ele>283.79998779297</ele>
        <time>2017-03-08T13:29:34Z</time>
      </trkpt>
      <trkpt lat="43.42718" lon="6.05359">
        <ele>284</ele>
        <time>2017-03-08T13:29:35Z</time>
      </trkpt>
      <trkpt lat="43.42717" lon="6.05364">
        <ele>284.20001220703</ele>
        <time>2017-03-08T13:29:37Z</time>
      </trkpt>
      <trkpt lat="43.42716" lon="6.05381">
        <ele>285.20001220703</ele>
        <time>2017-03-08T13:29:44Z</time>
      </trkpt>
      <trkpt lat="43.42716" lon="6.05388">
        <ele>285.79998779297</ele>
        <time>2017-03-08T13:29:47Z</time>
      </trkpt>
      <trkpt lat="43.42718" lon="6.05392">
        <ele>286.20001220703</ele>
        <time>2017-03-08T13:29:49Z</time>
      </trkpt>
      <trkpt lat="43.42721" lon="6.05404">
        <ele>286.39999389648</ele>
        <time>2017-03-08T13:29:55Z</time>
      </trkpt>
      <trkpt lat="43.42723" lon="6.05407">
        <ele>286.79998779297</ele>
        <time>2017-03-08T13:29:57Z</time>
      </trkpt>
      <trkpt lat="43.42723" lon="6.05409">
        <ele>287.39999389648</ele>
        <time>2017-03-08T13:30:00Z</time>
      </trkpt>
      <trkpt lat="43.42723" lon="6.05411">
        <ele>288</ele>
        <time>2017-03-08T13:30:03Z</time>
      </trkpt>
      <trkpt lat="43.42723" lon="6.05412">
        <ele>288</ele>
        <time>2017-03-08T13:30:05Z</time>
      </trkpt>
      <trkpt lat="43.42723" lon="6.05412">
        <ele>288</ele>
        <time>2017-03-08T13:30:07Z</time>
      </trkpt>
      <trkpt lat="43.42724" lon="6.05413">
        <ele>288</ele>
        <time>2017-03-08T13:30:09Z</time>
      </trkpt>
      <trkpt lat="43.42723" lon="6.05414">
        <ele>287.79998779297</ele>
        <time>2017-03-08T13:30:13Z</time>
      </trkpt>
      <trkpt lat="43.42724" lon="6.05416">
        <ele>288</ele>
        <time>2017-03-08T13:30:17Z</time>
      </trkpt>
      <trkpt lat="43.42725" lon="6.05418">
        <ele>288.20001220703</ele>
        <time>2017-03-08T13:30:20Z</time>
      </trkpt>
      <trkpt lat="43.42726" lon="6.05418">
        <ele>288.20001220703</ele>
        <time>2017-03-08T13:30:23Z</time>
      </trkpt>
      <trkpt lat="43.42726" lon="6.05418">
        <ele>288</ele>
        <time>2017-03-08T13:30:25Z</time>
      </trkpt>
      <trkpt lat="43.42729" lon="6.05427">
        <ele>288.20001220703</ele>
        <time>2017-03-08T13:30:36Z</time>
      </trkpt>
      <trkpt lat="43.4273" lon="6.05429">
        <ele>288.20001220703</ele>
        <time>2017-03-08T13:30:37Z</time>
      </trkpt>
      <trkpt lat="43.42731" lon="6.05449">
        <ele>289.20001220703</ele>
        <time>2017-03-08T13:30:45Z</time>
      </trkpt>
      <trkpt lat="43.4273" lon="6.05453">
        <ele>289.39999389648</ele>
        <time>2017-03-08T13:30:47Z</time>
      </trkpt>
      <trkpt lat="43.42728" lon="6.0546">
        <ele>289.60000610352</ele>
        <time>2017-03-08T13:30:51Z</time>
      </trkpt>
      <trkpt lat="43.42723" lon="6.05467">
        <ele>290.39999389648</ele>
        <time>2017-03-08T13:30:55Z</time>
      </trkpt>
      <trkpt lat="43.42722" lon="6.05472">
        <ele>290.60000610352</ele>
        <time>2017-03-08T13:30:57Z</time>
      </trkpt>
      <trkpt lat="43.42722" lon="6.05489">
        <ele>291.39999389648</ele>
        <time>2017-03-08T13:31:04Z</time>
      </trkpt>
      <trkpt lat="43.42723" lon="6.05494">
        <ele>291.79998779297</ele>
        <time>2017-03-08T13:31:07Z</time>
      </trkpt>
      <trkpt lat="43.42724" lon="6.05502">
        <ele>292.39999389648</ele>
        <time>2017-03-08T13:31:11Z</time>
      </trkpt>
      <trkpt lat="43.42725" lon="6.05511">
        <ele>292.60000610352</ele>
        <time>2017-03-08T13:31:15Z</time>
      </trkpt>
      <trkpt lat="43.42726" lon="6.05516">
        <ele>292.79998779297</ele>
        <time>2017-03-08T13:31:17Z</time>
      </trkpt>
      <trkpt lat="43.42728" lon="6.05536">
        <ele>293.39999389648</ele>
        <time>2017-03-08T13:31:25Z</time>
      </trkpt>
      <trkpt lat="43.42731" lon="6.05545">
        <ele>294.79998779297</ele>
        <time>2017-03-08T13:31:29Z</time>
      </trkpt>
      <trkpt lat="43.42735" lon="6.05562">
        <ele>295.39999389648</ele>
        <time>2017-03-08T13:31:36Z</time>
      </trkpt>
      <trkpt lat="43.42735" lon="6.05565">
        <ele>295.60000610352</ele>
        <time>2017-03-08T13:31:37Z</time>
      </trkpt>
      <trkpt lat="43.42737" lon="6.05569">
        <ele>295.79998779297</ele>
        <time>2017-03-08T13:31:39Z</time>
      </trkpt>
      <trkpt lat="43.42747" lon="6.05582">
        <ele>297</ele>
        <time>2017-03-08T13:31:47Z</time>
      </trkpt>
      <trkpt lat="43.42751" lon="6.05589">
        <ele>298</ele>
        <time>2017-03-08T13:31:51Z</time>
      </trkpt>
      <trkpt lat="43.42752" lon="6.05597">
        <ele>298.60000610352</ele>
        <time>2017-03-08T13:31:55Z</time>
      </trkpt>
      <trkpt lat="43.42752" lon="6.05601">
        <ele>298.79998779297</ele>
        <time>2017-03-08T13:31:57Z</time>
      </trkpt>
      <trkpt lat="43.42751" lon="6.05607">
        <ele>299.20001220703</ele>
        <time>2017-03-08T13:32:00Z</time>
      </trkpt>
      <trkpt lat="43.42749" lon="6.05611">
        <ele>300.20001220703</ele>
        <time>2017-03-08T13:32:04Z</time>
      </trkpt>
      <trkpt lat="43.4275" lon="6.05611">
        <ele>300.39999389648</ele>
        <time>2017-03-08T13:32:07Z</time>
      </trkpt>
      <trkpt lat="43.42749" lon="6.05612">
        <ele>300.20001220703</ele>
        <time>2017-03-08T13:32:11Z</time>
      </trkpt>
      <trkpt lat="43.42749" lon="6.05613">
        <ele>300.20001220703</ele>
        <time>2017-03-08T13:32:15Z</time>
      </trkpt>
      <trkpt lat="43.42749" lon="6.05615">
        <ele>300.39999389648</ele>
        <time>2017-03-08T13:32:17Z</time>
      </trkpt>
      <trkpt lat="43.42749" lon="6.05618">
        <ele>300.79998779297</ele>
        <time>2017-03-08T13:32:21Z</time>
      </trkpt>
      <trkpt lat="43.42749" lon="6.05619">
        <ele>301</ele>
        <time>2017-03-08T13:32:25Z</time>
      </trkpt>
      <trkpt lat="43.42748" lon="6.05619">
        <ele>300.79998779297</ele>
        <time>2017-03-08T13:32:27Z</time>
      </trkpt>
      <trkpt lat="43.42747" lon="6.0562">
        <ele>300.79998779297</ele>
        <time>2017-03-08T13:32:29Z</time>
      </trkpt>
      <trkpt lat="43.42745" lon="6.05622">
        <ele>301</ele>
        <time>2017-03-08T13:32:31Z</time>
      </trkpt>
      <trkpt lat="43.42743" lon="6.05627">
        <ele>301.39999389648</ele>
        <time>2017-03-08T13:32:34Z</time>
      </trkpt>
      <trkpt lat="43.42741" lon="6.05633">
        <ele>301.60000610352</ele>
        <time>2017-03-08T13:32:37Z</time>
      </trkpt>
      <trkpt lat="43.42731" lon="6.05643">
        <ele>302</ele>
        <time>2017-03-08T13:32:46Z</time>
      </trkpt>
      <trkpt lat="43.4273" lon="6.05644">
        <ele>302</ele>
        <time>2017-03-08T13:32:47Z</time>
      </trkpt>
      <trkpt lat="43.42725" lon="6.05652">
        <ele>302.39999389648</ele>
        <time>2017-03-08T13:32:52Z</time>
      </trkpt>
      <trkpt lat="43.42721" lon="6.05661">
        <ele>303.20001220703</ele>
        <time>2017-03-08T13:32:57Z</time>
      </trkpt>
      <trkpt lat="43.42717" lon="6.05673">
        <ele>303.39999389648</ele>
        <time>2017-03-08T13:33:04Z</time>
      </trkpt>
      <trkpt lat="43.42714" lon="6.05677">
        <ele>303.79998779297</ele>
        <time>2017-03-08T13:33:07Z</time>
      </trkpt>
      <trkpt lat="43.42707" lon="6.05682">
        <ele>304.60000610352</ele>
        <time>2017-03-08T13:33:12Z</time>
      </trkpt>
      <trkpt lat="43.42703" lon="6.05691">
        <ele>305.79998779297</ele>
        <time>2017-03-08T13:33:17Z</time>
      </trkpt>
      <trkpt lat="43.42702" lon="6.05698">
        <ele>306.39999389648</ele>
        <time>2017-03-08T13:33:20Z</time>
      </trkpt>
      <trkpt lat="43.42701" lon="6.05702">
        <ele>306.60000610352</ele>
        <time>2017-03-08T13:33:22Z</time>
      </trkpt>
      <trkpt lat="43.42701" lon="6.05703">
        <ele>306.79998779297</ele>
        <time>2017-03-08T13:33:23Z</time>
      </trkpt>
      <trkpt lat="43.42702" lon="6.05703">
        <ele>307.60000610352</ele>
        <time>2017-03-08T13:33:27Z</time>
      </trkpt>
      <trkpt lat="43.42701" lon="6.05702">
        <ele>307.39999389648</ele>
        <time>2017-03-08T13:33:37Z</time>
      </trkpt>
      <trkpt lat="43.42701" lon="6.05702">
        <ele>307.39999389648</ele>
        <time>2017-03-08T13:33:41Z</time>
      </trkpt>
      <trkpt lat="43.42701" lon="6.05702">
        <ele>307.20001220703</ele>
        <time>2017-03-08T13:33:45Z</time>
      </trkpt>
      <trkpt lat="43.42701" lon="6.05703">
        <ele>307.39999389648</ele>
        <time>2017-03-08T13:33:47Z</time>
      </trkpt>
      <trkpt lat="43.42701" lon="6.05704">
        <ele>307.39999389648</ele>
        <time>2017-03-08T13:33:48Z</time>
      </trkpt>
      <trkpt lat="43.42699" lon="6.05709">
        <ele>308</ele>
        <time>2017-03-08T13:33:51Z</time>
      </trkpt>
      <trkpt lat="43.42699" lon="6.05711">
        <ele>308.20001220703</ele>
        <time>2017-03-08T13:33:53Z</time>
      </trkpt>
      <trkpt lat="43.42698" lon="6.05711">
        <ele>308.20001220703</ele>
        <time>2017-03-08T13:33:55Z</time>
      </trkpt>
      <trkpt lat="43.42697" lon="6.05714">
        <ele>308.20001220703</ele>
        <time>2017-03-08T13:33:57Z</time>
      </trkpt>
      <trkpt lat="43.42696" lon="6.05723">
        <ele>308.79998779297</ele>
        <time>2017-03-08T13:34:02Z</time>
      </trkpt>
      <trkpt lat="43.42695" lon="6.05724">
        <ele>309</ele>
        <time>2017-03-08T13:34:03Z</time>
      </trkpt>
      <trkpt lat="43.42694" lon="6.05733">
        <ele>309.60000610352</ele>
        <time>2017-03-08T13:34:07Z</time>
      </trkpt>
      <trkpt lat="43.42696" lon="6.05738">
        <ele>310.20001220703</ele>
        <time>2017-03-08T13:34:10Z</time>
      </trkpt>
      <trkpt lat="43.42697" lon="6.05739">
        <ele>310.60000610352</ele>
        <time>2017-03-08T13:34:11Z</time>
      </trkpt>
      <trkpt lat="43.42706" lon="6.05741">
        <ele>310.79998779297</ele>
        <time>2017-03-08T13:34:17Z</time>
      </trkpt>
      <trkpt lat="43.4272" lon="6.05743">
        <ele>310.79998779297</ele>
        <time>2017-03-08T13:34:24Z</time>
      </trkpt>
      <trkpt lat="43.42727" lon="6.05743">
        <ele>311.20001220703</ele>
        <time>2017-03-08T13:34:27Z</time>
      </trkpt>
      <trkpt lat="43.4273" lon="6.05744">
        <ele>311.20001220703</ele>
        <time>2017-03-08T13:34:29Z</time>
      </trkpt>
      <trkpt lat="43.42738" lon="6.05744">
        <ele>312</ele>
        <time>2017-03-08T13:34:35Z</time>
      </trkpt>
      <trkpt lat="43.42742" lon="6.05744">
        <ele>312.20001220703</ele>
        <time>2017-03-08T13:34:37Z</time>
      </trkpt>
      <trkpt lat="43.42749" lon="6.05744">
        <ele>312.20001220703</ele>
        <time>2017-03-08T13:34:42Z</time>
      </trkpt>
      <trkpt lat="43.42756" lon="6.05735">
        <ele>312.39999389648</ele>
        <time>2017-03-08T13:34:47Z</time>
      </trkpt>
      <trkpt lat="43.42776" lon="6.05735">
        <ele>312.79998779297</ele>
        <time>2017-03-08T13:34:57Z</time>
      </trkpt>
      <trkpt lat="43.42786" lon="6.05738">
        <ele>313.20001220703</ele>
        <time>2017-03-08T13:35:03Z</time>
      </trkpt>
      <trkpt lat="43.42787" lon="6.05739">
        <ele>313.39999389648</ele>
        <time>2017-03-08T13:35:04Z</time>
      </trkpt>
      <trkpt lat="43.42791" lon="6.05743">
        <ele>313.79998779297</ele>
        <time>2017-03-08T13:35:07Z</time>
      </trkpt>
      <trkpt lat="43.42804" lon="6.05742">
        <ele>313.79998779297</ele>
        <time>2017-03-08T13:35:14Z</time>
      </trkpt>
      <trkpt lat="43.42811" lon="6.05738">
        <ele>313.60000610352</ele>
        <time>2017-03-08T13:35:17Z</time>
      </trkpt>
      <trkpt lat="43.42816" lon="6.05737">
        <ele>313.60000610352</ele>
        <time>2017-03-08T13:35:19Z</time>
      </trkpt>
      <trkpt lat="43.42826" lon="6.05736">
        <ele>313.60000610352</ele>
        <time>2017-03-08T13:35:26Z</time>
      </trkpt>
      <trkpt lat="43.42826" lon="6.05736">
        <ele>313.79998779297</ele>
        <time>2017-03-08T13:35:27Z</time>
      </trkpt>
      <trkpt lat="43.42827" lon="6.05735">
        <ele>313.79998779297</ele>
        <time>2017-03-08T13:35:31Z</time>
      </trkpt>
      <trkpt lat="43.42827" lon="6.05735">
        <ele>313.60000610352</ele>
        <time>2017-03-08T13:35:35Z</time>
      </trkpt>
      <trkpt lat="43.42827" lon="6.05736">
        <ele>313.60000610352</ele>
        <time>2017-03-08T13:35:37Z</time>
      </trkpt>
      <trkpt lat="43.42827" lon="6.05735">
        <ele>313.60000610352</ele>
        <time>2017-03-08T13:35:46Z</time>
      </trkpt>
      <trkpt lat="43.42827" lon="6.05736">
        <ele>313.60000610352</ele>
        <time>2017-03-08T13:35:54Z</time>
      </trkpt>
      <trkpt lat="43.42827" lon="6.05735">
        <ele>313.79998779297</ele>
        <time>2017-03-08T13:36:07Z</time>
      </trkpt>
      <trkpt lat="43.42827" lon="6.05735">
        <ele>313.60000610352</ele>
        <time>2017-03-08T13:36:17Z</time>
      </trkpt>
      <trkpt lat="43.42827" lon="6.05736">
        <ele>313.60000610352</ele>
        <time>2017-03-08T13:36:27Z</time>
      </trkpt>
      <trkpt lat="43.42827" lon="6.05736">
        <ele>313.39999389648</ele>
        <time>2017-03-08T13:36:34Z</time>
      </trkpt>
      <trkpt lat="43.42828" lon="6.05734">
        <ele>313.60000610352</ele>
        <time>2017-03-08T13:36:37Z</time>
      </trkpt>
      <trkpt lat="43.42832" lon="6.05731">
        <ele>313.60000610352</ele>
        <time>2017-03-08T13:36:40Z</time>
      </trkpt>
      <trkpt lat="43.42839" lon="6.05714">
        <ele>313.79998779297</ele>
        <time>2017-03-08T13:36:47Z</time>
      </trkpt>
      <trkpt lat="43.42844" lon="6.05679">
        <ele>313.39999389648</ele>
        <time>2017-03-08T13:36:57Z</time>
      </trkpt>
      <trkpt lat="43.42847" lon="6.05641">
        <ele>313</ele>
        <time>2017-03-08T13:37:07Z</time>
      </trkpt>
      <trkpt lat="43.42849" lon="6.05619">
        <ele>313</ele>
        <time>2017-03-08T13:37:12Z</time>
      </trkpt>
      <trkpt lat="43.42853" lon="6.0558">
        <ele>312.20001220703</ele>
        <time>2017-03-08T13:37:20Z</time>
      </trkpt>
      <trkpt lat="43.42859" lon="6.05545">
        <ele>312</ele>
        <time>2017-03-08T13:37:27Z</time>
      </trkpt>
      <trkpt lat="43.42861" lon="6.05542">
        <ele>312.60000610352</ele>
        <time>2017-03-08T13:37:29Z</time>
      </trkpt>
      <trkpt lat="43.4287" lon="6.05545">
        <ele>313.20001220703</ele>
        <time>2017-03-08T13:37:35Z</time>
      </trkpt>
      <trkpt lat="43.42871" lon="6.05546">
        <ele>313</ele>
        <time>2017-03-08T13:37:37Z</time>
      </trkpt>
      <trkpt lat="43.42872" lon="6.05546">
        <ele>313</ele>
        <time>2017-03-08T13:37:47Z</time>
      </trkpt>
      <trkpt lat="43.42873" lon="6.05547">
        <ele>312.60000610352</ele>
        <time>2017-03-08T13:37:57Z</time>
      </trkpt>
      <trkpt lat="43.42876" lon="6.05546">
        <ele>312.60000610352</ele>
        <time>2017-03-08T13:38:07Z</time>
      </trkpt>
      <trkpt lat="43.42877" lon="6.05547">
        <ele>312.39999389648</ele>
        <time>2017-03-08T13:38:17Z</time>
      </trkpt>
      <trkpt lat="43.42881" lon="6.05551">
        <ele>312.39999389648</ele>
        <time>2017-03-08T13:38:25Z</time>
      </trkpt>
      <trkpt lat="43.42884" lon="6.05554">
        <ele>312.39999389648</ele>
        <time>2017-03-08T13:38:27Z</time>
      </trkpt>
      <trkpt lat="43.4289" lon="6.05558">
        <ele>312.20001220703</ele>
        <time>2017-03-08T13:38:30Z</time>
      </trkpt>
      <trkpt lat="43.42912" lon="6.05553">
        <ele>311.60000610352</ele>
        <time>2017-03-08T13:38:37Z</time>
      </trkpt>
      <trkpt lat="43.42916" lon="6.0555">
        <ele>311.20001220703</ele>
        <time>2017-03-08T13:38:38Z</time>
      </trkpt>
      <trkpt lat="43.4292" lon="6.05548">
        <ele>310.79998779297</ele>
        <time>2017-03-08T13:38:39Z</time>
      </trkpt>
      <trkpt lat="43.42923" lon="6.05545">
        <ele>310.39999389648</ele>
        <time>2017-03-08T13:38:40Z</time>
      </trkpt>
      <trkpt lat="43.4293" lon="6.05538">
        <ele>309.79998779297</ele>
        <time>2017-03-08T13:38:42Z</time>
      </trkpt>
      <trkpt lat="43.42945" lon="6.05527">
        <ele>310.20001220703</ele>
        <time>2017-03-08T13:38:47Z</time>
      </trkpt>
      <trkpt lat="43.42953" lon="6.05522">
        <ele>311</ele>
        <time>2017-03-08T13:38:50Z</time>
      </trkpt>
      <trkpt lat="43.42957" lon="6.05521">
        <ele>311.79998779297</ele>
        <time>2017-03-08T13:38:52Z</time>
      </trkpt>
      <trkpt lat="43.42959" lon="6.0552">
        <ele>312.20001220703</ele>
        <time>2017-03-08T13:38:53Z</time>
      </trkpt>
      <trkpt lat="43.42962" lon="6.05519">
        <ele>313</ele>
        <time>2017-03-08T13:38:55Z</time>
      </trkpt>
      <trkpt lat="43.42964" lon="6.05518">
        <ele>313.39999389648</ele>
        <time>2017-03-08T13:38:56Z</time>
      </trkpt>
      <trkpt lat="43.42965" lon="6.05517">
        <ele>313.60000610352</ele>
        <time>2017-03-08T13:38:57Z</time>
      </trkpt>
      <trkpt lat="43.42968" lon="6.05516">
        <ele>314</ele>
        <time>2017-03-08T13:38:59Z</time>
      </trkpt>
      <trkpt lat="43.42971" lon="6.05513">
        <ele>314.60000610352</ele>
        <time>2017-03-08T13:39:01Z</time>
      </trkpt>
      <trkpt lat="43.42977" lon="6.0551">
        <ele>315.60000610352</ele>
        <time>2017-03-08T13:39:05Z</time>
      </trkpt>
      <trkpt lat="43.42981" lon="6.05508">
        <ele>316.20001220703</ele>
        <time>2017-03-08T13:39:07Z</time>
      </trkpt>
      <trkpt lat="43.42986" lon="6.05507">
        <ele>316.79998779297</ele>
        <time>2017-03-08T13:39:10Z</time>
      </trkpt>
      <trkpt lat="43.4299" lon="6.05506">
        <ele>317.79998779297</ele>
        <time>2017-03-08T13:39:13Z</time>
      </trkpt>
      <trkpt lat="43.42991" lon="6.05506">
        <ele>318</ele>
        <time>2017-03-08T13:39:14Z</time>
      </trkpt>
      <trkpt lat="43.42995" lon="6.05507">
        <ele>318.39999389648</ele>
        <time>2017-03-08T13:39:17Z</time>
      </trkpt>
      <trkpt lat="43.42999" lon="6.05507">
        <ele>319</ele>
        <time>2017-03-08T13:39:20Z</time>
      </trkpt>
      <trkpt lat="43.43002" lon="6.05506">
        <ele>319.20001220703</ele>
        <time>2017-03-08T13:39:27Z</time>
      </trkpt>
      <trkpt lat="43.43002" lon="6.05506">
        <ele>319.20001220703</ele>
        <time>2017-03-08T13:39:32Z</time>
      </trkpt>
      <trkpt lat="43.43003" lon="6.05506">
        <ele>319.20001220703</ele>
        <time>2017-03-08T13:39:37Z</time>
      </trkpt>
      <trkpt lat="43.43005" lon="6.05507">
        <ele>319.39999389648</ele>
        <time>2017-03-08T13:39:45Z</time>
      </trkpt>
      <trkpt lat="43.43006" lon="6.05508">
        <ele>319.39999389648</ele>
        <time>2017-03-08T13:39:55Z</time>
      </trkpt>
      <trkpt lat="43.43006" lon="6.05508">
        <ele>319</ele>
        <time>2017-03-08T13:39:57Z</time>
      </trkpt>
      <trkpt lat="43.43006" lon="6.05508">
        <ele>318.79998779297</ele>
        <time>2017-03-08T13:40:01Z</time>
      </trkpt>
      <trkpt lat="43.43006" lon="6.05508">
        <ele>318.60000610352</ele>
        <time>2017-03-08T13:40:03Z</time>
      </trkpt>
      <trkpt lat="43.43006" lon="6.05508">
        <ele>319</ele>
        <time>2017-03-08T13:40:10Z</time>
      </trkpt>
      <trkpt lat="43.43006" lon="6.05508">
        <ele>319</ele>
        <time>2017-03-08T13:40:13Z</time>
      </trkpt>
      <trkpt lat="43.43006" lon="6.05507">
        <ele>319</ele>
        <time>2017-03-08T13:40:17Z</time>
      </trkpt>
      <trkpt lat="43.43002" lon="6.05507">
        <ele>319.39999389648</ele>
        <time>2017-03-08T13:40:27Z</time>
      </trkpt>
      <trkpt lat="43.43002" lon="6.05507">
        <ele>319.60000610352</ele>
        <time>2017-03-08T13:40:30Z</time>
      </trkpt>
      <trkpt lat="43.43001" lon="6.05505">
        <ele>319</ele>
        <time>2017-03-08T13:40:37Z</time>
      </trkpt>
      <trkpt lat="43.43" lon="6.05506">
        <ele>318.39999389648</ele>
        <time>2017-03-08T13:40:46Z</time>
      </trkpt>
      <trkpt lat="43.43" lon="6.05509">
        <ele>318.79998779297</ele>
        <time>2017-03-08T13:40:57Z</time>
      </trkpt>
      <trkpt lat="43.43001" lon="6.05512">
        <ele>318</ele>
        <time>2017-03-08T13:41:04Z</time>
      </trkpt>
      <trkpt lat="43.43001" lon="6.05513">
        <ele>318</ele>
        <time>2017-03-08T13:41:07Z</time>
      </trkpt>
      <trkpt lat="43.43007" lon="6.05514">
        <ele>317.79998779297</ele>
        <time>2017-03-08T13:41:20Z</time>
      </trkpt>
      <trkpt lat="43.43007" lon="6.05514">
        <ele>317.60000610352</ele>
        <time>2017-03-08T13:41:27Z</time>
      </trkpt>
      <trkpt lat="43.43006" lon="6.05514">
        <ele>317.79998779297</ele>
        <time>2017-03-08T13:41:28Z</time>
      </trkpt>
      <trkpt lat="43.43007" lon="6.05513">
        <ele>317.79998779297</ele>
        <time>2017-03-08T13:41:37Z</time>
      </trkpt>
      <trkpt lat="43.43007" lon="6.05512">
        <ele>317.39999389648</ele>
        <time>2017-03-08T13:41:47Z</time>
      </trkpt>
      <trkpt lat="43.43007" lon="6.05511">
        <ele>317.39999389648</ele>
        <time>2017-03-08T13:41:57Z</time>
      </trkpt>
      <trkpt lat="43.43006" lon="6.05511">
        <ele>317.79998779297</ele>
        <time>2017-03-08T13:42:07Z</time>
      </trkpt>
      <trkpt lat="43.43008" lon="6.05512">
        <ele>317.60000610352</ele>
        <time>2017-03-08T13:42:20Z</time>
      </trkpt>
      <trkpt lat="43.43009" lon="6.05513">
        <ele>317.39999389648</ele>
        <time>2017-03-08T13:42:24Z</time>
      </trkpt>
      <trkpt lat="43.4301" lon="6.05517">
        <ele>317.39999389648</ele>
        <time>2017-03-08T13:42:27Z</time>
      </trkpt>
      <trkpt lat="43.43012" lon="6.05522">
        <ele>317.20001220703</ele>
        <time>2017-03-08T13:42:29Z</time>
      </trkpt>
      <trkpt lat="43.43015" lon="6.05534">
        <ele>317</ele>
        <time>2017-03-08T13:42:32Z</time>
      </trkpt>
      <trkpt lat="43.43019" lon="6.05554">
        <ele>315.79998779297</ele>
        <time>2017-03-08T13:42:36Z</time>
      </trkpt>
      <trkpt lat="43.4302" lon="6.05558">
        <ele>315.60000610352</ele>
        <time>2017-03-08T13:42:37Z</time>
      </trkpt>
      <trkpt lat="43.43031" lon="6.05596">
        <ele>315</ele>
        <time>2017-03-08T13:42:47Z</time>
      </trkpt>
      <trkpt lat="43.43031" lon="6.05601">
        <ele>314.79998779297</ele>
        <time>2017-03-08T13:42:48Z</time>
      </trkpt>
      <trkpt lat="43.4303" lon="6.05615">
        <ele>313.60000610352</ele>
        <time>2017-03-08T13:42:51Z</time>
      </trkpt>
      <trkpt lat="43.43029" lon="6.05626">
        <ele>313</ele>
        <time>2017-03-08T13:42:53Z</time>
      </trkpt>
      <trkpt lat="43.43027" lon="6.05639">
        <ele>312.60000610352</ele>
        <time>2017-03-08T13:42:55Z</time>
      </trkpt>
      <trkpt lat="43.43025" lon="6.05653">
        <ele>312</ele>
        <time>2017-03-08T13:42:57Z</time>
      </trkpt>
      <trkpt lat="43.43025" lon="6.0566">
        <ele>311.60000610352</ele>
        <time>2017-03-08T13:42:58Z</time>
      </trkpt>
      <trkpt lat="43.43027" lon="6.05692">
        <ele>310.60000610352</ele>
        <time>2017-03-08T13:43:04Z</time>
      </trkpt>
      <trkpt lat="43.43023" lon="6.05708">
        <ele>309.39999389648</ele>
        <time>2017-03-08T13:43:07Z</time>
      </trkpt>
      <trkpt lat="43.43018" lon="6.05727">
        <ele>307.79998779297</ele>
        <time>2017-03-08T13:43:10Z</time>
      </trkpt>
      <trkpt lat="43.43013" lon="6.05738">
        <ele>306.79998779297</ele>
        <time>2017-03-08T13:43:12Z</time>
      </trkpt>
      <trkpt lat="43.43005" lon="6.05751">
        <ele>306.39999389648</ele>
        <time>2017-03-08T13:43:15Z</time>
      </trkpt>
      <trkpt lat="43.43001" lon="6.05762">
        <ele>306.39999389648</ele>
        <time>2017-03-08T13:43:17Z</time>
      </trkpt>
      <trkpt lat="43.42999" lon="6.05793">
        <ele>305.79998779297</ele>
        <time>2017-03-08T13:43:24Z</time>
      </trkpt>
      <trkpt lat="43.43002" lon="6.05807">
        <ele>305.20001220703</ele>
        <time>2017-03-08T13:43:27Z</time>
      </trkpt>
      <trkpt lat="43.43003" lon="6.05813">
        <ele>304.60000610352</ele>
        <time>2017-03-08T13:43:28Z</time>
      </trkpt>
      <trkpt lat="43.43003" lon="6.05823">
        <ele>302.79998779297</ele>
        <time>2017-03-08T13:43:30Z</time>
      </trkpt>
      <trkpt lat="43.43003" lon="6.05833">
        <ele>301.39999389648</ele>
        <time>2017-03-08T13:43:32Z</time>
      </trkpt>
      <trkpt lat="43.43003" lon="6.05842">
        <ele>300.39999389648</ele>
        <time>2017-03-08T13:43:34Z</time>
      </trkpt>
      <trkpt lat="43.43004" lon="6.0585">
        <ele>299</ele>
        <time>2017-03-08T13:43:36Z</time>
      </trkpt>
      <trkpt lat="43.43006" lon="6.05852">
        <ele>298.20001220703</ele>
        <time>2017-03-08T13:43:37Z</time>
      </trkpt>
      <trkpt lat="43.43008" lon="6.05854">
        <ele>297.60000610352</ele>
        <time>2017-03-08T13:43:38Z</time>
      </trkpt>
      <trkpt lat="43.43012" lon="6.05858">
        <ele>296.60000610352</ele>
        <time>2017-03-08T13:43:40Z</time>
      </trkpt>
      <trkpt lat="43.43019" lon="6.05861">
        <ele>295.39999389648</ele>
        <time>2017-03-08T13:43:43Z</time>
      </trkpt>
      <trkpt lat="43.4303" lon="6.05863">
        <ele>293.79998779297</ele>
        <time>2017-03-08T13:43:46Z</time>
      </trkpt>
      <trkpt lat="43.43034" lon="6.05862">
        <ele>292.79998779297</ele>
        <time>2017-03-08T13:43:47Z</time>
      </trkpt>
      <trkpt lat="43.43037" lon="6.05861">
        <ele>292</ele>
        <time>2017-03-08T13:43:48Z</time>
      </trkpt>
      <trkpt lat="43.43043" lon="6.05859">
        <ele>290.39999389648</ele>
        <time>2017-03-08T13:43:50Z</time>
      </trkpt>
      <trkpt lat="43.43047" lon="6.05857">
        <ele>289</ele>
        <time>2017-03-08T13:43:52Z</time>
      </trkpt>
      <trkpt lat="43.43057" lon="6.05854">
        <ele>287.60000610352</ele>
        <time>2017-03-08T13:43:55Z</time>
      </trkpt>
      <trkpt lat="43.43063" lon="6.05853">
        <ele>286.39999389648</ele>
        <time>2017-03-08T13:43:57Z</time>
      </trkpt>
      <trkpt lat="43.43068" lon="6.05852">
        <ele>284.20001220703</ele>
        <time>2017-03-08T13:43:59Z</time>
      </trkpt>
      <trkpt lat="43.43073" lon="6.05852">
        <ele>283</ele>
        <time>2017-03-08T13:44:01Z</time>
      </trkpt>
      <trkpt lat="43.43081" lon="6.0585">
        <ele>281.60000610352</ele>
        <time>2017-03-08T13:44:04Z</time>
      </trkpt>
      <trkpt lat="43.43089" lon="6.05848">
        <ele>280.39999389648</ele>
        <time>2017-03-08T13:44:07Z</time>
      </trkpt>
      <trkpt lat="43.43091" lon="6.05847">
        <ele>279.39999389648</ele>
        <time>2017-03-08T13:44:17Z</time>
      </trkpt>
      <trkpt lat="43.43091" lon="6.05847">
        <ele>279.39999389648</ele>
        <time>2017-03-08T13:44:18Z</time>
      </trkpt>
      <trkpt lat="43.43097" lon="6.05847">
        <ele>278.60000610352</ele>
        <time>2017-03-08T13:44:24Z</time>
      </trkpt>
      <trkpt lat="43.431" lon="6.05847">
        <ele>278.39999389648</ele>
        <time>2017-03-08T13:44:25Z</time>
      </trkpt>
      <trkpt lat="43.43103" lon="6.05845">
        <ele>277.60000610352</ele>
        <time>2017-03-08T13:44:27Z</time>
      </trkpt>
      <trkpt lat="43.43106" lon="6.05846">
        <ele>277.20001220703</ele>
        <time>2017-03-08T13:44:28Z</time>
      </trkpt>
      <trkpt lat="43.4311" lon="6.05848">
        <ele>276</ele>
        <time>2017-03-08T13:44:30Z</time>
      </trkpt>
      <trkpt lat="43.43115" lon="6.05849">
        <ele>275</ele>
        <time>2017-03-08T13:44:32Z</time>
      </trkpt>
      <trkpt lat="43.43126" lon="6.05848">
        <ele>273.79998779297</ele>
        <time>2017-03-08T13:44:35Z</time>
      </trkpt>
      <trkpt lat="43.43133" lon="6.05847">
        <ele>273.20001220703</ele>
        <time>2017-03-08T13:44:37Z</time>
      </trkpt>
      <trkpt lat="43.4314" lon="6.05846">
        <ele>272</ele>
        <time>2017-03-08T13:44:39Z</time>
      </trkpt>
      <trkpt lat="43.43147" lon="6.05844">
        <ele>270.79998779297</ele>
        <time>2017-03-08T13:44:41Z</time>
      </trkpt>
      <trkpt lat="43.43157" lon="6.0584">
        <ele>269.60000610352</ele>
        <time>2017-03-08T13:44:44Z</time>
      </trkpt>
      <trkpt lat="43.43163" lon="6.05838">
        <ele>268.60000610352</ele>
        <time>2017-03-08T13:44:46Z</time>
      </trkpt>
      <trkpt lat="43.43171" lon="6.05836">
        <ele>267</ele>
        <time>2017-03-08T13:44:48Z</time>
      </trkpt>
      <trkpt lat="43.43175" lon="6.05833">
        <ele>266.39999389648</ele>
        <time>2017-03-08T13:44:49Z</time>
      </trkpt>
      <trkpt lat="43.43177" lon="6.05829">
        <ele>265.60000610352</ele>
        <time>2017-03-08T13:44:50Z</time>
      </trkpt>
      <trkpt lat="43.43179" lon="6.05824">
        <ele>265</ele>
        <time>2017-03-08T13:44:51Z</time>
      </trkpt>
      <trkpt lat="43.43181" lon="6.05819">
        <ele>264.60000610352</ele>
        <time>2017-03-08T13:44:52Z</time>
      </trkpt>
      <trkpt lat="43.4319" lon="6.05799">
        <ele>263.79998779297</ele>
        <time>2017-03-08T13:44:57Z</time>
      </trkpt>
      <trkpt lat="43.43194" lon="6.05792">
        <ele>263.60000610352</ele>
        <time>2017-03-08T13:44:59Z</time>
      </trkpt>
      <trkpt lat="43.43204" lon="6.05775">
        <ele>262.39999389648</ele>
        <time>2017-03-08T13:45:04Z</time>
      </trkpt>
      <trkpt lat="43.43204" lon="6.05775">
        <ele>262.39999389648</ele>
        <time>2017-03-08T13:45:07Z</time>
      </trkpt>
      <trkpt lat="43.43204" lon="6.05775">
        <ele>262.39999389648</ele>
        <time>2017-03-08T13:45:17Z</time>
      </trkpt>
      <trkpt lat="43.43204" lon="6.05775">
        <ele>262.20001220703</ele>
        <time>2017-03-08T13:45:27Z</time>
      </trkpt>
      <trkpt lat="43.43204" lon="6.05775">
        <ele>262.20001220703</ele>
        <time>2017-03-08T13:45:37Z</time>
      </trkpt>
      <trkpt lat="43.43204" lon="6.05775">
        <ele>262</ele>
        <time>2017-03-08T13:45:47Z</time>
      </trkpt>
      <trkpt lat="43.43204" lon="6.05776">
        <ele>261.79998779297</ele>
        <time>2017-03-08T13:45:54Z</time>
      </trkpt>
      <trkpt lat="43.43204" lon="6.05777">
        <ele>261.60000610352</ele>
        <time>2017-03-08T13:46:07Z</time>
      </trkpt>
      <trkpt lat="43.43204" lon="6.05777">
        <ele>261.39999389648</ele>
        <time>2017-03-08T13:46:17Z</time>
      </trkpt>
      <trkpt lat="43.43204" lon="6.05777">
        <ele>261.39999389648</ele>
        <time>2017-03-08T13:46:20Z</time>
      </trkpt>
      <trkpt lat="43.43204" lon="6.05777">
        <ele>261.39999389648</ele>
        <time>2017-03-08T13:46:37Z</time>
      </trkpt>
      <trkpt lat="43.43204" lon="6.05776">
        <ele>261.20001220703</ele>
        <time>2017-03-08T13:46:57Z</time>
      </trkpt>
      <trkpt lat="43.43204" lon="6.05775">
        <ele>261.39999389648</ele>
        <time>2017-03-08T13:47:07Z</time>
      </trkpt>
      <trkpt lat="43.43204" lon="6.05775">
        <ele>261.79998779297</ele>
        <time>2017-03-08T13:47:17Z</time>
      </trkpt>
      <trkpt lat="43.43208" lon="6.05774">
        <ele>261.60000610352</ele>
        <time>2017-03-08T13:47:22Z</time>
      </trkpt>
      <trkpt lat="43.43211" lon="6.05768">
        <ele>261.39999389648</ele>
        <time>2017-03-08T13:47:25Z</time>
      </trkpt>
      <trkpt lat="43.4321" lon="6.05762">
        <ele>261.39999389648</ele>
        <time>2017-03-08T13:47:27Z</time>
      </trkpt>
      <trkpt lat="43.43212" lon="6.05732">
        <ele>261.39999389648</ele>
        <time>2017-03-08T13:47:35Z</time>
      </trkpt>
      <trkpt lat="43.43213" lon="6.05723">
        <ele>261.39999389648</ele>
        <time>2017-03-08T13:47:37Z</time>
      </trkpt>
      <trkpt lat="43.43216" lon="6.05688">
        <ele>261</ele>
        <time>2017-03-08T13:47:43Z</time>
      </trkpt>
      <trkpt lat="43.43218" lon="6.05663">
        <ele>260.60000610352</ele>
        <time>2017-03-08T13:47:47Z</time>
      </trkpt>
      <trkpt lat="43.4322" lon="6.0565">
        <ele>260.39999389648</ele>
        <time>2017-03-08T13:47:49Z</time>
      </trkpt>
      <trkpt lat="43.43224" lon="6.05615">
        <ele>259.60000610352</ele>
        <time>2017-03-08T13:47:54Z</time>
      </trkpt>
      <trkpt lat="43.43226" lon="6.05592">
        <ele>259.60000610352</ele>
        <time>2017-03-08T13:47:57Z</time>
      </trkpt>
      <trkpt lat="43.43227" lon="6.05569">
        <ele>259.60000610352</ele>
        <time>2017-03-08T13:48:00Z</time>
      </trkpt>
      <trkpt lat="43.43233" lon="6.05549">
        <ele>259.20001220703</ele>
        <time>2017-03-08T13:48:03Z</time>
      </trkpt>
      <trkpt lat="43.43241" lon="6.0552">
        <ele>258.79998779297</ele>
        <time>2017-03-08T13:48:07Z</time>
      </trkpt>
      <trkpt lat="43.43253" lon="6.05478">
        <ele>256.60000610352</ele>
        <time>2017-03-08T13:48:12Z</time>
      </trkpt>
      <trkpt lat="43.43259" lon="6.05459">
        <ele>255.39999389648</ele>
        <time>2017-03-08T13:48:14Z</time>
      </trkpt>
      <trkpt lat="43.43267" lon="6.05441">
        <ele>254.39999389648</ele>
        <time>2017-03-08T13:48:16Z</time>
      </trkpt>
      <trkpt lat="43.4327" lon="6.05432">
        <ele>254</ele>
        <time>2017-03-08T13:48:17Z</time>
      </trkpt>
      <trkpt lat="43.43283" lon="6.05401">
        <ele>253.60000610352</ele>
        <time>2017-03-08T13:48:24Z</time>
      </trkpt>
      <trkpt lat="43.43288" lon="6.05391">
        <ele>253.80000305176</ele>
        <time>2017-03-08T13:48:27Z</time>
      </trkpt>
      <trkpt lat="43.43304" lon="6.05354">
        <ele>254.39999389648</ele>
        <time>2017-03-08T13:48:37Z</time>
      </trkpt>
      <trkpt lat="43.43325" lon="6.05308">
        <ele>254.19999694824</ele>
        <time>2017-03-08T13:48:47Z</time>
      </trkpt>
      <trkpt lat="43.43338" lon="6.05274">
        <ele>253.39999389648</ele>
        <time>2017-03-08T13:48:53Z</time>
      </trkpt>
      <trkpt lat="43.43344" lon="6.05258">
        <ele>253</ele>
        <time>2017-03-08T13:48:56Z</time>
      </trkpt>
      <trkpt lat="43.43346" lon="6.05253">
        <ele>253</ele>
        <time>2017-03-08T13:48:57Z</time>
      </trkpt>
      <trkpt lat="43.43351" lon="6.05239">
        <ele>252.80000305176</ele>
        <time>2017-03-08T13:49:00Z</time>
      </trkpt>
      <trkpt lat="43.43361" lon="6.05212">
        <ele>253.19999694824</ele>
        <time>2017-03-08T13:49:07Z</time>
      </trkpt>
      <trkpt lat="43.43374" lon="6.05175">
        <ele>254</ele>
        <time>2017-03-08T13:49:17Z</time>
      </trkpt>
      <trkpt lat="43.43376" lon="6.05169">
        <ele>254.39999389648</ele>
        <time>2017-03-08T13:49:19Z</time>
      </trkpt>
      <trkpt lat="43.43377" lon="6.05163">
        <ele>254.80000305176</ele>
        <time>2017-03-08T13:49:22Z</time>
      </trkpt>
      <trkpt lat="43.43375" lon="6.0516">
        <ele>255</ele>
        <time>2017-03-08T13:49:24Z</time>
      </trkpt>
      <trkpt lat="43.43371" lon="6.05155">
        <ele>255</ele>
        <time>2017-03-08T13:49:27Z</time>
      </trkpt>
      <trkpt lat="43.43362" lon="6.05147">
        <ele>254.80000305176</ele>
        <time>2017-03-08T13:49:32Z</time>
      </trkpt>
      <trkpt lat="43.43353" lon="6.05142">
        <ele>255.19999694824</ele>
        <time>2017-03-08T13:49:37Z</time>
      </trkpt>
      <trkpt lat="43.43349" lon="6.05141">
        <ele>255.39999389648</ele>
        <time>2017-03-08T13:49:39Z</time>
      </trkpt>
      <trkpt lat="43.43334" lon="6.05133">
        <ele>256.20001220703</ele>
        <time>2017-03-08T13:49:47Z</time>
      </trkpt>
      <trkpt lat="43.43321" lon="6.05119">
        <ele>257</ele>
        <time>2017-03-08T13:49:55Z</time>
      </trkpt>
      <trkpt lat="43.43316" lon="6.05113">
        <ele>257.39999389648</ele>
        <time>2017-03-08T13:49:58Z</time>
      </trkpt>
      <trkpt lat="43.43303" lon="6.05099">
        <ele>258.60000610352</ele>
        <time>2017-03-08T13:50:05Z</time>
      </trkpt>
      <trkpt lat="43.43299" lon="6.05096">
        <ele>259</ele>
        <time>2017-03-08T13:50:07Z</time>
      </trkpt>
      <trkpt lat="43.43289" lon="6.05089">
        <ele>260</ele>
        <time>2017-03-08T13:50:12Z</time>
      </trkpt>
      <trkpt lat="43.43283" lon="6.05086">
        <ele>260.79998779297</ele>
        <time>2017-03-08T13:50:15Z</time>
      </trkpt>
      <trkpt lat="43.43279" lon="6.05083">
        <ele>261</ele>
        <time>2017-03-08T13:50:17Z</time>
      </trkpt>
      <trkpt lat="43.43275" lon="6.05081">
        <ele>261.20001220703</ele>
        <time>2017-03-08T13:50:19Z</time>
      </trkpt>
      <trkpt lat="43.43266" lon="6.05082">
        <ele>261.79998779297</ele>
        <time>2017-03-08T13:50:23Z</time>
      </trkpt>
      <trkpt lat="43.43256" lon="6.05082">
        <ele>261.79998779297</ele>
        <time>2017-03-08T13:50:27Z</time>
      </trkpt>
      <trkpt lat="43.43243" lon="6.0508">
        <ele>262.60000610352</ele>
        <time>2017-03-08T13:50:37Z</time>
      </trkpt>
      <trkpt lat="43.43243" lon="6.05081">
        <ele>262.60000610352</ele>
        <time>2017-03-08T13:50:47Z</time>
      </trkpt>
      <trkpt lat="43.43243" lon="6.0508">
        <ele>262.79998779297</ele>
        <time>2017-03-08T13:50:52Z</time>
      </trkpt>
      <trkpt lat="43.43242" lon="6.0508">
        <ele>262.39999389648</ele>
        <time>2017-03-08T13:50:57Z</time>
      </trkpt>
      <trkpt lat="43.43241" lon="6.05079">
        <ele>262.20001220703</ele>
        <time>2017-03-08T13:51:03Z</time>
      </trkpt>
      <trkpt lat="43.4324" lon="6.05079">
        <ele>262.20001220703</ele>
        <time>2017-03-08T13:51:04Z</time>
      </trkpt>
      <trkpt lat="43.43237" lon="6.05081">
        <ele>262.60000610352</ele>
        <time>2017-03-08T13:51:07Z</time>
      </trkpt>
      <trkpt lat="43.43218" lon="6.05082">
        <ele>264</ele>
        <time>2017-03-08T13:51:17Z</time>
      </trkpt>
      <trkpt lat="43.43197" lon="6.05082">
        <ele>264.79998779297</ele>
        <time>2017-03-08T13:51:27Z</time>
      </trkpt>
      <trkpt lat="43.43191" lon="6.05079">
        <ele>265</ele>
        <time>2017-03-08T13:51:30Z</time>
      </trkpt>
      <trkpt lat="43.43184" lon="6.05078">
        <ele>266.20001220703</ele>
        <time>2017-03-08T13:51:33Z</time>
      </trkpt>
      <trkpt lat="43.43182" lon="6.05078">
        <ele>266.60000610352</ele>
        <time>2017-03-08T13:51:34Z</time>
      </trkpt>
      <trkpt lat="43.43176" lon="6.05078">
        <ele>267.39999389648</ele>
        <time>2017-03-08T13:51:37Z</time>
      </trkpt>
      <trkpt lat="43.43169" lon="6.05076">
        <ele>268</ele>
        <time>2017-03-08T13:51:41Z</time>
      </trkpt>
      <trkpt lat="43.43163" lon="6.05072">
        <ele>268</ele>
        <time>2017-03-08T13:51:44Z</time>
      </trkpt>
      <trkpt lat="43.43156" lon="6.05068">
        <ele>268.60000610352</ele>
        <time>2017-03-08T13:51:48Z</time>
      </trkpt>
      <trkpt lat="43.43143" lon="6.0506">
        <ele>269.60000610352</ele>
        <time>2017-03-08T13:51:55Z</time>
      </trkpt>
      <trkpt lat="43.43141" lon="6.05058">
        <ele>269.79998779297</ele>
        <time>2017-03-08T13:51:57Z</time>
      </trkpt>
      <trkpt lat="43.43136" lon="6.05052">
        <ele>270.79998779297</ele>
        <time>2017-03-08T13:52:01Z</time>
      </trkpt>
      <trkpt lat="43.43127" lon="6.0504">
        <ele>271.39999389648</ele>
        <time>2017-03-08T13:52:07Z</time>
      </trkpt>
      <trkpt lat="43.43123" lon="6.05034">
        <ele>271.79998779297</ele>
        <time>2017-03-08T13:52:10Z</time>
      </trkpt>
      <trkpt lat="43.43114" lon="6.05021">
        <ele>273</ele>
        <time>2017-03-08T13:52:17Z</time>
      </trkpt>
      <trkpt lat="43.43106" lon="6.05008">
        <ele>274</ele>
        <time>2017-03-08T13:52:24Z</time>
      </trkpt>
      <trkpt lat="43.43103" lon="6.05002">
        <ele>274.39999389648</ele>
        <time>2017-03-08T13:52:27Z</time>
      </trkpt>
      <trkpt lat="43.43093" lon="6.04985">
        <ele>275</ele>
        <time>2017-03-08T13:52:36Z</time>
      </trkpt>
      <trkpt lat="43.43087" lon="6.04978">
        <ele>276.20001220703</ele>
        <time>2017-03-08T13:52:40Z</time>
      </trkpt>
      <trkpt lat="43.43079" lon="6.04964">
        <ele>277</ele>
        <time>2017-03-08T13:52:47Z</time>
      </trkpt>
      <trkpt lat="43.43077" lon="6.04961">
        <ele>277.20001220703</ele>
        <time>2017-03-08T13:52:49Z</time>
      </trkpt>
      <trkpt lat="43.43067" lon="6.04946">
        <ele>278</ele>
        <time>2017-03-08T13:52:57Z</time>
      </trkpt>
      <trkpt lat="43.43066" lon="6.04944">
        <ele>278.20001220703</ele>
        <time>2017-03-08T13:52:58Z</time>
      </trkpt>
      <trkpt lat="43.4306" lon="6.04932">
        <ele>279.20001220703</ele>
        <time>2017-03-08T13:53:07Z</time>
      </trkpt>
      <trkpt lat="43.4306" lon="6.04932">
        <ele>279.20001220703</ele>
        <time>2017-03-08T13:53:11Z</time>
      </trkpt>
      <trkpt lat="43.4306" lon="6.0493">
        <ele>279.20001220703</ele>
        <time>2017-03-08T13:53:21Z</time>
      </trkpt>
      <trkpt lat="43.43059" lon="6.0493">
        <ele>279</ele>
        <time>2017-03-08T13:53:25Z</time>
      </trkpt>
      <trkpt lat="43.4306" lon="6.04931">
        <ele>279</ele>
        <time>2017-03-08T13:53:27Z</time>
      </trkpt>
      <trkpt lat="43.43061" lon="6.0493">
        <ele>279</ele>
        <time>2017-03-08T13:53:37Z</time>
      </trkpt>
      <trkpt lat="43.4306" lon="6.04931">
        <ele>278.79998779297</ele>
        <time>2017-03-08T13:53:42Z</time>
      </trkpt>
      <trkpt lat="43.4306" lon="6.04931">
        <ele>278.39999389648</ele>
        <time>2017-03-08T13:53:46Z</time>
      </trkpt>
      <trkpt lat="43.43058" lon="6.0493">
        <ele>278.20001220703</ele>
        <time>2017-03-08T13:53:53Z</time>
      </trkpt>
      <trkpt lat="43.43057" lon="6.04929">
        <ele>278.39999389648</ele>
        <time>2017-03-08T13:53:56Z</time>
      </trkpt>
      <trkpt lat="43.43056" lon="6.04928">
        <ele>278.39999389648</ele>
        <time>2017-03-08T13:53:57Z</time>
      </trkpt>
      <trkpt lat="43.43056" lon="6.04926">
        <ele>278.60000610352</ele>
        <time>2017-03-08T13:53:58Z</time>
      </trkpt>
      <trkpt lat="43.43053" lon="6.04918">
        <ele>279.20001220703</ele>
        <time>2017-03-08T13:54:02Z</time>
      </trkpt>
      <trkpt lat="43.43049" lon="6.0491">
        <ele>280</ele>
        <time>2017-03-08T13:54:07Z</time>
      </trkpt>
      <trkpt lat="43.43047" lon="6.04905">
        <ele>280.39999389648</ele>
        <time>2017-03-08T13:54:10Z</time>
      </trkpt>
      <trkpt lat="43.43043" lon="6.04899">
        <ele>281.20001220703</ele>
        <time>2017-03-08T13:54:14Z</time>
      </trkpt>
      <trkpt lat="43.4304" lon="6.04893">
        <ele>281.79998779297</ele>
        <time>2017-03-08T13:54:17Z</time>
      </trkpt>
      <trkpt lat="43.43033" lon="6.04881">
        <ele>282.20001220703</ele>
        <time>2017-03-08T13:54:23Z</time>
      </trkpt>
      <trkpt lat="43.4303" lon="6.04875">
        <ele>282.60000610352</ele>
        <time>2017-03-08T13:54:26Z</time>
      </trkpt>
      <trkpt lat="43.43029" lon="6.04873">
        <ele>283</ele>
        <time>2017-03-08T13:54:27Z</time>
      </trkpt>
      <trkpt lat="43.43026" lon="6.04863">
        <ele>283.60000610352</ele>
        <time>2017-03-08T13:54:31Z</time>
      </trkpt>
      <trkpt lat="43.43021" lon="6.04848">
        <ele>283.79998779297</ele>
        <time>2017-03-08T13:54:37Z</time>
      </trkpt>
      <trkpt lat="43.43021" lon="6.04833">
        <ele>284.79998779297</ele>
        <time>2017-03-08T13:54:43Z</time>
      </trkpt>
      <trkpt lat="43.43023" lon="6.04824">
        <ele>285.60000610352</ele>
        <time>2017-03-08T13:54:47Z</time>
      </trkpt>
      <trkpt lat="43.43023" lon="6.04818">
        <ele>286</ele>
        <time>2017-03-08T13:54:49Z</time>
      </trkpt>
      <trkpt lat="43.43024" lon="6.04797">
        <ele>286.60000610352</ele>
        <time>2017-03-08T13:54:57Z</time>
      </trkpt>
      <trkpt lat="43.43025" lon="6.04787">
        <ele>287</ele>
        <time>2017-03-08T13:55:01Z</time>
      </trkpt>
      <trkpt lat="43.43029" lon="6.04771">
        <ele>287.79998779297</ele>
        <time>2017-03-08T13:55:07Z</time>
      </trkpt>
      <trkpt lat="43.43031" lon="6.04766">
        <ele>288.20001220703</ele>
        <time>2017-03-08T13:55:09Z</time>
      </trkpt>
      <trkpt lat="43.43037" lon="6.04751">
        <ele>289.20001220703</ele>
        <time>2017-03-08T13:55:15Z</time>
      </trkpt>
      <trkpt lat="43.43039" lon="6.04747">
        <ele>289.39999389648</ele>
        <time>2017-03-08T13:55:17Z</time>
      </trkpt>
      <trkpt lat="43.43048" lon="6.0473">
        <ele>290.20001220703</ele>
        <time>2017-03-08T13:55:25Z</time>
      </trkpt>
      <trkpt lat="43.4305" lon="6.04725">
        <ele>290.39999389648</ele>
        <time>2017-03-08T13:55:27Z</time>
      </trkpt>
      <trkpt lat="43.43055" lon="6.04715">
        <ele>291.20001220703</ele>
        <time>2017-03-08T13:55:31Z</time>
      </trkpt>
      <trkpt lat="43.43057" lon="6.04701">
        <ele>292.20001220703</ele>
        <time>2017-03-08T13:55:37Z</time>
      </trkpt>
      <trkpt lat="43.43052" lon="6.04673">
        <ele>292.79998779297</ele>
        <time>2017-03-08T13:55:47Z</time>
      </trkpt>
      <trkpt lat="43.4305" lon="6.04647">
        <ele>293.39999389648</ele>
        <time>2017-03-08T13:55:55Z</time>
      </trkpt>
      <trkpt lat="43.43048" lon="6.0464">
        <ele>293.39999389648</ele>
        <time>2017-03-08T13:55:57Z</time>
      </trkpt>
      <trkpt lat="43.43042" lon="6.04608">
        <ele>294.39999389648</ele>
        <time>2017-03-08T13:56:07Z</time>
      </trkpt>
      <trkpt lat="43.43042" lon="6.04605">
        <ele>294.60000610352</ele>
        <time>2017-03-08T13:56:08Z</time>
      </trkpt>
      <trkpt lat="43.43044" lon="6.04578">
        <ele>295.60000610352</ele>
        <time>2017-03-08T13:56:17Z</time>
      </trkpt>
      <trkpt lat="43.4305" lon="6.04544">
        <ele>296.20001220703</ele>
        <time>2017-03-08T13:56:27Z</time>
      </trkpt>
      <trkpt lat="43.43052" lon="6.04534">
        <ele>296.60000610352</ele>
        <time>2017-03-08T13:56:30Z</time>
      </trkpt>
      <trkpt lat="43.43056" lon="6.04513">
        <ele>297</ele>
        <time>2017-03-08T13:56:37Z</time>
      </trkpt>
      <trkpt lat="43.43059" lon="6.04496">
        <ele>297.60000610352</ele>
        <time>2017-03-08T13:56:42Z</time>
      </trkpt>
      <trkpt lat="43.43062" lon="6.0448">
        <ele>298.20001220703</ele>
        <time>2017-03-08T13:56:47Z</time>
      </trkpt>
      <trkpt lat="43.43066" lon="6.04459">
        <ele>298.79998779297</ele>
        <time>2017-03-08T13:56:54Z</time>
      </trkpt>
      <trkpt lat="43.43069" lon="6.0445">
        <ele>299.20001220703</ele>
        <time>2017-03-08T13:56:57Z</time>
      </trkpt>
      <trkpt lat="43.43077" lon="6.04429">
        <ele>299.79998779297</ele>
        <time>2017-03-08T13:57:05Z</time>
      </trkpt>
      <trkpt lat="43.43077" lon="6.04423">
        <ele>300.20001220703</ele>
        <time>2017-03-08T13:57:07Z</time>
      </trkpt>
      <trkpt lat="43.43085" lon="6.04394">
        <ele>300.39999389648</ele>
        <time>2017-03-08T13:57:17Z</time>
      </trkpt>
      <trkpt lat="43.43089" lon="6.04388">
        <ele>301</ele>
        <time>2017-03-08T13:57:20Z</time>
      </trkpt>
      <trkpt lat="43.43097" lon="6.04372">
        <ele>302</ele>
        <time>2017-03-08T13:57:27Z</time>
      </trkpt>
      <trkpt lat="43.43099" lon="6.04354">
        <ele>303</ele>
        <time>2017-03-08T13:57:33Z</time>
      </trkpt>
      <trkpt lat="43.431" lon="6.04342">
        <ele>303.60000610352</ele>
        <time>2017-03-08T13:57:37Z</time>
      </trkpt>
      <trkpt lat="43.431" lon="6.04332">
        <ele>304.39999389648</ele>
        <time>2017-03-08T13:57:40Z</time>
      </trkpt>
      <trkpt lat="43.431" lon="6.04311">
        <ele>304.39999389648</ele>
        <time>2017-03-08T13:57:47Z</time>
      </trkpt>
      <trkpt lat="43.43097" lon="6.04292">
        <ele>305.39999389648</ele>
        <time>2017-03-08T13:57:54Z</time>
      </trkpt>
      <trkpt lat="43.43095" lon="6.04283">
        <ele>305.60000610352</ele>
        <time>2017-03-08T13:57:57Z</time>
      </trkpt>
      <trkpt lat="43.43091" lon="6.04258">
        <ele>306.39999389648</ele>
        <time>2017-03-08T13:58:05Z</time>
      </trkpt>
      <trkpt lat="43.43089" lon="6.04252">
        <ele>306.60000610352</ele>
        <time>2017-03-08T13:58:07Z</time>
      </trkpt>
      <trkpt lat="43.43077" lon="6.04221">
        <ele>307</ele>
        <time>2017-03-08T13:58:17Z</time>
      </trkpt>
      <trkpt lat="43.43073" lon="6.0421">
        <ele>307.60000610352</ele>
        <time>2017-03-08T13:58:21Z</time>
      </trkpt>
      <trkpt lat="43.43074" lon="6.04191">
        <ele>308</ele>
        <time>2017-03-08T13:58:27Z</time>
      </trkpt>
      <trkpt lat="43.43074" lon="6.04156">
        <ele>308.39999389648</ele>
        <time>2017-03-08T13:58:37Z</time>
      </trkpt>
      <trkpt lat="43.43074" lon="6.04147">
        <ele>308.60000610352</ele>
        <time>2017-03-08T13:58:40Z</time>
      </trkpt>
      <trkpt lat="43.43079" lon="6.04125">
        <ele>309</ele>
        <time>2017-03-08T13:58:47Z</time>
      </trkpt>
      <trkpt lat="43.43081" lon="6.04091">
        <ele>309.39999389648</ele>
        <time>2017-03-08T13:58:57Z</time>
      </trkpt>
      <trkpt lat="43.4308" lon="6.04075">
        <ele>309.60000610352</ele>
        <time>2017-03-08T13:59:02Z</time>
      </trkpt>
      <trkpt lat="43.43079" lon="6.04065">
        <ele>310.39999389648</ele>
        <time>2017-03-08T13:59:07Z</time>
      </trkpt>
      <trkpt lat="43.43079" lon="6.04061">
        <ele>310.60000610352</ele>
        <time>2017-03-08T13:59:10Z</time>
      </trkpt>
      <trkpt lat="43.43079" lon="6.0406">
        <ele>311</ele>
        <time>2017-03-08T13:59:14Z</time>
      </trkpt>
      <trkpt lat="43.43079" lon="6.0406">
        <ele>311.20001220703</ele>
        <time>2017-03-08T13:59:17Z</time>
      </trkpt>
      <trkpt lat="43.43079" lon="6.04061">
        <ele>311.20001220703</ele>
        <time>2017-03-08T13:59:33Z</time>
      </trkpt>
      <trkpt lat="43.43078" lon="6.0406">
        <ele>311.20001220703</ele>
        <time>2017-03-08T13:59:45Z</time>
      </trkpt>
      <trkpt lat="43.43078" lon="6.0406">
        <ele>310.79998779297</ele>
        <time>2017-03-08T13:59:51Z</time>
      </trkpt>
      <trkpt lat="43.43078" lon="6.04061">
        <ele>310.60000610352</ele>
        <time>2017-03-08T13:59:57Z</time>
      </trkpt>
      <trkpt lat="43.43078" lon="6.04061">
        <ele>310.60000610352</ele>
        <time>2017-03-08T14:00:07Z</time>
      </trkpt>
      <trkpt lat="43.43078" lon="6.04061">
        <ele>311</ele>
        <time>2017-03-08T14:00:17Z</time>
      </trkpt>
      <trkpt lat="43.43078" lon="6.04061">
        <ele>311</ele>
        <time>2017-03-08T14:00:37Z</time>
      </trkpt>
      <trkpt lat="43.43078" lon="6.04061">
        <ele>311</ele>
        <time>2017-03-08T14:00:47Z</time>
      </trkpt>
      <trkpt lat="43.43078" lon="6.04061">
        <ele>311</ele>
        <time>2017-03-08T14:00:57Z</time>
      </trkpt>
      <trkpt lat="43.43078" lon="6.04061">
        <ele>311</ele>
        <time>2017-03-08T14:01:17Z</time>
      </trkpt>
      <trkpt lat="43.43079" lon="6.04061">
        <ele>311</ele>
        <time>2017-03-08T14:01:27Z</time>
      </trkpt>
      <trkpt lat="43.43078" lon="6.04061">
        <ele>311</ele>
        <time>2017-03-08T14:01:36Z</time>
      </trkpt>
      <trkpt lat="43.43078" lon="6.04061">
        <ele>311</ele>
        <time>2017-03-08T14:01:37Z</time>
      </trkpt>
      <trkpt lat="43.43078" lon="6.04061">
        <ele>311</ele>
        <time>2017-03-08T14:01:47Z</time>
      </trkpt>
      <trkpt lat="43.43078" lon="6.04062">
        <ele>311</ele>
        <time>2017-03-08T14:01:57Z</time>
      </trkpt>
      <trkpt lat="43.43078" lon="6.04062">
        <ele>311</ele>
        <time>2017-03-08T14:02:07Z</time>
      </trkpt>
      <trkpt lat="43.43079" lon="6.04063">
        <ele>311</ele>
        <time>2017-03-08T14:02:27Z</time>
      </trkpt>
      <trkpt lat="43.43079" lon="6.04064">
        <ele>311</ele>
        <time>2017-03-08T14:02:33Z</time>
      </trkpt>
      <trkpt lat="43.43079" lon="6.04064">
        <ele>311</ele>
        <time>2017-03-08T14:02:37Z</time>
      </trkpt>
      <trkpt lat="43.43086" lon="6.04067">
        <ele>311.60000610352</ele>
        <time>2017-03-08T14:02:47Z</time>
      </trkpt>
      <trkpt lat="43.4309" lon="6.04066">
        <ele>311.39999389648</ele>
        <time>2017-03-08T14:02:49Z</time>
      </trkpt>
      <trkpt lat="43.43095" lon="6.04066">
        <ele>311.20001220703</ele>
        <time>2017-03-08T14:02:52Z</time>
      </trkpt>
      <trkpt lat="43.431" lon="6.04066">
        <ele>311.79998779297</ele>
        <time>2017-03-08T14:02:55Z</time>
      </trkpt>
      <trkpt lat="43.43106" lon="6.04067">
        <ele>313</ele>
        <time>2017-03-08T14:03:00Z</time>
      </trkpt>
      <trkpt lat="43.43108" lon="6.04066">
        <ele>313.60000610352</ele>
        <time>2017-03-08T14:03:04Z</time>
      </trkpt>
      <trkpt lat="43.43107" lon="6.04066">
        <ele>313.79998779297</ele>
        <time>2017-03-08T14:03:05Z</time>
      </trkpt>
      <trkpt lat="43.43108" lon="6.04067">
        <ele>313.79998779297</ele>
        <time>2017-03-08T14:03:06Z</time>
      </trkpt>
      <trkpt lat="43.43108" lon="6.04067">
        <ele>313.79998779297</ele>
        <time>2017-03-08T14:03:07Z</time>
      </trkpt>
      <trkpt lat="43.43107" lon="6.04068">
        <ele>314</ele>
        <time>2017-03-08T14:03:11Z</time>
      </trkpt>
      <trkpt lat="43.43107" lon="6.04067">
        <ele>314</ele>
        <time>2017-03-08T14:03:13Z</time>
      </trkpt>
      <trkpt lat="43.43107" lon="6.04066">
        <ele>313.79998779297</ele>
        <time>2017-03-08T14:03:15Z</time>
      </trkpt>
      <trkpt lat="43.43107" lon="6.04066">
        <ele>313.79998779297</ele>
        <time>2017-03-08T14:03:17Z</time>
      </trkpt>
      <trkpt lat="43.43107" lon="6.04066">
        <ele>314.20001220703</ele>
        <time>2017-03-08T14:03:21Z</time>
      </trkpt>
      <trkpt lat="43.43107" lon="6.04067">
        <ele>314.79998779297</ele>
        <time>2017-03-08T14:03:27Z</time>
      </trkpt>
      <trkpt lat="43.43107" lon="6.0407">
        <ele>313.79998779297</ele>
        <time>2017-03-08T14:03:37Z</time>
      </trkpt>
      <trkpt lat="43.43107" lon="6.04069">
        <ele>313.79998779297</ele>
        <time>2017-03-08T14:03:45Z</time>
      </trkpt>
      <trkpt lat="43.43107" lon="6.04069">
        <ele>313.79998779297</ele>
        <time>2017-03-08T14:03:47Z</time>
      </trkpt>
      <trkpt lat="43.43107" lon="6.04069">
        <ele>313.60000610352</ele>
        <time>2017-03-08T14:03:50Z</time>
      </trkpt>
      <trkpt lat="43.43107" lon="6.04069">
        <ele>313.60000610352</ele>
        <time>2017-03-08T14:03:57Z</time>
      </trkpt>
      <trkpt lat="43.43107" lon="6.04069">
        <ele>313.79998779297</ele>
        <time>2017-03-08T14:04:07Z</time>
      </trkpt>
      <trkpt lat="43.43106" lon="6.0407">
        <ele>313.79998779297</ele>
        <time>2017-03-08T14:04:27Z</time>
      </trkpt>
      <trkpt lat="43.43107" lon="6.0407">
        <ele>313.60000610352</ele>
        <time>2017-03-08T14:04:37Z</time>
      </trkpt>
      <trkpt lat="43.43108" lon="6.0407">
        <ele>313.79998779297</ele>
        <time>2017-03-08T14:04:47Z</time>
      </trkpt>
      <trkpt lat="43.43108" lon="6.04069">
        <ele>313.79998779297</ele>
        <time>2017-03-08T14:04:57Z</time>
      </trkpt>
      <trkpt lat="43.43106" lon="6.04065">
        <ele>313.60000610352</ele>
        <time>2017-03-08T14:05:07Z</time>
      </trkpt>
      <trkpt lat="43.43102" lon="6.04063">
        <ele>313.39999389648</ele>
        <time>2017-03-08T14:05:17Z</time>
      </trkpt>
      <trkpt lat="43.431" lon="6.04063">
        <ele>313.20001220703</ele>
        <time>2017-03-08T14:05:19Z</time>
      </trkpt>
      <trkpt lat="43.43095" lon="6.04061">
        <ele>312.60000610352</ele>
        <time>2017-03-08T14:05:25Z</time>
      </trkpt>
      <trkpt lat="43.43093" lon="6.0406">
        <ele>312.20001220703</ele>
        <time>2017-03-08T14:05:27Z</time>
      </trkpt>
      <trkpt lat="43.43092" lon="6.0406">
        <ele>311.79998779297</ele>
        <time>2017-03-08T14:05:29Z</time>
      </trkpt>
      <trkpt lat="43.4309" lon="6.04058">
        <ele>311.20001220703</ele>
        <time>2017-03-08T14:05:32Z</time>
      </trkpt>
      <trkpt lat="43.43089" lon="6.04056">
        <ele>311.20001220703</ele>
        <time>2017-03-08T14:05:37Z</time>
      </trkpt>
      <trkpt lat="43.43089" lon="6.04059">
        <ele>311.20001220703</ele>
        <time>2017-03-08T14:05:47Z</time>
      </trkpt>
      <trkpt lat="43.43091" lon="6.04062">
        <ele>311</ele>
        <time>2017-03-08T14:05:51Z</time>
      </trkpt>
      <trkpt lat="43.43093" lon="6.04064">
        <ele>311.20001220703</ele>
        <time>2017-03-08T14:05:53Z</time>
      </trkpt>
      <trkpt lat="43.43095" lon="6.04064">
        <ele>311.20001220703</ele>
        <time>2017-03-08T14:05:54Z</time>
      </trkpt>
      <trkpt lat="43.43098" lon="6.04065">
        <ele>311.20001220703</ele>
        <time>2017-03-08T14:05:56Z</time>
      </trkpt>
      <trkpt lat="43.431" lon="6.04065">
        <ele>311.39999389648</ele>
        <time>2017-03-08T14:05:57Z</time>
      </trkpt>
      <trkpt lat="43.43104" lon="6.04066">
        <ele>312.20001220703</ele>
        <time>2017-03-08T14:06:00Z</time>
      </trkpt>
      <trkpt lat="43.4311" lon="6.04068">
        <ele>313.39999389648</ele>
        <time>2017-03-08T14:06:04Z</time>
      </trkpt>
      <trkpt lat="43.43113" lon="6.04069">
        <ele>314</ele>
        <time>2017-03-08T14:06:06Z</time>
      </trkpt>
      <trkpt lat="43.43114" lon="6.04069">
        <ele>314.20001220703</ele>
        <time>2017-03-08T14:06:07Z</time>
      </trkpt>
      <trkpt lat="43.43115" lon="6.0407">
        <ele>314.60000610352</ele>
        <time>2017-03-08T14:06:08Z</time>
      </trkpt>
      <trkpt lat="43.43116" lon="6.04071">
        <ele>314.79998779297</ele>
        <time>2017-03-08T14:06:09Z</time>
      </trkpt>
      <trkpt lat="43.43117" lon="6.04071">
        <ele>315.20001220703</ele>
        <time>2017-03-08T14:06:10Z</time>
      </trkpt>
      <trkpt lat="43.43118" lon="6.04071">
        <ele>315.39999389648</ele>
        <time>2017-03-08T14:06:11Z</time>
      </trkpt>
      <trkpt lat="43.43119" lon="6.04071">
        <ele>315.79998779297</ele>
        <time>2017-03-08T14:06:12Z</time>
      </trkpt>
      <trkpt lat="43.43122" lon="6.0407">
        <ele>316.60000610352</ele>
        <time>2017-03-08T14:06:14Z</time>
      </trkpt>
      <trkpt lat="43.43123" lon="6.04069">
        <ele>316.79998779297</ele>
        <time>2017-03-08T14:06:15Z</time>
      </trkpt>
      <trkpt lat="43.43136" lon="6.04062">
        <ele>319.20001220703</ele>
        <time>2017-03-08T14:06:27Z</time>
      </trkpt>
      <trkpt lat="43.4314" lon="6.04058">
        <ele>319.39999389648</ele>
        <time>2017-03-08T14:06:32Z</time>
      </trkpt>
      <trkpt lat="43.43142" lon="6.04057">
        <ele>319.39999389648</ele>
        <time>2017-03-08T14:06:35Z</time>
      </trkpt>
      <trkpt lat="43.43143" lon="6.04055">
        <ele>319.60000610352</ele>
        <time>2017-03-08T14:06:37Z</time>
      </trkpt>
      <trkpt lat="43.43142" lon="6.04053">
        <ele>319.79998779297</ele>
        <time>2017-03-08T14:06:41Z</time>
      </trkpt>
      <trkpt lat="43.43143" lon="6.04054">
        <ele>319.79998779297</ele>
        <time>2017-03-08T14:06:45Z</time>
      </trkpt>
      <trkpt lat="43.43143" lon="6.04054">
        <ele>320.20001220703</ele>
        <time>2017-03-08T14:06:49Z</time>
      </trkpt>
      <trkpt lat="43.43143" lon="6.04054">
        <ele>320.39999389648</ele>
        <time>2017-03-08T14:06:52Z</time>
      </trkpt>
      <trkpt lat="43.43143" lon="6.04056">
        <ele>319.79998779297</ele>
        <time>2017-03-08T14:07:01Z</time>
      </trkpt>
      <trkpt lat="43.43143" lon="6.04056">
        <ele>319.60000610352</ele>
        <time>2017-03-08T14:07:05Z</time>
      </trkpt>
      <trkpt lat="43.43144" lon="6.04056">
        <ele>319.79998779297</ele>
        <time>2017-03-08T14:07:07Z</time>
      </trkpt>
      <trkpt lat="43.43144" lon="6.04056">
        <ele>319.79998779297</ele>
        <time>2017-03-08T14:07:10Z</time>
      </trkpt>
      <trkpt lat="43.43144" lon="6.04056">
        <ele>319.79998779297</ele>
        <time>2017-03-08T14:07:13Z</time>
      </trkpt>
      <trkpt lat="43.43144" lon="6.04056">
        <ele>320</ele>
        <time>2017-03-08T14:07:20Z</time>
      </trkpt>
      <trkpt lat="43.43144" lon="6.04055">
        <ele>320.60000610352</ele>
        <time>2017-03-08T14:07:27Z</time>
      </trkpt>
      <trkpt lat="43.43143" lon="6.04054">
        <ele>319.60000610352</ele>
        <time>2017-03-08T14:07:37Z</time>
      </trkpt>
      <trkpt lat="43.43145" lon="6.04052">
        <ele>319.79998779297</ele>
        <time>2017-03-08T14:07:47Z</time>
      </trkpt>
      <trkpt lat="43.43145" lon="6.04052">
        <ele>319.79998779297</ele>
        <time>2017-03-08T14:07:57Z</time>
      </trkpt>
      <trkpt lat="43.43145" lon="6.04052">
        <ele>319.60000610352</ele>
        <time>2017-03-08T14:08:07Z</time>
      </trkpt>
      <trkpt lat="43.43145" lon="6.04052">
        <ele>320</ele>
        <time>2017-03-08T14:08:15Z</time>
      </trkpt>
      <trkpt lat="43.43145" lon="6.04052">
        <ele>320</ele>
        <time>2017-03-08T14:08:17Z</time>
      </trkpt>
      <trkpt lat="43.43147" lon="6.04048">
        <ele>319.60000610352</ele>
        <time>2017-03-08T14:08:20Z</time>
      </trkpt>
      <trkpt lat="43.43147" lon="6.04045">
        <ele>319.39999389648</ele>
        <time>2017-03-08T14:08:22Z</time>
      </trkpt>
      <trkpt lat="43.43149" lon="6.04035">
        <ele>319.39999389648</ele>
        <time>2017-03-08T14:08:27Z</time>
      </trkpt>
      <trkpt lat="43.43157" lon="6.04005">
        <ele>319.20001220703</ele>
        <time>2017-03-08T14:08:37Z</time>
      </trkpt>
      <trkpt lat="43.43161" lon="6.03988">
        <ele>318.60000610352</ele>
        <time>2017-03-08T14:08:41Z</time>
      </trkpt>
      <trkpt lat="43.43168" lon="6.03959">
        <ele>318.60000610352</ele>
        <time>2017-03-08T14:08:47Z</time>
      </trkpt>
      <trkpt lat="43.43169" lon="6.03942">
        <ele>318</ele>
        <time>2017-03-08T14:08:50Z</time>
      </trkpt>
      <trkpt lat="43.43171" lon="6.03921">
        <ele>317.79998779297</ele>
        <time>2017-03-08T14:08:55Z</time>
      </trkpt>
      <trkpt lat="43.43174" lon="6.03916">
        <ele>318.60000610352</ele>
        <time>2017-03-08T14:08:57Z</time>
      </trkpt>
      <trkpt lat="43.43174" lon="6.03913">
        <ele>319</ele>
        <time>2017-03-08T14:08:58Z</time>
      </trkpt>
      <trkpt lat="43.43176" lon="6.0391">
        <ele>319.39999389648</ele>
        <time>2017-03-08T14:08:59Z</time>
      </trkpt>
      <trkpt lat="43.43178" lon="6.03906">
        <ele>320.20001220703</ele>
        <time>2017-03-08T14:09:01Z</time>
      </trkpt>
      <trkpt lat="43.43182" lon="6.03899">
        <ele>320.60000610352</ele>
        <time>2017-03-08T14:09:04Z</time>
      </trkpt>
      <trkpt lat="43.43184" lon="6.03894">
        <ele>321</ele>
        <time>2017-03-08T14:09:06Z</time>
      </trkpt>
      <trkpt lat="43.43185" lon="6.03891">
        <ele>321.20001220703</ele>
        <time>2017-03-08T14:09:07Z</time>
      </trkpt>
      <trkpt lat="43.43189" lon="6.03874">
        <ele>322</ele>
        <time>2017-03-08T14:09:13Z</time>
      </trkpt>
      <trkpt lat="43.4319" lon="6.03863">
        <ele>322.79998779297</ele>
        <time>2017-03-08T14:09:17Z</time>
      </trkpt>
      <trkpt lat="43.43196" lon="6.0385">
        <ele>323.20001220703</ele>
        <time>2017-03-08T14:09:23Z</time>
      </trkpt>
      <trkpt lat="43.43203" lon="6.03846">
        <ele>323.79998779297</ele>
        <time>2017-03-08T14:09:26Z</time>
      </trkpt>
      <trkpt lat="43.43224" lon="6.0384">
        <ele>324.39999389648</ele>
        <time>2017-03-08T14:09:37Z</time>
      </trkpt>
      <trkpt lat="43.4324" lon="6.03836">
        <ele>323.79998779297</ele>
        <time>2017-03-08T14:09:44Z</time>
      </trkpt>
      <trkpt lat="43.43249" lon="6.03837">
        <ele>322.79998779297</ele>
        <time>2017-03-08T14:09:47Z</time>
      </trkpt>
      <trkpt lat="43.4326" lon="6.03845">
        <ele>321.39999389648</ele>
        <time>2017-03-08T14:09:50Z</time>
      </trkpt>
      <trkpt lat="43.43272" lon="6.03856">
        <ele>320</ele>
        <time>2017-03-08T14:09:53Z</time>
      </trkpt>
      <trkpt lat="43.43277" lon="6.03866">
        <ele>319</ele>
        <time>2017-03-08T14:09:55Z</time>
      </trkpt>
      <trkpt lat="43.43279" lon="6.03871">
        <ele>318.79998779297</ele>
        <time>2017-03-08T14:09:56Z</time>
      </trkpt>
      <trkpt lat="43.4328" lon="6.03876">
        <ele>318.39999389648</ele>
        <time>2017-03-08T14:09:57Z</time>
      </trkpt>
      <trkpt lat="43.43285" lon="6.03887">
        <ele>317.60000610352</ele>
        <time>2017-03-08T14:10:00Z</time>
      </trkpt>
      <trkpt lat="43.43288" lon="6.03897">
        <ele>316</ele>
        <time>2017-03-08T14:10:03Z</time>
      </trkpt>
      <trkpt lat="43.43286" lon="6.0391">
        <ele>314.79998779297</ele>
        <time>2017-03-08T14:10:06Z</time>
      </trkpt>
      <trkpt lat="43.43285" lon="6.03914">
        <ele>314.39999389648</ele>
        <time>2017-03-08T14:10:07Z</time>
      </trkpt>
      <trkpt lat="43.43284" lon="6.03919">
        <ele>313.60000610352</ele>
        <time>2017-03-08T14:10:09Z</time>
      </trkpt>
      <trkpt lat="43.43283" lon="6.03924">
        <ele>312.39999389648</ele>
        <time>2017-03-08T14:10:11Z</time>
      </trkpt>
      <trkpt lat="43.43288" lon="6.03941">
        <ele>311</ele>
        <time>2017-03-08T14:10:17Z</time>
      </trkpt>
      <trkpt lat="43.43288" lon="6.03947">
        <ele>309.60000610352</ele>
        <time>2017-03-08T14:10:19Z</time>
      </trkpt>
      <trkpt lat="43.43289" lon="6.03956">
        <ele>308.39999389648</ele>
        <time>2017-03-08T14:10:21Z</time>
      </trkpt>
      <trkpt lat="43.43291" lon="6.03965">
        <ele>307</ele>
        <time>2017-03-08T14:10:23Z</time>
      </trkpt>
      <trkpt lat="43.43291" lon="6.03969">
        <ele>306.60000610352</ele>
        <time>2017-03-08T14:10:24Z</time>
      </trkpt>
      <trkpt lat="43.43291" lon="6.03974">
        <ele>306.20001220703</ele>
        <time>2017-03-08T14:10:26Z</time>
      </trkpt>
      <trkpt lat="43.43292" lon="6.03977">
        <ele>306.20001220703</ele>
        <time>2017-03-08T14:10:27Z</time>
      </trkpt>
      <trkpt lat="43.43291" lon="6.03981">
        <ele>306.39999389648</ele>
        <time>2017-03-08T14:10:29Z</time>
      </trkpt>
      <trkpt lat="43.43291" lon="6.03983">
        <ele>306.60000610352</ele>
        <time>2017-03-08T14:10:30Z</time>
      </trkpt>
      <trkpt lat="43.43293" lon="6.03992">
        <ele>306.79998779297</ele>
        <time>2017-03-08T14:10:33Z</time>
      </trkpt>
      <trkpt lat="43.43293" lon="6.04002">
        <ele>306.79998779297</ele>
        <time>2017-03-08T14:10:37Z</time>
      </trkpt>
      <trkpt lat="43.43291" lon="6.04003">
        <ele>307.20001220703</ele>
        <time>2017-03-08T14:10:45Z</time>
      </trkpt>
      <trkpt lat="43.43291" lon="6.04003">
        <ele>307.20001220703</ele>
        <time>2017-03-08T14:10:47Z</time>
      </trkpt>
      <trkpt lat="43.43291" lon="6.04003">
        <ele>307</ele>
        <time>2017-03-08T14:10:57Z</time>
      </trkpt>
      <trkpt lat="43.43291" lon="6.04004">
        <ele>306.20001220703</ele>
        <time>2017-03-08T14:11:37Z</time>
      </trkpt>
      <trkpt lat="43.43291" lon="6.04004">
        <ele>307</ele>
        <time>2017-03-08T14:11:57Z</time>
      </trkpt>
      <trkpt lat="43.43291" lon="6.04004">
        <ele>307</ele>
        <time>2017-03-08T14:12:07Z</time>
      </trkpt>
      <trkpt lat="43.43291" lon="6.04004">
        <ele>307</ele>
        <time>2017-03-08T14:12:17Z</time>
      </trkpt>
      <trkpt lat="43.43291" lon="6.04004">
        <ele>307</ele>
        <time>2017-03-08T14:12:27Z</time>
      </trkpt>
      <trkpt lat="43.43291" lon="6.04007">
        <ele>307</ele>
        <time>2017-03-08T14:12:33Z</time>
      </trkpt>
      <trkpt lat="43.43292" lon="6.04009">
        <ele>306</ele>
        <time>2017-03-08T14:12:34Z</time>
      </trkpt>
      <trkpt lat="43.43293" lon="6.04012">
        <ele>305.20001220703</ele>
        <time>2017-03-08T14:12:35Z</time>
      </trkpt>
      <trkpt lat="43.43293" lon="6.04016">
        <ele>305</ele>
        <time>2017-03-08T14:12:36Z</time>
      </trkpt>
      <trkpt lat="43.43294" lon="6.0402">
        <ele>304.79998779297</ele>
        <time>2017-03-08T14:12:37Z</time>
      </trkpt>
      <trkpt lat="43.43295" lon="6.0403">
        <ele>304.39999389648</ele>
        <time>2017-03-08T14:12:47Z</time>
      </trkpt>
      <trkpt lat="43.43296" lon="6.04032">
        <ele>304.39999389648</ele>
        <time>2017-03-08T14:12:50Z</time>
      </trkpt>
      <trkpt lat="43.43296" lon="6.04036">
        <ele>304.39999389648</ele>
        <time>2017-03-08T14:12:52Z</time>
      </trkpt>
      <trkpt lat="43.43297" lon="6.04041">
        <ele>304</ele>
        <time>2017-03-08T14:12:54Z</time>
      </trkpt>
      <trkpt lat="43.43297" lon="6.04041">
        <ele>303.60000610352</ele>
        <time>2017-03-08T14:12:55Z</time>
      </trkpt>
      <trkpt lat="43.43297" lon="6.04042">
        <ele>303.20001220703</ele>
        <time>2017-03-08T14:12:57Z</time>
      </trkpt>
      <trkpt lat="43.43298" lon="6.04048">
        <ele>302.60000610352</ele>
        <time>2017-03-08T14:13:01Z</time>
      </trkpt>
      <trkpt lat="43.43298" lon="6.04052">
        <ele>302.20001220703</ele>
        <time>2017-03-08T14:13:03Z</time>
      </trkpt>
      <trkpt lat="43.433" lon="6.04058">
        <ele>301.79998779297</ele>
        <time>2017-03-08T14:13:06Z</time>
      </trkpt>
      <trkpt lat="43.43299" lon="6.04068">
        <ele>300.20001220703</ele>
        <time>2017-03-08T14:13:09Z</time>
      </trkpt>
      <trkpt lat="43.433" lon="6.04076">
        <ele>299.20001220703</ele>
        <time>2017-03-08T14:13:11Z</time>
      </trkpt>
      <trkpt lat="43.43303" lon="6.04096">
        <ele>298</ele>
        <time>2017-03-08T14:13:15Z</time>
      </trkpt>
      <trkpt lat="43.43304" lon="6.04107">
        <ele>297.39999389648</ele>
        <time>2017-03-08T14:13:17Z</time>
      </trkpt>
      <trkpt lat="43.43304" lon="6.04119">
        <ele>296.60000610352</ele>
        <time>2017-03-08T14:13:19Z</time>
      </trkpt>
      <trkpt lat="43.43308" lon="6.04155">
        <ele>295.79998779297</ele>
        <time>2017-03-08T14:13:27Z</time>
      </trkpt>
      <trkpt lat="43.43308" lon="6.04172">
        <ele>295.60000610352</ele>
        <time>2017-03-08T14:13:33Z</time>
      </trkpt>
      <trkpt lat="43.43309" lon="6.04184">
        <ele>295</ele>
        <time>2017-03-08T14:13:37Z</time>
      </trkpt>
      <trkpt lat="43.43309" lon="6.04193">
        <ele>294.60000610352</ele>
        <time>2017-03-08T14:13:39Z</time>
      </trkpt>
      <trkpt lat="43.43312" lon="6.04221">
        <ele>293.39999389648</ele>
        <time>2017-03-08T14:13:46Z</time>
      </trkpt>
      <trkpt lat="43.43313" lon="6.04224">
        <ele>292.79998779297</ele>
        <time>2017-03-08T14:13:47Z</time>
      </trkpt>
      <trkpt lat="43.43314" lon="6.04227">
        <ele>292</ele>
        <time>2017-03-08T14:13:48Z</time>
      </trkpt>
      <trkpt lat="43.43315" lon="6.04233">
        <ele>290.60000610352</ele>
        <time>2017-03-08T14:13:50Z</time>
      </trkpt>
      <trkpt lat="43.43315" lon="6.0424">
        <ele>289.60000610352</ele>
        <time>2017-03-08T14:13:53Z</time>
      </trkpt>
      <trkpt lat="43.43315" lon="6.04243">
        <ele>288.60000610352</ele>
        <time>2017-03-08T14:13:56Z</time>
      </trkpt>
      <trkpt lat="43.43315" lon="6.04243">
        <ele>288</ele>
        <time>2017-03-08T14:13:57Z</time>
      </trkpt>
      <trkpt lat="43.43315" lon="6.04244">
        <ele>287.39999389648</ele>
        <time>2017-03-08T14:14:05Z</time>
      </trkpt>
      <trkpt lat="43.43315" lon="6.04244">
        <ele>287.39999389648</ele>
        <time>2017-03-08T14:14:07Z</time>
      </trkpt>
      <trkpt lat="43.43315" lon="6.04244">
        <ele>287</ele>
        <time>2017-03-08T14:14:17Z</time>
      </trkpt>
      <trkpt lat="43.43315" lon="6.04248">
        <ele>287</ele>
        <time>2017-03-08T14:14:22Z</time>
      </trkpt>
      <trkpt lat="43.43315" lon="6.04255">
        <ele>286.79998779297</ele>
        <time>2017-03-08T14:14:24Z</time>
      </trkpt>
      <trkpt lat="43.43316" lon="6.04264">
        <ele>286.39999389648</ele>
        <time>2017-03-08T14:14:26Z</time>
      </trkpt>
      <trkpt lat="43.43316" lon="6.04267">
        <ele>286.20001220703</ele>
        <time>2017-03-08T14:14:27Z</time>
      </trkpt>
      <trkpt lat="43.43317" lon="6.04271">
        <ele>286.60000610352</ele>
        <time>2017-03-08T14:14:30Z</time>
      </trkpt>
      <trkpt lat="43.43317" lon="6.04272">
        <ele>287.20001220703</ele>
        <time>2017-03-08T14:14:32Z</time>
      </trkpt>
      <trkpt lat="43.43317" lon="6.04272">
        <ele>287.39999389648</ele>
        <time>2017-03-08T14:14:34Z</time>
      </trkpt>
      <trkpt lat="43.43318" lon="6.04273">
        <ele>287.60000610352</ele>
        <time>2017-03-08T14:14:37Z</time>
      </trkpt>
      <trkpt lat="43.43318" lon="6.04275">
        <ele>287.60000610352</ele>
        <time>2017-03-08T14:14:45Z</time>
      </trkpt>
      <trkpt lat="43.43319" lon="6.04275">
        <ele>287.60000610352</ele>
        <time>2017-03-08T14:14:47Z</time>
      </trkpt>
      <trkpt lat="43.43318" lon="6.04275">
        <ele>287.79998779297</ele>
        <time>2017-03-08T14:14:52Z</time>
      </trkpt>
      <trkpt lat="43.43318" lon="6.04275">
        <ele>287.60000610352</ele>
        <time>2017-03-08T14:14:57Z</time>
      </trkpt>
      <trkpt lat="43.43318" lon="6.0428">
        <ele>287.79998779297</ele>
        <time>2017-03-08T14:15:00Z</time>
      </trkpt>
      <trkpt lat="43.43321" lon="6.04301">
        <ele>288.20001220703</ele>
        <time>2017-03-08T14:15:07Z</time>
      </trkpt>
      <trkpt lat="43.43323" lon="6.04333">
        <ele>287</ele>
        <time>2017-03-08T14:15:17Z</time>
      </trkpt>
      <trkpt lat="43.43326" lon="6.0435">
        <ele>286.20001220703</ele>
        <time>2017-03-08T14:15:23Z</time>
      </trkpt>
      <trkpt lat="43.43326" lon="6.04359">
        <ele>285.39999389648</ele>
        <time>2017-03-08T14:15:26Z</time>
      </trkpt>
      <trkpt lat="43.43328" lon="6.04366">
        <ele>284.20001220703</ele>
        <time>2017-03-08T14:15:30Z</time>
      </trkpt>
      <trkpt lat="43.43328" lon="6.04371">
        <ele>282.79998779297</ele>
        <time>2017-03-08T14:15:33Z</time>
      </trkpt>
      <trkpt lat="43.43328" lon="6.04381">
        <ele>281.60000610352</ele>
        <time>2017-03-08T14:15:37Z</time>
      </trkpt>
      <trkpt lat="43.43329" lon="6.04413">
        <ele>281.20001220703</ele>
        <time>2017-03-08T14:15:47Z</time>
      </trkpt>
      <trkpt lat="43.43332" lon="6.0443">
        <ele>280.20001220703</ele>
        <time>2017-03-08T14:15:50Z</time>
      </trkpt>
      <trkpt lat="43.43332" lon="6.04444">
        <ele>279</ele>
        <time>2017-03-08T14:15:53Z</time>
      </trkpt>
      <trkpt lat="43.43334" lon="6.04459">
        <ele>279.60000610352</ele>
        <time>2017-03-08T14:15:57Z</time>
      </trkpt>
      <trkpt lat="43.43336" lon="6.04469">
        <ele>279.79998779297</ele>
        <time>2017-03-08T14:16:00Z</time>
      </trkpt>
      <trkpt lat="43.43337" lon="6.04477">
        <ele>280.20001220703</ele>
        <time>2017-03-08T14:16:02Z</time>
      </trkpt>
      <trkpt lat="43.43335" lon="6.04501">
        <ele>280.60000610352</ele>
        <time>2017-03-08T14:16:07Z</time>
      </trkpt>
      <trkpt lat="43.43336" lon="6.04532">
        <ele>279</ele>
        <time>2017-03-08T14:16:13Z</time>
      </trkpt>
      <trkpt lat="43.43338" lon="6.04538">
        <ele>277.79998779297</ele>
        <time>2017-03-08T14:16:17Z</time>
      </trkpt>
      <trkpt lat="43.4334" lon="6.04542">
        <ele>277</ele>
        <time>2017-03-08T14:16:24Z</time>
      </trkpt>
      <trkpt lat="43.43341" lon="6.04546">
        <ele>276.39999389648</ele>
        <time>2017-03-08T14:16:26Z</time>
      </trkpt>
      <trkpt lat="43.43342" lon="6.04549">
        <ele>276.20001220703</ele>
        <time>2017-03-08T14:16:27Z</time>
      </trkpt>
      <trkpt lat="43.43345" lon="6.04566">
        <ele>275.39999389648</ele>
        <time>2017-03-08T14:16:31Z</time>
      </trkpt>
      <trkpt lat="43.43345" lon="6.04582">
        <ele>274.20001220703</ele>
        <time>2017-03-08T14:16:34Z</time>
      </trkpt>
      <trkpt lat="43.43346" lon="6.0459">
        <ele>273.20001220703</ele>
        <time>2017-03-08T14:16:36Z</time>
      </trkpt>
      <trkpt lat="43.43347" lon="6.04593">
        <ele>273</ele>
        <time>2017-03-08T14:16:37Z</time>
      </trkpt>
      <trkpt lat="43.4335" lon="6.04616">
        <ele>270.60000610352</ele>
        <time>2017-03-08T14:16:43Z</time>
      </trkpt>
      <trkpt lat="43.4335" lon="6.04622">
        <ele>269.60000610352</ele>
        <time>2017-03-08T14:16:45Z</time>
      </trkpt>
      <trkpt lat="43.4335" lon="6.04627">
        <ele>269.20001220703</ele>
        <time>2017-03-08T14:16:47Z</time>
      </trkpt>
      <trkpt lat="43.43351" lon="6.04639">
        <ele>268.60000610352</ele>
        <time>2017-03-08T14:16:51Z</time>
      </trkpt>
      <trkpt lat="43.43351" lon="6.04641">
        <ele>268.39999389648</ele>
        <time>2017-03-08T14:16:52Z</time>
      </trkpt>
      <trkpt lat="43.4335" lon="6.04648">
        <ele>266.79998779297</ele>
        <time>2017-03-08T14:16:55Z</time>
      </trkpt>
      <trkpt lat="43.4335" lon="6.04653">
        <ele>266.20001220703</ele>
        <time>2017-03-08T14:16:57Z</time>
      </trkpt>
      <trkpt lat="43.4335" lon="6.04657">
        <ele>265.79998779297</ele>
        <time>2017-03-08T14:16:58Z</time>
      </trkpt>
      <trkpt lat="43.43353" lon="6.04665">
        <ele>264.79998779297</ele>
        <time>2017-03-08T14:17:00Z</time>
      </trkpt>
      <trkpt lat="43.43353" lon="6.04675">
        <ele>263.60000610352</ele>
        <time>2017-03-08T14:17:02Z</time>
      </trkpt>
      <trkpt lat="43.43354" lon="6.04696">
        <ele>262.39999389648</ele>
        <time>2017-03-08T14:17:06Z</time>
      </trkpt>
      <trkpt lat="43.43354" lon="6.047">
        <ele>262.20001220703</ele>
        <time>2017-03-08T14:17:07Z</time>
      </trkpt>
      <trkpt lat="43.43354" lon="6.04703">
        <ele>261.39999389648</ele>
        <time>2017-03-08T14:17:10Z</time>
      </trkpt>
      <trkpt lat="43.43355" lon="6.04702">
        <ele>261</ele>
        <time>2017-03-08T14:17:15Z</time>
      </trkpt>
      <trkpt lat="43.43355" lon="6.04702">
        <ele>261</ele>
        <time>2017-03-08T14:17:17Z</time>
      </trkpt>
      <trkpt lat="43.43355" lon="6.04706">
        <ele>260.60000610352</ele>
        <time>2017-03-08T14:17:27Z</time>
      </trkpt>
      <trkpt lat="43.43356" lon="6.04709">
        <ele>260.60000610352</ele>
        <time>2017-03-08T14:17:37Z</time>
      </trkpt>
      <trkpt lat="43.43356" lon="6.0471">
        <ele>260.60000610352</ele>
        <time>2017-03-08T14:17:47Z</time>
      </trkpt>
      <trkpt lat="43.43357" lon="6.0471">
        <ele>260.60000610352</ele>
        <time>2017-03-08T14:17:57Z</time>
      </trkpt>
      <trkpt lat="43.43356" lon="6.0471">
        <ele>260.39999389648</ele>
        <time>2017-03-08T14:18:07Z</time>
      </trkpt>
      <trkpt lat="43.43356" lon="6.04713">
        <ele>260.79998779297</ele>
        <time>2017-03-08T14:18:17Z</time>
      </trkpt>
      <trkpt lat="43.43355" lon="6.04715">
        <ele>260.60000610352</ele>
        <time>2017-03-08T14:18:19Z</time>
      </trkpt>
      <trkpt lat="43.43357" lon="6.04729">
        <ele>260.60000610352</ele>
        <time>2017-03-08T14:18:27Z</time>
      </trkpt>
      <trkpt lat="43.43357" lon="6.04744">
        <ele>261.39999389648</ele>
        <time>2017-03-08T14:18:34Z</time>
      </trkpt>
      <trkpt lat="43.43358" lon="6.04753">
        <ele>261.79998779297</ele>
        <time>2017-03-08T14:18:37Z</time>
      </trkpt>
      <trkpt lat="43.4336" lon="6.04761">
        <ele>261.79998779297</ele>
        <time>2017-03-08T14:18:40Z</time>
      </trkpt>
      <trkpt lat="43.4336" lon="6.04765">
        <ele>261.79998779297</ele>
        <time>2017-03-08T14:18:43Z</time>
      </trkpt>
      <trkpt lat="43.43361" lon="6.04765">
        <ele>262</ele>
        <time>2017-03-08T14:18:47Z</time>
      </trkpt>
      <trkpt lat="43.43362" lon="6.04772">
        <ele>262.20001220703</ele>
        <time>2017-03-08T14:18:55Z</time>
      </trkpt>
      <trkpt lat="43.43362" lon="6.04777">
        <ele>262.20001220703</ele>
        <time>2017-03-08T14:18:57Z</time>
      </trkpt>
      <trkpt lat="43.43362" lon="6.0478">
        <ele>262</ele>
        <time>2017-03-08T14:18:58Z</time>
      </trkpt>
      <trkpt lat="43.43366" lon="6.04806">
        <ele>260.60000610352</ele>
        <time>2017-03-08T14:19:04Z</time>
      </trkpt>
      <trkpt lat="43.43367" lon="6.04812">
        <ele>259.79998779297</ele>
        <time>2017-03-08T14:19:05Z</time>
      </trkpt>
      <trkpt lat="43.43367" lon="6.04824">
        <ele>258.39999389648</ele>
        <time>2017-03-08T14:19:07Z</time>
      </trkpt>
      <trkpt lat="43.43367" lon="6.04845">
        <ele>257.39999389648</ele>
        <time>2017-03-08T14:19:11Z</time>
      </trkpt>
      <trkpt lat="43.43368" lon="6.0485">
        <ele>257</ele>
        <time>2017-03-08T14:19:12Z</time>
      </trkpt>
      <trkpt lat="43.43366" lon="6.04864">
        <ele>255.80000305176</ele>
        <time>2017-03-08T14:19:15Z</time>
      </trkpt>
      <trkpt lat="43.43365" lon="6.04871">
        <ele>255.80000305176</ele>
        <time>2017-03-08T14:19:17Z</time>
      </trkpt>
      <trkpt lat="43.43366" lon="6.04882">
        <ele>257.20001220703</ele>
        <time>2017-03-08T14:19:21Z</time>
      </trkpt>
      <trkpt lat="43.43371" lon="6.049">
        <ele>257</ele>
        <time>2017-03-08T14:19:27Z</time>
      </trkpt>
      <trkpt lat="43.43374" lon="6.04912">
        <ele>256.60000610352</ele>
        <time>2017-03-08T14:19:30Z</time>
      </trkpt>
      <trkpt lat="43.43375" lon="6.04929">
        <ele>256</ele>
        <time>2017-03-08T14:19:33Z</time>
      </trkpt>
      <trkpt lat="43.43376" lon="6.04935">
        <ele>255.60000610352</ele>
        <time>2017-03-08T14:19:34Z</time>
      </trkpt>
      <trkpt lat="43.43378" lon="6.04949">
        <ele>255.39999389648</ele>
        <time>2017-03-08T14:19:37Z</time>
      </trkpt>
      <trkpt lat="43.4338" lon="6.04964">
        <ele>256.39999389648</ele>
        <time>2017-03-08T14:19:42Z</time>
      </trkpt>
      <trkpt lat="43.43382" lon="6.04975">
        <ele>256.60000610352</ele>
        <time>2017-03-08T14:19:45Z</time>
      </trkpt>
      <trkpt lat="43.43382" lon="6.04982">
        <ele>256.60000610352</ele>
        <time>2017-03-08T14:19:47Z</time>
      </trkpt>
      <trkpt lat="43.43383" lon="6.04989">
        <ele>257.20001220703</ele>
        <time>2017-03-08T14:19:50Z</time>
      </trkpt>
      <trkpt lat="43.43384" lon="6.05001">
        <ele>257.39999389648</ele>
        <time>2017-03-08T14:19:53Z</time>
      </trkpt>
      <trkpt lat="43.43383" lon="6.05013">
        <ele>257.60000610352</ele>
        <time>2017-03-08T14:19:57Z</time>
      </trkpt>
      <trkpt lat="43.43386" lon="6.05029">
        <ele>257.79998779297</ele>
        <time>2017-03-08T14:20:02Z</time>
      </trkpt>
      <trkpt lat="43.43388" lon="6.0505">
        <ele>257.39999389648</ele>
        <time>2017-03-08T14:20:07Z</time>
      </trkpt>
      <trkpt lat="43.43391" lon="6.05079">
        <ele>257.60000610352</ele>
        <time>2017-03-08T14:20:17Z</time>
      </trkpt>
      <trkpt lat="43.43393" lon="6.05095">
        <ele>257.79998779297</ele>
        <time>2017-03-08T14:20:22Z</time>
      </trkpt>
      <trkpt lat="43.43396" lon="6.05106">
        <ele>257.20001220703</ele>
        <time>2017-03-08T14:20:26Z</time>
      </trkpt>
      <trkpt lat="43.43398" lon="6.05107">
        <ele>257</ele>
        <time>2017-03-08T14:20:27Z</time>
      </trkpt>
      <trkpt lat="43.43398" lon="6.05101">
        <ele>257</ele>
        <time>2017-03-08T14:20:30Z</time>
      </trkpt>
      <trkpt lat="43.43396" lon="6.05099">
        <ele>257.20001220703</ele>
        <time>2017-03-08T14:20:34Z</time>
      </trkpt>
      <trkpt lat="43.43396" lon="6.05099">
        <ele>257.39999389648</ele>
        <time>2017-03-08T14:20:37Z</time>
      </trkpt>
      <trkpt lat="43.43395" lon="6.05099">
        <ele>257.20001220703</ele>
        <time>2017-03-08T14:20:42Z</time>
      </trkpt>
      <trkpt lat="43.43395" lon="6.05099">
        <ele>257</ele>
        <time>2017-03-08T14:20:47Z</time>
      </trkpt>
      <trkpt lat="43.43395" lon="6.05098">
        <ele>257.39999389648</ele>
        <time>2017-03-08T14:20:57Z</time>
      </trkpt>
      <trkpt lat="43.43395" lon="6.05097">
        <ele>257.39999389648</ele>
        <time>2017-03-08T14:21:06Z</time>
      </trkpt>
      <trkpt lat="43.43395" lon="6.05097">
        <ele>257.20001220703</ele>
        <time>2017-03-08T14:21:11Z</time>
      </trkpt>
      <trkpt lat="43.43395" lon="6.05096">
        <ele>256.79998779297</ele>
        <time>2017-03-08T14:21:27Z</time>
      </trkpt>
      <trkpt lat="43.43395" lon="6.05096">
        <ele>256.79998779297</ele>
        <time>2017-03-08T14:21:37Z</time>
      </trkpt>
      <trkpt lat="43.43394" lon="6.05097">
        <ele>257.20001220703</ele>
        <time>2017-03-08T14:22:07Z</time>
      </trkpt>
      <trkpt lat="43.43395" lon="6.05098">
        <ele>256.79998779297</ele>
        <time>2017-03-08T14:22:17Z</time>
      </trkpt>
      <trkpt lat="43.43395" lon="6.05098">
        <ele>256.79998779297</ele>
        <time>2017-03-08T14:22:21Z</time>
      </trkpt>
      <trkpt lat="43.43394" lon="6.05098">
        <ele>256.79998779297</ele>
        <time>2017-03-08T14:22:27Z</time>
      </trkpt>
      <trkpt lat="43.43395" lon="6.05099">
        <ele>256.79998779297</ele>
        <time>2017-03-08T14:22:47Z</time>
      </trkpt>
      <trkpt lat="43.43394" lon="6.05099">
        <ele>256.79998779297</ele>
        <time>2017-03-08T14:22:57Z</time>
      </trkpt>
      <trkpt lat="43.43395" lon="6.05098">
        <ele>256.79998779297</ele>
        <time>2017-03-08T14:23:03Z</time>
      </trkpt>
      <trkpt lat="43.43395" lon="6.05096">
        <ele>257</ele>
        <time>2017-03-08T14:23:05Z</time>
      </trkpt>
      <trkpt lat="43.43397" lon="6.05091">
        <ele>256.60000610352</ele>
        <time>2017-03-08T14:23:07Z</time>
      </trkpt>
      <trkpt lat="43.43408" lon="6.05059">
        <ele>256</ele>
        <time>2017-03-08T14:23:16Z</time>
      </trkpt>
      <trkpt lat="43.43409" lon="6.05053">
        <ele>255.80000305176</ele>
        <time>2017-03-08T14:23:17Z</time>
      </trkpt>
      <trkpt lat="43.43413" lon="6.05026">
        <ele>254.39999389648</ele>
        <time>2017-03-08T14:23:21Z</time>
      </trkpt>
      <trkpt lat="43.43415" lon="6.05011">
        <ele>252.80000305176</ele>
        <time>2017-03-08T14:23:23Z</time>
      </trkpt>
      <trkpt lat="43.43422" lon="6.04982">
        <ele>252</ele>
        <time>2017-03-08T14:23:27Z</time>
      </trkpt>
      <trkpt lat="43.43426" lon="6.04958">
        <ele>252</ele>
        <time>2017-03-08T14:23:30Z</time>
      </trkpt>
      <trkpt lat="43.43426" lon="6.04942">
        <ele>251.80000305176</ele>
        <time>2017-03-08T14:23:32Z</time>
      </trkpt>
      <trkpt lat="43.43426" lon="6.04934">
        <ele>251.60000610352</ele>
        <time>2017-03-08T14:23:33Z</time>
      </trkpt>
      <trkpt lat="43.4343" lon="6.04904">
        <ele>251.39999389648</ele>
        <time>2017-03-08T14:23:37Z</time>
      </trkpt>
      <trkpt lat="43.43431" lon="6.04881">
        <ele>252</ele>
        <time>2017-03-08T14:23:40Z</time>
      </trkpt>
      <trkpt lat="43.43431" lon="6.04867">
        <ele>252</ele>
        <time>2017-03-08T14:23:42Z</time>
      </trkpt>
      <trkpt lat="43.43433" lon="6.04845">
        <ele>252</ele>
        <time>2017-03-08T14:23:45Z</time>
      </trkpt>
      <trkpt lat="43.43433" lon="6.04831">
        <ele>251.80000305176</ele>
        <time>2017-03-08T14:23:47Z</time>
      </trkpt>
      <trkpt lat="43.43433" lon="6.04797">
        <ele>251.80000305176</ele>
        <time>2017-03-08T14:23:52Z</time>
      </trkpt>
      <trkpt lat="43.43437" lon="6.04764">
        <ele>253.39999389648</ele>
        <time>2017-03-08T14:23:57Z</time>
      </trkpt>
      <trkpt lat="43.43439" lon="6.04739">
        <ele>254.19999694824</ele>
        <time>2017-03-08T14:24:01Z</time>
      </trkpt>
      <trkpt lat="43.43441" lon="6.04705">
        <ele>255.19999694824</ele>
        <time>2017-03-08T14:24:07Z</time>
      </trkpt>
      <trkpt lat="43.43442" lon="6.04699">
        <ele>255.39999389648</ele>
        <time>2017-03-08T14:24:08Z</time>
      </trkpt>
      <trkpt lat="43.43442" lon="6.04693">
        <ele>255.39999389648</ele>
        <time>2017-03-08T14:24:09Z</time>
      </trkpt>
      <trkpt lat="43.43447" lon="6.04676">
        <ele>255.60000610352</ele>
        <time>2017-03-08T14:24:13Z</time>
      </trkpt>
      <trkpt lat="43.43446" lon="6.0467">
        <ele>255.60000610352</ele>
        <time>2017-03-08T14:24:15Z</time>
      </trkpt>
      <trkpt lat="43.43449" lon="6.04654">
        <ele>256.20001220703</ele>
        <time>2017-03-08T14:24:24Z</time>
      </trkpt>
      <trkpt lat="43.43449" lon="6.04654">
        <ele>256.39999389648</ele>
        <time>2017-03-08T14:24:26Z</time>
      </trkpt>
      <trkpt lat="43.43449" lon="6.04654">
        <ele>256.39999389648</ele>
        <time>2017-03-08T14:24:27Z</time>
      </trkpt>
      <trkpt lat="43.43451" lon="6.04649">
        <ele>256.20001220703</ele>
        <time>2017-03-08T14:24:33Z</time>
      </trkpt>
      <trkpt lat="43.43451" lon="6.04647">
        <ele>256.20001220703</ele>
        <time>2017-03-08T14:24:34Z</time>
      </trkpt>
      <trkpt lat="43.43452" lon="6.04641">
        <ele>256.20001220703</ele>
        <time>2017-03-08T14:24:37Z</time>
      </trkpt>
      <trkpt lat="43.43454" lon="6.04625">
        <ele>256</ele>
        <time>2017-03-08T14:24:45Z</time>
      </trkpt>
      <trkpt lat="43.43455" lon="6.0462">
        <ele>256</ele>
        <time>2017-03-08T14:24:47Z</time>
      </trkpt>
      <trkpt lat="43.43459" lon="6.04602">
        <ele>256.60000610352</ele>
        <time>2017-03-08T14:24:53Z</time>
      </trkpt>
      <trkpt lat="43.43461" lon="6.04589">
        <ele>256.79998779297</ele>
        <time>2017-03-08T14:24:57Z</time>
      </trkpt>
      <trkpt lat="43.43469" lon="6.04551">
        <ele>257</ele>
        <time>2017-03-08T14:25:07Z</time>
      </trkpt>
      <trkpt lat="43.43481" lon="6.04512">
        <ele>257.39999389648</ele>
        <time>2017-03-08T14:25:16Z</time>
      </trkpt>
      <trkpt lat="43.43483" lon="6.04507">
        <ele>257.39999389648</ele>
        <time>2017-03-08T14:25:17Z</time>
      </trkpt>
      <trkpt lat="43.43488" lon="6.04459">
        <ele>257.60000610352</ele>
        <time>2017-03-08T14:25:27Z</time>
      </trkpt>
      <trkpt lat="43.43487" lon="6.04417">
        <ele>258</ele>
        <time>2017-03-08T14:25:37Z</time>
      </trkpt>
      <trkpt lat="43.43485" lon="6.04384">
        <ele>258.39999389648</ele>
        <time>2017-03-08T14:25:45Z</time>
      </trkpt>
      <trkpt lat="43.43486" lon="6.04376">
        <ele>258.79998779297</ele>
        <time>2017-03-08T14:25:47Z</time>
      </trkpt>
      <trkpt lat="43.4349" lon="6.04331">
        <ele>258.60000610352</ele>
        <time>2017-03-08T14:25:57Z</time>
      </trkpt>
      <trkpt lat="43.43494" lon="6.04298">
        <ele>257.79998779297</ele>
        <time>2017-03-08T14:26:03Z</time>
      </trkpt>
      <trkpt lat="43.43498" lon="6.04276">
        <ele>257.39999389648</ele>
        <time>2017-03-08T14:26:07Z</time>
      </trkpt>
      <trkpt lat="43.43501" lon="6.04266">
        <ele>257.39999389648</ele>
        <time>2017-03-08T14:26:09Z</time>
      </trkpt>
      <trkpt lat="43.43506" lon="6.04256">
        <ele>257.20001220703</ele>
        <time>2017-03-08T14:26:11Z</time>
      </trkpt>
      <trkpt lat="43.43511" lon="6.04247">
        <ele>257</ele>
        <time>2017-03-08T14:26:13Z</time>
      </trkpt>
      <trkpt lat="43.43518" lon="6.0424">
        <ele>256.39999389648</ele>
        <time>2017-03-08T14:26:15Z</time>
      </trkpt>
      <trkpt lat="43.43526" lon="6.04234">
        <ele>256.20001220703</ele>
        <time>2017-03-08T14:26:17Z</time>
      </trkpt>
      <trkpt lat="43.43529" lon="6.04229">
        <ele>256.20001220703</ele>
        <time>2017-03-08T14:26:18Z</time>
      </trkpt>
      <trkpt lat="43.43532" lon="6.04224">
        <ele>256</ele>
        <time>2017-03-08T14:26:19Z</time>
      </trkpt>
      <trkpt lat="43.43538" lon="6.04215">
        <ele>256.20001220703</ele>
        <time>2017-03-08T14:26:21Z</time>
      </trkpt>
      <trkpt lat="43.43539" lon="6.04189">
        <ele>257.20001220703</ele>
        <time>2017-03-08T14:26:26Z</time>
      </trkpt>
      <trkpt lat="43.43534" lon="6.04171">
        <ele>258.60000610352</ele>
        <time>2017-03-08T14:26:31Z</time>
      </trkpt>
      <trkpt lat="43.43535" lon="6.04153">
        <ele>259.20001220703</ele>
        <time>2017-03-08T14:26:36Z</time>
      </trkpt>
      <trkpt lat="43.43536" lon="6.0415">
        <ele>259.20001220703</ele>
        <time>2017-03-08T14:26:37Z</time>
      </trkpt>
      <trkpt lat="43.43542" lon="6.04138">
        <ele>259.79998779297</ele>
        <time>2017-03-08T14:26:41Z</time>
      </trkpt>
      <trkpt lat="43.43551" lon="6.04119">
        <ele>259</ele>
        <time>2017-03-08T14:26:47Z</time>
      </trkpt>
      <trkpt lat="43.43559" lon="6.04103">
        <ele>259.60000610352</ele>
        <time>2017-03-08T14:26:52Z</time>
      </trkpt>
      <trkpt lat="43.43563" lon="6.04083">
        <ele>259.39999389648</ele>
        <time>2017-03-08T14:26:57Z</time>
      </trkpt>
      <trkpt lat="43.43577" lon="6.04052">
        <ele>260.39999389648</ele>
        <time>2017-03-08T14:27:07Z</time>
      </trkpt>
      <trkpt lat="43.43582" lon="6.04046">
        <ele>261</ele>
        <time>2017-03-08T14:27:10Z</time>
      </trkpt>
      <trkpt lat="43.43586" lon="6.04038">
        <ele>261.39999389648</ele>
        <time>2017-03-08T14:27:13Z</time>
      </trkpt>
      <trkpt lat="43.43591" lon="6.04031">
        <ele>262</ele>
        <time>2017-03-08T14:27:16Z</time>
      </trkpt>
      <trkpt lat="43.43592" lon="6.04028">
        <ele>262.39999389648</ele>
        <time>2017-03-08T14:27:17Z</time>
      </trkpt>
      <trkpt lat="43.43598" lon="6.04015">
        <ele>263</ele>
        <time>2017-03-08T14:27:21Z</time>
      </trkpt>
      <trkpt lat="43.43602" lon="6.04002">
        <ele>264.20001220703</ele>
        <time>2017-03-08T14:27:27Z</time>
      </trkpt>
      <trkpt lat="43.43603" lon="6.03998">
        <ele>264.39999389648</ele>
        <time>2017-03-08T14:27:30Z</time>
      </trkpt>
      <trkpt lat="43.43603" lon="6.03997">
        <ele>264.39999389648</ele>
        <time>2017-03-08T14:27:34Z</time>
      </trkpt>
      <trkpt lat="43.43603" lon="6.03997">
        <ele>264.39999389648</ele>
        <time>2017-03-08T14:27:37Z</time>
      </trkpt>
      <trkpt lat="43.43603" lon="6.03997">
        <ele>264.20001220703</ele>
        <time>2017-03-08T14:27:55Z</time>
      </trkpt>
      <trkpt lat="43.43603" lon="6.03996">
        <ele>264.39999389648</ele>
        <time>2017-03-08T14:28:07Z</time>
      </trkpt>
      <trkpt lat="43.43603" lon="6.03995">
        <ele>263.60000610352</ele>
        <time>2017-03-08T14:28:17Z</time>
      </trkpt>
      <trkpt lat="43.43604" lon="6.03996">
        <ele>264.20001220703</ele>
        <time>2017-03-08T14:28:31Z</time>
      </trkpt>
      <trkpt lat="43.43604" lon="6.03997">
        <ele>264.20001220703</ele>
        <time>2017-03-08T14:28:37Z</time>
      </trkpt>
      <trkpt lat="43.43605" lon="6.03992">
        <ele>263.39999389648</ele>
        <time>2017-03-08T14:28:41Z</time>
      </trkpt>
      <trkpt lat="43.43607" lon="6.03989">
        <ele>262.60000610352</ele>
        <time>2017-03-08T14:28:42Z</time>
      </trkpt>
      <trkpt lat="43.43608" lon="6.0398">
        <ele>261</ele>
        <time>2017-03-08T14:28:45Z</time>
      </trkpt>
      <trkpt lat="43.43608" lon="6.0397">
        <ele>261.60000610352</ele>
        <time>2017-03-08T14:28:47Z</time>
      </trkpt>
      <trkpt lat="43.43608" lon="6.03957">
        <ele>260.79998779297</ele>
        <time>2017-03-08T14:28:49Z</time>
      </trkpt>
      <trkpt lat="43.43604" lon="6.03942">
        <ele>259.60000610352</ele>
        <time>2017-03-08T14:28:51Z</time>
      </trkpt>
      <trkpt lat="43.43593" lon="6.0391">
        <ele>259.20001220703</ele>
        <time>2017-03-08T14:28:57Z</time>
      </trkpt>
      <trkpt lat="43.4359" lon="6.03893">
        <ele>260.79998779297</ele>
        <time>2017-03-08T14:29:01Z</time>
      </trkpt>
      <trkpt lat="43.43589" lon="6.03884">
        <ele>261.60000610352</ele>
        <time>2017-03-08T14:29:03Z</time>
      </trkpt>
      <trkpt lat="43.43589" lon="6.03871">
        <ele>262</ele>
        <time>2017-03-08T14:29:06Z</time>
      </trkpt>
      <trkpt lat="43.43589" lon="6.03866">
        <ele>262</ele>
        <time>2017-03-08T14:29:07Z</time>
      </trkpt>
      <trkpt lat="43.43587" lon="6.0385">
        <ele>262.39999389648</ele>
        <time>2017-03-08T14:29:11Z</time>
      </trkpt>
      <trkpt lat="43.43586" lon="6.03842">
        <ele>263</ele>
        <time>2017-03-08T14:29:13Z</time>
      </trkpt>
      <trkpt lat="43.43582" lon="6.03827">
        <ele>263.39999389648</ele>
        <time>2017-03-08T14:29:17Z</time>
      </trkpt>
      <trkpt lat="43.43576" lon="6.03813">
        <ele>264</ele>
        <time>2017-03-08T14:29:22Z</time>
      </trkpt>
      <trkpt lat="43.43571" lon="6.03801">
        <ele>264.79998779297</ele>
        <time>2017-03-08T14:29:27Z</time>
      </trkpt>
      <trkpt lat="43.43569" lon="6.03795">
        <ele>265</ele>
        <time>2017-03-08T14:29:32Z</time>
      </trkpt>
      <trkpt lat="43.43568" lon="6.03794">
        <ele>265.39999389648</ele>
        <time>2017-03-08T14:29:37Z</time>
      </trkpt>
      <trkpt lat="43.43569" lon="6.03792">
        <ele>265</ele>
        <time>2017-03-08T14:29:47Z</time>
      </trkpt>
      <trkpt lat="43.4357" lon="6.03791">
        <ele>264.60000610352</ele>
        <time>2017-03-08T14:29:53Z</time>
      </trkpt>
      <trkpt lat="43.43569" lon="6.03785">
        <ele>264.39999389648</ele>
        <time>2017-03-08T14:29:56Z</time>
      </trkpt>
      <trkpt lat="43.43569" lon="6.03783">
        <ele>264.39999389648</ele>
        <time>2017-03-08T14:29:57Z</time>
      </trkpt>
      <trkpt lat="43.4357" lon="6.03777">
        <ele>264.39999389648</ele>
        <time>2017-03-08T14:30:00Z</time>
      </trkpt>
      <trkpt lat="43.43571" lon="6.03775">
        <ele>264.39999389648</ele>
        <time>2017-03-08T14:30:01Z</time>
      </trkpt>
      <trkpt lat="43.43574" lon="6.03771">
        <ele>264.60000610352</ele>
        <time>2017-03-08T14:30:05Z</time>
      </trkpt>
      <trkpt lat="43.43574" lon="6.03767">
        <ele>264.60000610352</ele>
        <time>2017-03-08T14:30:07Z</time>
      </trkpt>
      <trkpt lat="43.43572" lon="6.03761">
        <ele>264.39999389648</ele>
        <time>2017-03-08T14:30:10Z</time>
      </trkpt>
      <trkpt lat="43.43572" lon="6.03752">
        <ele>264</ele>
        <time>2017-03-08T14:30:13Z</time>
      </trkpt>
      <trkpt lat="43.43571" lon="6.03739">
        <ele>263.60000610352</ele>
        <time>2017-03-08T14:30:16Z</time>
      </trkpt>
      <trkpt lat="43.43571" lon="6.03734">
        <ele>263.60000610352</ele>
        <time>2017-03-08T14:30:17Z</time>
      </trkpt>
      <trkpt lat="43.4357" lon="6.03717">
        <ele>263</ele>
        <time>2017-03-08T14:30:21Z</time>
      </trkpt>
      <trkpt lat="43.43571" lon="6.03695">
        <ele>262.60000610352</ele>
        <time>2017-03-08T14:30:27Z</time>
      </trkpt>
      <trkpt lat="43.43574" lon="6.03678">
        <ele>262.79998779297</ele>
        <time>2017-03-08T14:30:32Z</time>
      </trkpt>
      <trkpt lat="43.43571" lon="6.0367">
        <ele>263</ele>
        <time>2017-03-08T14:30:35Z</time>
      </trkpt>
      <trkpt lat="43.4357" lon="6.03666">
        <ele>263.20001220703</ele>
        <time>2017-03-08T14:30:37Z</time>
      </trkpt>
      <trkpt lat="43.43572" lon="6.03663">
        <ele>263.60000610352</ele>
        <time>2017-03-08T14:30:39Z</time>
      </trkpt>
      <trkpt lat="43.4358" lon="6.03639">
        <ele>263</ele>
        <time>2017-03-08T14:30:45Z</time>
      </trkpt>
      <trkpt lat="43.43581" lon="6.03631">
        <ele>262.79998779297</ele>
        <time>2017-03-08T14:30:47Z</time>
      </trkpt>
      <trkpt lat="43.43581" lon="6.0359">
        <ele>262.20001220703</ele>
        <time>2017-03-08T14:30:57Z</time>
      </trkpt>
      <trkpt lat="43.43592" lon="6.03557">
        <ele>263.20001220703</ele>
        <time>2017-03-08T14:31:07Z</time>
      </trkpt>
      <trkpt lat="43.43606" lon="6.03523">
        <ele>262.60000610352</ele>
        <time>2017-03-08T14:31:17Z</time>
      </trkpt>
      <trkpt lat="43.4361" lon="6.03497">
        <ele>263.60000610352</ele>
        <time>2017-03-08T14:31:25Z</time>
      </trkpt>
      <trkpt lat="43.43611" lon="6.03489">
        <ele>263.60000610352</ele>
        <time>2017-03-08T14:31:27Z</time>
      </trkpt>
      <trkpt lat="43.43616" lon="6.03472">
        <ele>264</ele>
        <time>2017-03-08T14:31:32Z</time>
      </trkpt>
      <trkpt lat="43.43621" lon="6.03457">
        <ele>264.39999389648</ele>
        <time>2017-03-08T14:31:37Z</time>
      </trkpt>
      <trkpt lat="43.43624" lon="6.03434">
        <ele>265.20001220703</ele>
        <time>2017-03-08T14:31:44Z</time>
      </trkpt>
      <trkpt lat="43.43624" lon="6.03424">
        <ele>265.39999389648</ele>
        <time>2017-03-08T14:31:47Z</time>
      </trkpt>
      <trkpt lat="43.43623" lon="6.03415">
        <ele>266.20001220703</ele>
        <time>2017-03-08T14:31:50Z</time>
      </trkpt>
      <trkpt lat="43.43623" lon="6.03394">
        <ele>265.60000610352</ele>
        <time>2017-03-08T14:31:55Z</time>
      </trkpt>
      <trkpt lat="43.43627" lon="6.03389">
        <ele>265</ele>
        <time>2017-03-08T14:31:57Z</time>
      </trkpt>
      <trkpt lat="43.43642" lon="6.0336">
        <ele>265.20001220703</ele>
        <time>2017-03-08T14:32:07Z</time>
      </trkpt>
      <trkpt lat="43.43655" lon="6.03336">
        <ele>265.20001220703</ele>
        <time>2017-03-08T14:32:14Z</time>
      </trkpt>
      <trkpt lat="43.4366" lon="6.03327">
        <ele>264.79998779297</ele>
        <time>2017-03-08T14:32:17Z</time>
      </trkpt>
      <trkpt lat="43.43663" lon="6.03324">
        <ele>264.39999389648</ele>
        <time>2017-03-08T14:32:19Z</time>
      </trkpt>
      <trkpt lat="43.43662" lon="6.03321">
        <ele>264</ele>
        <time>2017-03-08T14:32:21Z</time>
      </trkpt>
      <trkpt lat="43.43663" lon="6.03316">
        <ele>264</ele>
        <time>2017-03-08T14:32:27Z</time>
      </trkpt>
      <trkpt lat="43.43664" lon="6.03312">
        <ele>264</ele>
        <time>2017-03-08T14:32:30Z</time>
      </trkpt>
      <trkpt lat="43.43665" lon="6.03309">
        <ele>264.20001220703</ele>
        <time>2017-03-08T14:32:37Z</time>
      </trkpt>
      <trkpt lat="43.43665" lon="6.03308">
        <ele>263.79998779297</ele>
        <time>2017-03-08T14:32:42Z</time>
      </trkpt>
      <trkpt lat="43.43668" lon="6.03305">
        <ele>263.60000610352</ele>
        <time>2017-03-08T14:32:47Z</time>
      </trkpt>
      <trkpt lat="43.43676" lon="6.03294">
        <ele>264.39999389648</ele>
        <time>2017-03-08T14:32:57Z</time>
      </trkpt>
      <trkpt lat="43.43685" lon="6.03272">
        <ele>264.79998779297</ele>
        <time>2017-03-08T14:33:07Z</time>
      </trkpt>
      <trkpt lat="43.43687" lon="6.03261">
        <ele>265</ele>
        <time>2017-03-08T14:33:11Z</time>
      </trkpt>
      <trkpt lat="43.43687" lon="6.03247">
        <ele>265.60000610352</ele>
        <time>2017-03-08T14:33:17Z</time>
      </trkpt>
      <trkpt lat="43.43684" lon="6.03233">
        <ele>265.39999389648</ele>
        <time>2017-03-08T14:33:27Z</time>
      </trkpt>
      <trkpt lat="43.43682" lon="6.0323">
        <ele>266</ele>
        <time>2017-03-08T14:33:33Z</time>
      </trkpt>
      <trkpt lat="43.43682" lon="6.03229">
        <ele>266.20001220703</ele>
        <time>2017-03-08T14:33:37Z</time>
      </trkpt>
      <trkpt lat="43.43682" lon="6.03229">
        <ele>266</ele>
        <time>2017-03-08T14:33:47Z</time>
      </trkpt>
      <trkpt lat="43.43682" lon="6.03228">
        <ele>266</ele>
        <time>2017-03-08T14:33:57Z</time>
      </trkpt>
      <trkpt lat="43.43683" lon="6.03228">
        <ele>265.60000610352</ele>
        <time>2017-03-08T14:34:07Z</time>
      </trkpt>
      <trkpt lat="43.43684" lon="6.03227">
        <ele>265.60000610352</ele>
        <time>2017-03-08T14:34:08Z</time>
      </trkpt>
      <trkpt lat="43.43684" lon="6.03224">
        <ele>265.79998779297</ele>
        <time>2017-03-08T14:34:11Z</time>
      </trkpt>
      <trkpt lat="43.43685" lon="6.03218">
        <ele>265.79998779297</ele>
        <time>2017-03-08T14:34:14Z</time>
      </trkpt>
      <trkpt lat="43.43687" lon="6.0321">
        <ele>265.79998779297</ele>
        <time>2017-03-08T14:34:17Z</time>
      </trkpt>
      <trkpt lat="43.43691" lon="6.03194">
        <ele>266.39999389648</ele>
        <time>2017-03-08T14:34:27Z</time>
      </trkpt>
      <trkpt lat="43.43692" lon="6.03195">
        <ele>267</ele>
        <time>2017-03-08T14:34:37Z</time>
      </trkpt>
      <trkpt lat="43.43692" lon="6.03195">
        <ele>267</ele>
        <time>2017-03-08T14:34:38Z</time>
      </trkpt>
      <trkpt lat="43.43694" lon="6.0319">
        <ele>266.79998779297</ele>
        <time>2017-03-08T14:34:41Z</time>
      </trkpt>
      <trkpt lat="43.4369" lon="6.03177">
        <ele>266.39999389648</ele>
        <time>2017-03-08T14:34:47Z</time>
      </trkpt>
      <trkpt lat="43.43687" lon="6.03171">
        <ele>266.39999389648</ele>
        <time>2017-03-08T14:34:57Z</time>
      </trkpt>
      <trkpt lat="43.43689" lon="6.03175">
        <ele>266.79998779297</ele>
        <time>2017-03-08T14:35:07Z</time>
      </trkpt>
      <trkpt lat="43.43692" lon="6.03175">
        <ele>266.79998779297</ele>
        <time>2017-03-08T14:35:10Z</time>
      </trkpt>
      <trkpt lat="43.43693" lon="6.03165">
        <ele>266.79998779297</ele>
        <time>2017-03-08T14:35:14Z</time>
      </trkpt>
      <trkpt lat="43.43691" lon="6.03156">
        <ele>266.60000610352</ele>
        <time>2017-03-08T14:35:17Z</time>
      </trkpt>
      <trkpt lat="43.43687" lon="6.03145">
        <ele>266.79998779297</ele>
        <time>2017-03-08T14:35:21Z</time>
      </trkpt>
      <trkpt lat="43.43691" lon="6.03131">
        <ele>266.60000610352</ele>
        <time>2017-03-08T14:35:27Z</time>
      </trkpt>
      <trkpt lat="43.43695" lon="6.03094">
        <ele>266.39999389648</ele>
        <time>2017-03-08T14:35:37Z</time>
      </trkpt>
      <trkpt lat="43.43712" lon="6.03061">
        <ele>266</ele>
        <time>2017-03-08T14:35:47Z</time>
      </trkpt>
      <trkpt lat="43.43735" lon="6.03047">
        <ele>264.79998779297</ele>
        <time>2017-03-08T14:35:54Z</time>
      </trkpt>
      <trkpt lat="43.43747" lon="6.03042">
        <ele>264.39999389648</ele>
        <time>2017-03-08T14:35:57Z</time>
      </trkpt>
      <trkpt lat="43.43755" lon="6.03039">
        <ele>264</ele>
        <time>2017-03-08T14:35:59Z</time>
      </trkpt>
      <trkpt lat="43.43758" lon="6.03035">
        <ele>263.60000610352</ele>
        <time>2017-03-08T14:36:00Z</time>
      </trkpt>
      <trkpt lat="43.43768" lon="6.03012">
        <ele>262.60000610352</ele>
        <time>2017-03-08T14:36:07Z</time>
      </trkpt>
      <trkpt lat="43.43769" lon="6.0301">
        <ele>262.60000610352</ele>
        <time>2017-03-08T14:36:08Z</time>
      </trkpt>
      <trkpt lat="43.43782" lon="6.02986">
        <ele>262.60000610352</ele>
        <time>2017-03-08T14:36:17Z</time>
      </trkpt>
      <trkpt lat="43.43784" lon="6.02962">
        <ele>263.39999389648</ele>
        <time>2017-03-08T14:36:27Z</time>
      </trkpt>
      <trkpt lat="43.43787" lon="6.02951">
        <ele>263.60000610352</ele>
        <time>2017-03-08T14:36:32Z</time>
      </trkpt>
      <trkpt lat="43.43792" lon="6.02937">
        <ele>263.79998779297</ele>
        <time>2017-03-08T14:36:37Z</time>
      </trkpt>
      <trkpt lat="43.43793" lon="6.0292">
        <ele>264.39999389648</ele>
        <time>2017-03-08T14:36:42Z</time>
      </trkpt>
      <trkpt lat="43.43792" lon="6.02914">
        <ele>264.79998779297</ele>
        <time>2017-03-08T14:36:44Z</time>
      </trkpt>
      <trkpt lat="43.4379" lon="6.02907">
        <ele>265</ele>
        <time>2017-03-08T14:36:47Z</time>
      </trkpt>
      <trkpt lat="43.43791" lon="6.029">
        <ele>265.39999389648</ele>
        <time>2017-03-08T14:36:50Z</time>
      </trkpt>
      <trkpt lat="43.43792" lon="6.02885">
        <ele>265.79998779297</ele>
        <time>2017-03-08T14:36:55Z</time>
      </trkpt>
      <trkpt lat="43.43792" lon="6.02879">
        <ele>265.79998779297</ele>
        <time>2017-03-08T14:36:57Z</time>
      </trkpt>
      <trkpt lat="43.43802" lon="6.02849">
        <ele>265.39999389648</ele>
        <time>2017-03-08T14:37:07Z</time>
      </trkpt>
      <trkpt lat="43.43807" lon="6.0283">
        <ele>265.39999389648</ele>
        <time>2017-03-08T14:37:13Z</time>
      </trkpt>
      <trkpt lat="43.43807" lon="6.02824">
        <ele>265.79998779297</ele>
        <time>2017-03-08T14:37:17Z</time>
      </trkpt>
      <trkpt lat="43.43808" lon="6.02823">
        <ele>266</ele>
        <time>2017-03-08T14:37:27Z</time>
      </trkpt>
      <trkpt lat="43.43807" lon="6.0282">
        <ele>266</ele>
        <time>2017-03-08T14:37:30Z</time>
      </trkpt>
      <trkpt lat="43.43806" lon="6.02817">
        <ele>266.20001220703</ele>
        <time>2017-03-08T14:37:33Z</time>
      </trkpt>
      <trkpt lat="43.43806" lon="6.02816">
        <ele>266.39999389648</ele>
        <time>2017-03-08T14:37:34Z</time>
      </trkpt>
      <trkpt lat="43.43806" lon="6.02816">
        <ele>266.60000610352</ele>
        <time>2017-03-08T14:37:35Z</time>
      </trkpt>
      <trkpt lat="43.43806" lon="6.02815">
        <ele>266.60000610352</ele>
        <time>2017-03-08T14:37:37Z</time>
      </trkpt>
      <trkpt lat="43.43806" lon="6.02815">
        <ele>266.79998779297</ele>
        <time>2017-03-08T14:37:39Z</time>
      </trkpt>
      <trkpt lat="43.43807" lon="6.02814">
        <ele>266.79998779297</ele>
        <time>2017-03-08T14:37:40Z</time>
      </trkpt>
      <trkpt lat="43.43806" lon="6.02812">
        <ele>266.79998779297</ele>
        <time>2017-03-08T14:37:42Z</time>
      </trkpt>
      <trkpt lat="43.43804" lon="6.02807">
        <ele>267</ele>
        <time>2017-03-08T14:37:45Z</time>
      </trkpt>
      <trkpt lat="43.43801" lon="6.02802">
        <ele>267</ele>
        <time>2017-03-08T14:37:47Z</time>
      </trkpt>
      <trkpt lat="43.43795" lon="6.02797">
        <ele>267.60000610352</ele>
        <time>2017-03-08T14:37:51Z</time>
      </trkpt>
      <trkpt lat="43.43793" lon="6.02792">
        <ele>267.79998779297</ele>
        <time>2017-03-08T14:37:53Z</time>
      </trkpt>
      <trkpt lat="43.43789" lon="6.02786">
        <ele>267.79998779297</ele>
        <time>2017-03-08T14:37:56Z</time>
      </trkpt>
      <trkpt lat="43.43788" lon="6.02784">
        <ele>267.79998779297</ele>
        <time>2017-03-08T14:37:57Z</time>
      </trkpt>
      <trkpt lat="43.43783" lon="6.0277">
        <ele>268.39999389648</ele>
        <time>2017-03-08T14:38:03Z</time>
      </trkpt>
      <trkpt lat="43.43784" lon="6.02758">
        <ele>268.60000610352</ele>
        <time>2017-03-08T14:38:07Z</time>
      </trkpt>
      <trkpt lat="43.43784" lon="6.02734">
        <ele>268.79998779297</ele>
        <time>2017-03-08T14:38:17Z</time>
      </trkpt>
      <trkpt lat="43.43781" lon="6.02723">
        <ele>268.79998779297</ele>
        <time>2017-03-08T14:38:22Z</time>
      </trkpt>
      <trkpt lat="43.43774" lon="6.02721">
        <ele>269.20001220703</ele>
        <time>2017-03-08T14:38:27Z</time>
      </trkpt>
      <trkpt lat="43.43769" lon="6.02718">
        <ele>269</ele>
        <time>2017-03-08T14:38:31Z</time>
      </trkpt>
      <trkpt lat="43.43764" lon="6.02708">
        <ele>270</ele>
        <time>2017-03-08T14:38:37Z</time>
      </trkpt>
      <trkpt lat="43.43765" lon="6.02707">
        <ele>270</ele>
        <time>2017-03-08T14:38:38Z</time>
      </trkpt>
      <trkpt lat="43.43779" lon="6.02698">
        <ele>269.79998779297</ele>
        <time>2017-03-08T14:38:47Z</time>
      </trkpt>
      <trkpt lat="43.43787" lon="6.02687">
        <ele>269.60000610352</ele>
        <time>2017-03-08T14:38:53Z</time>
      </trkpt>
      <trkpt lat="43.43785" lon="6.02678">
        <ele>270</ele>
        <time>2017-03-08T14:38:57Z</time>
      </trkpt>
      <trkpt lat="43.43785" lon="6.02673">
        <ele>270.39999389648</ele>
        <time>2017-03-08T14:38:59Z</time>
      </trkpt>
      <trkpt lat="43.43784" lon="6.02654">
        <ele>270.79998779297</ele>
        <time>2017-03-08T14:39:07Z</time>
      </trkpt>
      <trkpt lat="43.43784" lon="6.02645">
        <ele>271</ele>
        <time>2017-03-08T14:39:10Z</time>
      </trkpt>
      <trkpt lat="43.43788" lon="6.02623">
        <ele>270.79998779297</ele>
        <time>2017-03-08T14:39:17Z</time>
      </trkpt>
      <trkpt lat="43.43793" lon="6.02592">
        <ele>270.79998779297</ele>
        <time>2017-03-08T14:39:27Z</time>
      </trkpt>
      <trkpt lat="43.43788" lon="6.02565">
        <ele>271</ele>
        <time>2017-03-08T14:39:37Z</time>
      </trkpt>
      <trkpt lat="43.43787" lon="6.02559">
        <ele>271.20001220703</ele>
        <time>2017-03-08T14:39:39Z</time>
      </trkpt>
      <trkpt lat="43.43789" lon="6.02535">
        <ele>271.39999389648</ele>
        <time>2017-03-08T14:39:47Z</time>
      </trkpt>
      <trkpt lat="43.43789" lon="6.02533">
        <ele>271.39999389648</ele>
        <time>2017-03-08T14:39:48Z</time>
      </trkpt>
      <trkpt lat="43.43795" lon="6.02514">
        <ele>270.79998779297</ele>
        <time>2017-03-08T14:39:54Z</time>
      </trkpt>
      <trkpt lat="43.43795" lon="6.02508">
        <ele>270.60000610352</ele>
        <time>2017-03-08T14:39:57Z</time>
      </trkpt>
      <trkpt lat="43.43795" lon="6.02491">
        <ele>269.79998779297</ele>
        <time>2017-03-08T14:40:03Z</time>
      </trkpt>
      <trkpt lat="43.43795" lon="6.02485">
        <ele>269.60000610352</ele>
        <time>2017-03-08T14:40:06Z</time>
      </trkpt>
      <trkpt lat="43.43794" lon="6.02483">
        <ele>269.60000610352</ele>
        <time>2017-03-08T14:40:07Z</time>
      </trkpt>
      <trkpt lat="43.43792" lon="6.02479">
        <ele>270</ele>
        <time>2017-03-08T14:40:10Z</time>
      </trkpt>
      <trkpt lat="43.43792" lon="6.02477">
        <ele>270.60000610352</ele>
        <time>2017-03-08T14:40:12Z</time>
      </trkpt>
      <trkpt lat="43.43791" lon="6.02476">
        <ele>270.79998779297</ele>
        <time>2017-03-08T14:40:14Z</time>
      </trkpt>
      <trkpt lat="43.4379" lon="6.02476">
        <ele>271.20001220703</ele>
        <time>2017-03-08T14:40:17Z</time>
      </trkpt>
      <trkpt lat="43.4379" lon="6.02476">
        <ele>271.20001220703</ele>
        <time>2017-03-08T14:40:22Z</time>
      </trkpt>
      <trkpt lat="43.4379" lon="6.02476">
        <ele>271.39999389648</ele>
        <time>2017-03-08T14:40:27Z</time>
      </trkpt>
      <trkpt lat="43.43794" lon="6.0248">
        <ele>270.60000610352</ele>
        <time>2017-03-08T14:40:47Z</time>
      </trkpt>
      <trkpt lat="43.43794" lon="6.02485">
        <ele>270</ele>
        <time>2017-03-08T14:40:53Z</time>
      </trkpt>
      <trkpt lat="43.43795" lon="6.02489">
        <ele>270</ele>
        <time>2017-03-08T14:40:57Z</time>
      </trkpt>
      <trkpt lat="43.43796" lon="6.02492">
        <ele>269.60000610352</ele>
        <time>2017-03-08T14:41:07Z</time>
      </trkpt>
      <trkpt lat="43.43797" lon="6.02492">
        <ele>269.79998779297</ele>
        <time>2017-03-08T14:41:17Z</time>
      </trkpt>
      <trkpt lat="43.43798" lon="6.0249">
        <ele>269.60000610352</ele>
        <time>2017-03-08T14:41:23Z</time>
      </trkpt>
      <trkpt lat="43.43797" lon="6.02486">
        <ele>269.60000610352</ele>
        <time>2017-03-08T14:41:25Z</time>
      </trkpt>
      <trkpt lat="43.43797" lon="6.02482">
        <ele>269.60000610352</ele>
        <time>2017-03-08T14:41:27Z</time>
      </trkpt>
      <trkpt lat="43.43795" lon="6.02478">
        <ele>269.60000610352</ele>
        <time>2017-03-08T14:41:29Z</time>
      </trkpt>
      <trkpt lat="43.43794" lon="6.02476">
        <ele>270</ele>
        <time>2017-03-08T14:41:32Z</time>
      </trkpt>
      <trkpt lat="43.43795" lon="6.02477">
        <ele>270.20001220703</ele>
        <time>2017-03-08T14:41:37Z</time>
      </trkpt>
      <trkpt lat="43.43797" lon="6.02479">
        <ele>270</ele>
        <time>2017-03-08T14:41:43Z</time>
      </trkpt>
      <trkpt lat="43.43798" lon="6.02482">
        <ele>269.60000610352</ele>
        <time>2017-03-08T14:41:47Z</time>
      </trkpt>
      <trkpt lat="43.43797" lon="6.02479">
        <ele>269.60000610352</ele>
        <time>2017-03-08T14:41:56Z</time>
      </trkpt>
      <trkpt lat="43.43796" lon="6.02477">
        <ele>269.79998779297</ele>
        <time>2017-03-08T14:41:57Z</time>
      </trkpt>
      <trkpt lat="43.43795" lon="6.02474">
        <ele>270</ele>
        <time>2017-03-08T14:41:59Z</time>
      </trkpt>
      <trkpt lat="43.43793" lon="6.02474">
        <ele>270.39999389648</ele>
        <time>2017-03-08T14:42:01Z</time>
      </trkpt>
      <trkpt lat="43.43793" lon="6.02473">
        <ele>270.79998779297</ele>
        <time>2017-03-08T14:42:04Z</time>
      </trkpt>
      <trkpt lat="43.43791" lon="6.02475">
        <ele>271.60000610352</ele>
        <time>2017-03-08T14:42:07Z</time>
      </trkpt>
      <trkpt lat="43.4379" lon="6.02476">
        <ele>272</ele>
        <time>2017-03-08T14:42:09Z</time>
      </trkpt>
      <trkpt lat="43.43789" lon="6.02476">
        <ele>272.20001220703</ele>
        <time>2017-03-08T14:42:13Z</time>
      </trkpt>
      <trkpt lat="43.43787" lon="6.02475">
        <ele>272.39999389648</ele>
        <time>2017-03-08T14:42:17Z</time>
      </trkpt>
      <trkpt lat="43.43786" lon="6.02474">
        <ele>272.60000610352</ele>
        <time>2017-03-08T14:42:27Z</time>
      </trkpt>
      <trkpt lat="43.43785" lon="6.02471">
        <ele>272.39999389648</ele>
        <time>2017-03-08T14:42:37Z</time>
      </trkpt>
      <trkpt lat="43.43786" lon="6.02467">
        <ele>272.39999389648</ele>
        <time>2017-03-08T14:42:44Z</time>
      </trkpt>
      <trkpt lat="43.43786" lon="6.02466">
        <ele>272.60000610352</ele>
        <time>2017-03-08T14:42:47Z</time>
      </trkpt>
      <trkpt lat="43.43787" lon="6.02465">
        <ele>272.60000610352</ele>
        <time>2017-03-08T14:42:50Z</time>
      </trkpt>
      <trkpt lat="43.43787" lon="6.02465">
        <ele>272</ele>
        <time>2017-03-08T14:42:57Z</time>
      </trkpt>
      <trkpt lat="43.43786" lon="6.02466">
        <ele>271.79998779297</ele>
        <time>2017-03-08T14:43:04Z</time>
      </trkpt>
      <trkpt lat="43.43786" lon="6.02466">
        <ele>271.79998779297</ele>
        <time>2017-03-08T14:43:07Z</time>
      </trkpt>
      <trkpt lat="43.43785" lon="6.02466">
        <ele>271.79998779297</ele>
        <time>2017-03-08T14:43:17Z</time>
      </trkpt>
      <trkpt lat="43.43782" lon="6.02467">
        <ele>271.79998779297</ele>
        <time>2017-03-08T14:43:26Z</time>
      </trkpt>
      <trkpt lat="43.43781" lon="6.02467">
        <ele>271.79998779297</ele>
        <time>2017-03-08T14:43:27Z</time>
      </trkpt>
      <trkpt lat="43.43776" lon="6.02465">
        <ele>270.79998779297</ele>
        <time>2017-03-08T14:43:30Z</time>
      </trkpt>
      <trkpt lat="43.43775" lon="6.02458">
        <ele>272.20001220703</ele>
        <time>2017-03-08T14:43:34Z</time>
      </trkpt>
      <trkpt lat="43.43772" lon="6.02456">
        <ele>272</ele>
        <time>2017-03-08T14:43:37Z</time>
      </trkpt>
      <trkpt lat="43.43772" lon="6.02455">
        <ele>272.39999389648</ele>
        <time>2017-03-08T14:43:39Z</time>
      </trkpt>
      <trkpt lat="43.43771" lon="6.02452">
        <ele>273</ele>
        <time>2017-03-08T14:43:47Z</time>
      </trkpt>
      <trkpt lat="43.4377" lon="6.0245">
        <ele>273.20001220703</ele>
        <time>2017-03-08T14:43:50Z</time>
      </trkpt>
      <trkpt lat="43.43771" lon="6.02446">
        <ele>274</ele>
        <time>2017-03-08T14:43:57Z</time>
      </trkpt>
      <trkpt lat="43.43773" lon="6.02442">
        <ele>273.60000610352</ele>
        <time>2017-03-08T14:44:07Z</time>
      </trkpt>
      <trkpt lat="43.43773" lon="6.0244">
        <ele>273.60000610352</ele>
        <time>2017-03-08T14:44:08Z</time>
      </trkpt>
      <trkpt lat="43.43769" lon="6.0243">
        <ele>274</ele>
        <time>2017-03-08T14:44:14Z</time>
      </trkpt>
      <trkpt lat="43.43765" lon="6.02425">
        <ele>274.20001220703</ele>
        <time>2017-03-08T14:44:18Z</time>
      </trkpt>
      <trkpt lat="43.4376" lon="6.02421">
        <ele>274.39999389648</ele>
        <time>2017-03-08T14:44:23Z</time>
      </trkpt>
      <trkpt lat="43.43757" lon="6.02412">
        <ele>274.39999389648</ele>
        <time>2017-03-08T14:44:27Z</time>
      </trkpt>
      <trkpt lat="43.43751" lon="6.02404">
        <ele>275.20001220703</ele>
        <time>2017-03-08T14:44:32Z</time>
      </trkpt>
      <trkpt lat="43.43748" lon="6.02402">
        <ele>275.79998779297</ele>
        <time>2017-03-08T14:44:34Z</time>
      </trkpt>
      <trkpt lat="43.43746" lon="6.024">
        <ele>276.39999389648</ele>
        <time>2017-03-08T14:44:36Z</time>
      </trkpt>
      <trkpt lat="43.43745" lon="6.02399">
        <ele>276.60000610352</ele>
        <time>2017-03-08T14:44:37Z</time>
      </trkpt>
      <trkpt lat="43.43742" lon="6.02393">
        <ele>277.20001220703</ele>
        <time>2017-03-08T14:44:40Z</time>
      </trkpt>
      <trkpt lat="43.4374" lon="6.02389">
        <ele>277.60000610352</ele>
        <time>2017-03-08T14:44:42Z</time>
      </trkpt>
      <trkpt lat="43.43738" lon="6.02379">
        <ele>277.79998779297</ele>
        <time>2017-03-08T14:44:47Z</time>
      </trkpt>
      <trkpt lat="43.43729" lon="6.02363">
        <ele>278.39999389648</ele>
        <time>2017-03-08T14:44:56Z</time>
      </trkpt>
      <trkpt lat="43.43728" lon="6.02362">
        <ele>278.39999389648</ele>
        <time>2017-03-08T14:44:57Z</time>
      </trkpt>
      <trkpt lat="43.43724" lon="6.02364">
        <ele>278.60000610352</ele>
        <time>2017-03-08T14:45:00Z</time>
      </trkpt>
      <trkpt lat="43.43719" lon="6.0236">
        <ele>278.79998779297</ele>
        <time>2017-03-08T14:45:04Z</time>
      </trkpt>
      <trkpt lat="43.43716" lon="6.02354">
        <ele>279.39999389648</ele>
        <time>2017-03-08T14:45:07Z</time>
      </trkpt>
      <trkpt lat="43.43715" lon="6.02351">
        <ele>279.60000610352</ele>
        <time>2017-03-08T14:45:09Z</time>
      </trkpt>
      <trkpt lat="43.43714" lon="6.02339">
        <ele>279.39999389648</ele>
        <time>2017-03-08T14:45:14Z</time>
      </trkpt>
      <trkpt lat="43.43715" lon="6.02337">
        <ele>279.20001220703</ele>
        <time>2017-03-08T14:45:15Z</time>
      </trkpt>
      <trkpt lat="43.43717" lon="6.02333">
        <ele>278.60000610352</ele>
        <time>2017-03-08T14:45:17Z</time>
      </trkpt>
      <trkpt lat="43.43722" lon="6.02324">
        <ele>277</ele>
        <time>2017-03-08T14:45:20Z</time>
      </trkpt>
      <trkpt lat="43.43725" lon="6.02314">
        <ele>275.39999389648</ele>
        <time>2017-03-08T14:45:22Z</time>
      </trkpt>
      <trkpt lat="43.43731" lon="6.02303">
        <ele>274.20001220703</ele>
        <time>2017-03-08T14:45:24Z</time>
      </trkpt>
      <trkpt lat="43.43738" lon="6.02288">
        <ele>273.20001220703</ele>
        <time>2017-03-08T14:45:27Z</time>
      </trkpt>
      <trkpt lat="43.43745" lon="6.02274">
        <ele>272.60000610352</ele>
        <time>2017-03-08T14:45:30Z</time>
      </trkpt>
      <trkpt lat="43.43753" lon="6.02258">
        <ele>272</ele>
        <time>2017-03-08T14:45:33Z</time>
      </trkpt>
      <trkpt lat="43.43756" lon="6.02247">
        <ele>271.20001220703</ele>
        <time>2017-03-08T14:45:35Z</time>
      </trkpt>
      <trkpt lat="43.43758" lon="6.02237">
        <ele>270.39999389648</ele>
        <time>2017-03-08T14:45:37Z</time>
      </trkpt>
      <trkpt lat="43.43764" lon="6.02193">
        <ele>271.60000610352</ele>
        <time>2017-03-08T14:45:47Z</time>
      </trkpt>
      <trkpt lat="43.43771" lon="6.02177">
        <ele>272</ele>
        <time>2017-03-08T14:45:51Z</time>
      </trkpt>
      <trkpt lat="43.43777" lon="6.02159">
        <ele>272</ele>
        <time>2017-03-08T14:45:55Z</time>
      </trkpt>
      <trkpt lat="43.43782" lon="6.02152">
        <ele>271.60000610352</ele>
        <time>2017-03-08T14:45:57Z</time>
      </trkpt>
      <trkpt lat="43.43805" lon="6.02124">
        <ele>272.39999389648</ele>
        <time>2017-03-08T14:46:07Z</time>
      </trkpt>
      <trkpt lat="43.43811" lon="6.0211">
        <ele>272.79998779297</ele>
        <time>2017-03-08T14:46:11Z</time>
      </trkpt>
      <trkpt lat="43.43811" lon="6.02103">
        <ele>273.20001220703</ele>
        <time>2017-03-08T14:46:13Z</time>
      </trkpt>
      <trkpt lat="43.43814" lon="6.02089">
        <ele>273.60000610352</ele>
        <time>2017-03-08T14:46:17Z</time>
      </trkpt>
      <trkpt lat="43.43819" lon="6.02072">
        <ele>273</ele>
        <time>2017-03-08T14:46:21Z</time>
      </trkpt>
      <trkpt lat="43.43829" lon="6.02051">
        <ele>272.60000610352</ele>
        <time>2017-03-08T14:46:27Z</time>
      </trkpt>
      <trkpt lat="43.43834" lon="6.02012">
        <ele>273</ele>
        <time>2017-03-08T14:46:37Z</time>
      </trkpt>
      <trkpt lat="43.4384" lon="6.01971">
        <ele>273.60000610352</ele>
        <time>2017-03-08T14:46:47Z</time>
      </trkpt>
      <trkpt lat="43.43848" lon="6.01952">
        <ele>273.60000610352</ele>
        <time>2017-03-08T14:46:53Z</time>
      </trkpt>
      <trkpt lat="43.4385" lon="6.01947">
        <ele>273.79998779297</ele>
        <time>2017-03-08T14:46:56Z</time>
      </trkpt>
      <trkpt lat="43.4385" lon="6.01945">
        <ele>274</ele>
        <time>2017-03-08T14:47:02Z</time>
      </trkpt>
      <trkpt lat="43.4385" lon="6.01944">
        <ele>274</ele>
        <time>2017-03-08T14:47:06Z</time>
      </trkpt>
      <trkpt lat="43.4385" lon="6.01942">
        <ele>273.79998779297</ele>
        <time>2017-03-08T14:47:27Z</time>
      </trkpt>
      <trkpt lat="43.4385" lon="6.01942">
        <ele>273.60000610352</ele>
        <time>2017-03-08T14:47:37Z</time>
      </trkpt>
      <trkpt lat="43.43851" lon="6.01943">
        <ele>273.79998779297</ele>
        <time>2017-03-08T14:48:17Z</time>
      </trkpt>
      <trkpt lat="43.43851" lon="6.01943">
        <ele>273.60000610352</ele>
        <time>2017-03-08T14:48:27Z</time>
      </trkpt>
      <trkpt lat="43.43851" lon="6.01943">
        <ele>273.20001220703</ele>
        <time>2017-03-08T14:48:37Z</time>
      </trkpt>
      <trkpt lat="43.43851" lon="6.01943">
        <ele>273.79998779297</ele>
        <time>2017-03-08T14:49:07Z</time>
      </trkpt>
      <trkpt lat="43.43851" lon="6.01942">
        <ele>273.79998779297</ele>
        <time>2017-03-08T14:49:27Z</time>
      </trkpt>
      <trkpt lat="43.43851" lon="6.01942">
        <ele>273.79998779297</ele>
        <time>2017-03-08T14:49:35Z</time>
      </trkpt>
      <trkpt lat="43.43851" lon="6.01942">
        <ele>273.79998779297</ele>
        <time>2017-03-08T14:49:57Z</time>
      </trkpt>
      <trkpt lat="43.43852" lon="6.01942">
        <ele>273.79998779297</ele>
        <time>2017-03-08T14:50:07Z</time>
      </trkpt>
      <trkpt lat="43.43852" lon="6.01942">
        <ele>273.79998779297</ele>
        <time>2017-03-08T14:50:17Z</time>
      </trkpt>
      <trkpt lat="43.43852" lon="6.01944">
        <ele>273.79998779297</ele>
        <time>2017-03-08T14:50:27Z</time>
      </trkpt>
      <trkpt lat="43.43852" lon="6.01946">
        <ele>273.79998779297</ele>
        <time>2017-03-08T14:50:37Z</time>
      </trkpt>
      <trkpt lat="43.43852" lon="6.01946">
        <ele>273.79998779297</ele>
        <time>2017-03-08T14:50:47Z</time>
      </trkpt>
      <trkpt lat="43.43852" lon="6.01947">
        <ele>273.79998779297</ele>
        <time>2017-03-08T14:51:17Z</time>
      </trkpt>
      <trkpt lat="43.43852" lon="6.01948">
        <ele>273.79998779297</ele>
        <time>2017-03-08T14:51:27Z</time>
      </trkpt>
      <trkpt lat="43.43852" lon="6.01947">
        <ele>273.79998779297</ele>
        <time>2017-03-08T14:51:37Z</time>
      </trkpt>
      <trkpt lat="43.43852" lon="6.01946">
        <ele>273.79998779297</ele>
        <time>2017-03-08T14:51:47Z</time>
      </trkpt>
      <trkpt lat="43.43853" lon="6.01944">
        <ele>273.79998779297</ele>
        <time>2017-03-08T14:51:57Z</time>
      </trkpt>
      <trkpt lat="43.43853" lon="6.01943">
        <ele>273.79998779297</ele>
        <time>2017-03-08T14:52:07Z</time>
      </trkpt>
      <trkpt lat="43.43853" lon="6.01942">
        <ele>273.79998779297</ele>
        <time>2017-03-08T14:52:17Z</time>
      </trkpt>
      <trkpt lat="43.43853" lon="6.01941">
        <ele>273.79998779297</ele>
        <time>2017-03-08T14:52:37Z</time>
      </trkpt>
      <trkpt lat="43.43853" lon="6.01941">
        <ele>273.79998779297</ele>
        <time>2017-03-08T14:52:46Z</time>
      </trkpt>
      <trkpt lat="43.43853" lon="6.0194">
        <ele>273.79998779297</ele>
        <time>2017-03-08T14:52:47Z</time>
      </trkpt>
      <trkpt lat="43.43857" lon="6.01937">
        <ele>273.79998779297</ele>
        <time>2017-03-08T14:52:57Z</time>
      </trkpt>
      <trkpt lat="43.4386" lon="6.01934">
        <ele>273.20001220703</ele>
        <time>2017-03-08T14:52:59Z</time>
      </trkpt>
      <trkpt lat="43.43866" lon="6.01918">
        <ele>273.60000610352</ele>
        <time>2017-03-08T14:53:05Z</time>
      </trkpt>
      <trkpt lat="43.43867" lon="6.0191">
        <ele>273.60000610352</ele>
        <time>2017-03-08T14:53:07Z</time>
      </trkpt>
      <trkpt lat="43.43869" lon="6.01895">
        <ele>273.79998779297</ele>
        <time>2017-03-08T14:53:10Z</time>
      </trkpt>
      <trkpt lat="43.43873" lon="6.01874">
        <ele>274</ele>
        <time>2017-03-08T14:53:14Z</time>
      </trkpt>
      <trkpt lat="43.43876" lon="6.01858">
        <ele>274</ele>
        <time>2017-03-08T14:53:17Z</time>
      </trkpt>
      <trkpt lat="43.43876" lon="6.01852">
        <ele>274.20001220703</ele>
        <time>2017-03-08T14:53:18Z</time>
      </trkpt>
      <trkpt lat="43.43879" lon="6.01819">
        <ele>275.20001220703</ele>
        <time>2017-03-08T14:53:25Z</time>
      </trkpt>
      <trkpt lat="43.4388" lon="6.01801">
        <ele>276.39999389648</ele>
        <time>2017-03-08T14:53:29Z</time>
      </trkpt>
      <trkpt lat="43.43884" lon="6.01787">
        <ele>277.39999389648</ele>
        <time>2017-03-08T14:53:33Z</time>
      </trkpt>
      <trkpt lat="43.43887" lon="6.01777">
        <ele>278.20001220703</ele>
        <time>2017-03-08T14:53:36Z</time>
      </trkpt>
      <trkpt lat="43.43888" lon="6.01763">
        <ele>278.79998779297</ele>
        <time>2017-03-08T14:53:40Z</time>
      </trkpt>
      <trkpt lat="43.43887" lon="6.01753">
        <ele>279.60000610352</ele>
        <time>2017-03-08T14:53:43Z</time>
      </trkpt>
      <trkpt lat="43.43885" lon="6.01746">
        <ele>280.20001220703</ele>
        <time>2017-03-08T14:53:45Z</time>
      </trkpt>
      <trkpt lat="43.43883" lon="6.01739">
        <ele>280.39999389648</ele>
        <time>2017-03-08T14:53:47Z</time>
      </trkpt>
      <trkpt lat="43.43882" lon="6.01735">
        <ele>280.39999389648</ele>
        <time>2017-03-08T14:53:48Z</time>
      </trkpt>
      <trkpt lat="43.43881" lon="6.01732">
        <ele>280.60000610352</ele>
        <time>2017-03-08T14:53:49Z</time>
      </trkpt>
      <trkpt lat="43.43877" lon="6.01723">
        <ele>281</ele>
        <time>2017-03-08T14:53:52Z</time>
      </trkpt>
      <trkpt lat="43.43873" lon="6.01711">
        <ele>281.20001220703</ele>
        <time>2017-03-08T14:53:56Z</time>
      </trkpt>
      <trkpt lat="43.43872" lon="6.01708">
        <ele>281.20001220703</ele>
        <time>2017-03-08T14:53:57Z</time>
      </trkpt>
      <trkpt lat="43.43871" lon="6.01672">
        <ele>282.39999389648</ele>
        <time>2017-03-08T14:54:07Z</time>
      </trkpt>
      <trkpt lat="43.43864" lon="6.0166">
        <ele>283</ele>
        <time>2017-03-08T14:54:12Z</time>
      </trkpt>
      <trkpt lat="43.43853" lon="6.01665">
        <ele>283.20001220703</ele>
        <time>2017-03-08T14:54:17Z</time>
      </trkpt>
      <trkpt lat="43.43837" lon="6.0168">
        <ele>284</ele>
        <time>2017-03-08T14:54:26Z</time>
      </trkpt>
      <trkpt lat="43.43835" lon="6.01681">
        <ele>284</ele>
        <time>2017-03-08T14:54:27Z</time>
      </trkpt>
      <trkpt lat="43.43818" lon="6.0169">
        <ele>284.79998779297</ele>
        <time>2017-03-08T14:54:34Z</time>
      </trkpt>
      <trkpt lat="43.43809" lon="6.01694">
        <ele>284.79998779297</ele>
        <time>2017-03-08T14:54:37Z</time>
      </trkpt>
      <trkpt lat="43.43806" lon="6.01695">
        <ele>285</ele>
        <time>2017-03-08T14:54:38Z</time>
      </trkpt>
      <trkpt lat="43.43784" lon="6.01699">
        <ele>285.39999389648</ele>
        <time>2017-03-08T14:54:47Z</time>
      </trkpt>
      <trkpt lat="43.43771" lon="6.01695">
        <ele>286</ele>
        <time>2017-03-08T14:54:53Z</time>
      </trkpt>
      <trkpt lat="43.43764" lon="6.01693">
        <ele>286.79998779297</ele>
        <time>2017-03-08T14:54:57Z</time>
      </trkpt>
      <trkpt lat="43.43759" lon="6.01691">
        <ele>287</ele>
        <time>2017-03-08T14:55:00Z</time>
      </trkpt>
      <trkpt lat="43.43754" lon="6.01688">
        <ele>287.60000610352</ele>
        <time>2017-03-08T14:55:04Z</time>
      </trkpt>
      <trkpt lat="43.43753" lon="6.01687">
        <ele>287.60000610352</ele>
        <time>2017-03-08T14:55:07Z</time>
      </trkpt>
      <trkpt lat="43.43749" lon="6.01686">
        <ele>288</ele>
        <time>2017-03-08T14:55:13Z</time>
      </trkpt>
      <trkpt lat="43.43747" lon="6.01685">
        <ele>288</ele>
        <time>2017-03-08T14:55:17Z</time>
      </trkpt>
      <trkpt lat="43.43747" lon="6.01684">
        <ele>288</ele>
        <time>2017-03-08T14:55:21Z</time>
      </trkpt>
      <trkpt lat="43.43747" lon="6.01684">
        <ele>288</ele>
        <time>2017-03-08T14:55:22Z</time>
      </trkpt>
      <trkpt lat="43.43747" lon="6.01685">
        <ele>288</ele>
        <time>2017-03-08T14:55:27Z</time>
      </trkpt>
      <trkpt lat="43.43747" lon="6.01685">
        <ele>287.79998779297</ele>
        <time>2017-03-08T14:55:37Z</time>
      </trkpt>
      <trkpt lat="43.43747" lon="6.01685">
        <ele>287.79998779297</ele>
        <time>2017-03-08T14:55:40Z</time>
      </trkpt>
      <trkpt lat="43.43747" lon="6.01685">
        <ele>288.20001220703</ele>
        <time>2017-03-08T14:55:47Z</time>
      </trkpt>
      <trkpt lat="43.43747" lon="6.01685">
        <ele>288</ele>
        <time>2017-03-08T14:55:57Z</time>
      </trkpt>
      <trkpt lat="43.43747" lon="6.01685">
        <ele>288</ele>
        <time>2017-03-08T14:56:03Z</time>
      </trkpt>
      <trkpt lat="43.43747" lon="6.01686">
        <ele>287.79998779297</ele>
        <time>2017-03-08T14:56:12Z</time>
      </trkpt>
      <trkpt lat="43.43747" lon="6.01686">
        <ele>288</ele>
        <time>2017-03-08T14:56:17Z</time>
      </trkpt>
      <trkpt lat="43.43747" lon="6.01686">
        <ele>288</ele>
        <time>2017-03-08T14:56:23Z</time>
      </trkpt>
      <trkpt lat="43.43747" lon="6.01686">
        <ele>287.79998779297</ele>
        <time>2017-03-08T14:56:27Z</time>
      </trkpt>
      <trkpt lat="43.43747" lon="6.01687">
        <ele>288.20001220703</ele>
        <time>2017-03-08T14:57:07Z</time>
      </trkpt>
      <trkpt lat="43.43748" lon="6.01688">
        <ele>288.20001220703</ele>
        <time>2017-03-08T14:57:14Z</time>
      </trkpt>
      <trkpt lat="43.43752" lon="6.0169">
        <ele>288</ele>
        <time>2017-03-08T14:57:17Z</time>
      </trkpt>
      <trkpt lat="43.43768" lon="6.01697">
        <ele>287</ele>
        <time>2017-03-08T14:57:24Z</time>
      </trkpt>
      <trkpt lat="43.4378" lon="6.01701">
        <ele>286.20001220703</ele>
        <time>2017-03-08T14:57:27Z</time>
      </trkpt>
      <trkpt lat="43.43785" lon="6.01701">
        <ele>286</ele>
        <time>2017-03-08T14:57:28Z</time>
      </trkpt>
      <trkpt lat="43.43791" lon="6.01701">
        <ele>285.60000610352</ele>
        <time>2017-03-08T14:57:29Z</time>
      </trkpt>
      <trkpt lat="43.43807" lon="6.01696">
        <ele>284.79998779297</ele>
        <time>2017-03-08T14:57:32Z</time>
      </trkpt>
      <trkpt lat="43.43826" lon="6.01687">
        <ele>283.79998779297</ele>
        <time>2017-03-08T14:57:36Z</time>
      </trkpt>
      <trkpt lat="43.4383" lon="6.01685">
        <ele>283.60000610352</ele>
        <time>2017-03-08T14:57:37Z</time>
      </trkpt>
      <trkpt lat="43.43845" lon="6.01673">
        <ele>282.39999389648</ele>
        <time>2017-03-08T14:57:41Z</time>
      </trkpt>
      <trkpt lat="43.43848" lon="6.01669">
        <ele>282.39999389648</ele>
        <time>2017-03-08T14:57:42Z</time>
      </trkpt>
      <trkpt lat="43.43865" lon="6.01659">
        <ele>282.20001220703</ele>
        <time>2017-03-08T14:57:47Z</time>
      </trkpt>
      <trkpt lat="43.43869" lon="6.01664">
        <ele>282.60000610352</ele>
        <time>2017-03-08T14:57:49Z</time>
      </trkpt>
      <trkpt lat="43.43871" lon="6.01683">
        <ele>283</ele>
        <time>2017-03-08T14:57:53Z</time>
      </trkpt>
      <trkpt lat="43.43877" lon="6.01708">
        <ele>283</ele>
        <time>2017-03-08T14:57:57Z</time>
      </trkpt>
      <trkpt lat="43.4388" lon="6.01714">
        <ele>283</ele>
        <time>2017-03-08T14:57:58Z</time>
      </trkpt>
      <trkpt lat="43.43887" lon="6.01734">
        <ele>281.79998779297</ele>
        <time>2017-03-08T14:58:01Z</time>
      </trkpt>
      <trkpt lat="43.43889" lon="6.01742">
        <ele>281.39999389648</ele>
        <time>2017-03-08T14:58:02Z</time>
      </trkpt>
      <trkpt lat="43.43891" lon="6.01758">
        <ele>280.79998779297</ele>
        <time>2017-03-08T14:58:04Z</time>
      </trkpt>
      <trkpt lat="43.43888" lon="6.01776">
        <ele>280.20001220703</ele>
        <time>2017-03-08T14:58:06Z</time>
      </trkpt>
      <trkpt lat="43.43884" lon="6.01795">
        <ele>279.20001220703</ele>
        <time>2017-03-08T14:58:08Z</time>
      </trkpt>
      <trkpt lat="43.43882" lon="6.01806">
        <ele>278.60000610352</ele>
        <time>2017-03-08T14:58:09Z</time>
      </trkpt>
      <trkpt lat="43.4388" lon="6.01829">
        <ele>277.20001220703</ele>
        <time>2017-03-08T14:58:11Z</time>
      </trkpt>
      <trkpt lat="43.43878" lon="6.01852">
        <ele>276</ele>
        <time>2017-03-08T14:58:13Z</time>
      </trkpt>
      <trkpt lat="43.43874" lon="6.01874">
        <ele>275</ele>
        <time>2017-03-08T14:58:15Z</time>
      </trkpt>
      <trkpt lat="43.43871" lon="6.01894">
        <ele>274.20001220703</ele>
        <time>2017-03-08T14:58:17Z</time>
      </trkpt>
      <trkpt lat="43.43868" lon="6.01912">
        <ele>273.79998779297</ele>
        <time>2017-03-08T14:58:19Z</time>
      </trkpt>
      <trkpt lat="43.43867" lon="6.01918">
        <ele>273.79998779297</ele>
        <time>2017-03-08T14:58:20Z</time>
      </trkpt>
      <trkpt lat="43.4387" lon="6.01927">
        <ele>274</ele>
        <time>2017-03-08T14:58:22Z</time>
      </trkpt>
      <trkpt lat="43.43877" lon="6.01937">
        <ele>274</ele>
        <time>2017-03-08T14:58:27Z</time>
      </trkpt>
      <trkpt lat="43.43878" lon="6.0194">
        <ele>274</ele>
        <time>2017-03-08T14:58:28Z</time>
      </trkpt>
      <trkpt lat="43.43879" lon="6.01947">
        <ele>274</ele>
        <time>2017-03-08T14:58:31Z</time>
      </trkpt>
      <trkpt lat="43.43886" lon="6.01948">
        <ele>274.60000610352</ele>
        <time>2017-03-08T14:58:35Z</time>
      </trkpt>
      <trkpt lat="43.4389" lon="6.0195">
        <ele>274.79998779297</ele>
        <time>2017-03-08T14:58:37Z</time>
      </trkpt>
      <trkpt lat="43.43916" lon="6.01976">
        <ele>274.79998779297</ele>
        <time>2017-03-08T14:58:47Z</time>
      </trkpt>
      <trkpt lat="43.43943" lon="6.02007">
        <ele>275.79998779297</ele>
        <time>2017-03-08T14:58:57Z</time>
      </trkpt>
      <trkpt lat="43.43966" lon="6.02037">
        <ele>276.39999389648</ele>
        <time>2017-03-08T14:59:06Z</time>
      </trkpt>
      <trkpt lat="43.43983" lon="6.02059">
        <ele>277</ele>
        <time>2017-03-08T14:59:13Z</time>
      </trkpt>
      <trkpt lat="43.43993" lon="6.02071">
        <ele>277.39999389648</ele>
        <time>2017-03-08T14:59:17Z</time>
      </trkpt>
      <trkpt lat="43.44" lon="6.02079">
        <ele>278</ele>
        <time>2017-03-08T14:59:20Z</time>
      </trkpt>
      <trkpt lat="43.44017" lon="6.021">
        <ele>279</ele>
        <time>2017-03-08T14:59:27Z</time>
      </trkpt>
      <trkpt lat="43.4402" lon="6.02103">
        <ele>279</ele>
        <time>2017-03-08T14:59:28Z</time>
      </trkpt>
      <trkpt lat="43.44042" lon="6.02114">
        <ele>280</ele>
        <time>2017-03-08T14:59:37Z</time>
      </trkpt>
      <trkpt lat="43.44046" lon="6.02113">
        <ele>280.20001220703</ele>
        <time>2017-03-08T14:59:39Z</time>
      </trkpt>
      <trkpt lat="43.44065" lon="6.02117">
        <ele>281</ele>
        <time>2017-03-08T14:59:47Z</time>
      </trkpt>
      <trkpt lat="43.44069" lon="6.02118">
        <ele>281.20001220703</ele>
        <time>2017-03-08T14:59:49Z</time>
      </trkpt>
      <trkpt lat="43.44079" lon="6.02126">
        <ele>282.20001220703</ele>
        <time>2017-03-08T14:59:54Z</time>
      </trkpt>
      <trkpt lat="43.44084" lon="6.02132">
        <ele>282.60000610352</ele>
        <time>2017-03-08T14:59:57Z</time>
      </trkpt>
      <trkpt lat="43.44087" lon="6.0214">
        <ele>283.39999389648</ele>
        <time>2017-03-08T15:00:01Z</time>
      </trkpt>
      <trkpt lat="43.44089" lon="6.02153">
        <ele>284</ele>
        <time>2017-03-08T15:00:07Z</time>
      </trkpt>
      <trkpt lat="43.44092" lon="6.02163">
        <ele>284.39999389648</ele>
        <time>2017-03-08T15:00:12Z</time>
      </trkpt>
      <trkpt lat="43.44095" lon="6.02175">
        <ele>284.79998779297</ele>
        <time>2017-03-08T15:00:17Z</time>
      </trkpt>
      <trkpt lat="43.44097" lon="6.02194">
        <ele>285.39999389648</ele>
        <time>2017-03-08T15:00:23Z</time>
      </trkpt>
      <trkpt lat="43.44097" lon="6.02208">
        <ele>285.79998779297</ele>
        <time>2017-03-08T15:00:27Z</time>
      </trkpt>
      <trkpt lat="43.44097" lon="6.02244">
        <ele>286.60000610352</ele>
        <time>2017-03-08T15:00:37Z</time>
      </trkpt>
      <trkpt lat="43.44114" lon="6.02268">
        <ele>287.60000610352</ele>
        <time>2017-03-08T15:00:46Z</time>
      </trkpt>
      <trkpt lat="43.44117" lon="6.0227">
        <ele>287.79998779297</ele>
        <time>2017-03-08T15:00:47Z</time>
      </trkpt>
      <trkpt lat="43.44138" lon="6.02294">
        <ele>288.39999389648</ele>
        <time>2017-03-08T15:00:57Z</time>
      </trkpt>
      <trkpt lat="43.44157" lon="6.02316">
        <ele>288.79998779297</ele>
        <time>2017-03-08T15:01:07Z</time>
      </trkpt>
      <trkpt lat="43.44167" lon="6.0233">
        <ele>289.79998779297</ele>
        <time>2017-03-08T15:01:14Z</time>
      </trkpt>
      <trkpt lat="43.44169" lon="6.02332">
        <ele>290</ele>
        <time>2017-03-08T15:01:17Z</time>
      </trkpt>
      <trkpt lat="43.44169" lon="6.02332">
        <ele>290.20001220703</ele>
        <time>2017-03-08T15:01:23Z</time>
      </trkpt>
      <trkpt lat="43.44169" lon="6.02332">
        <ele>290.20001220703</ele>
        <time>2017-03-08T15:01:27Z</time>
      </trkpt>
      <trkpt lat="43.44169" lon="6.02332">
        <ele>290.20001220703</ele>
        <time>2017-03-08T15:01:37Z</time>
      </trkpt>
      <trkpt lat="43.44169" lon="6.02333">
        <ele>290.20001220703</ele>
        <time>2017-03-08T15:01:47Z</time>
      </trkpt>
      <trkpt lat="43.44171" lon="6.02337">
        <ele>290.39999389648</ele>
        <time>2017-03-08T15:01:50Z</time>
      </trkpt>
      <trkpt lat="43.4417" lon="6.02342">
        <ele>290.79998779297</ele>
        <time>2017-03-08T15:01:53Z</time>
      </trkpt>
      <trkpt lat="43.44171" lon="6.02345">
        <ele>290.79998779297</ele>
        <time>2017-03-08T15:01:56Z</time>
      </trkpt>
      <trkpt lat="43.4417" lon="6.02346">
        <ele>291</ele>
        <time>2017-03-08T15:01:57Z</time>
      </trkpt>
      <trkpt lat="43.44169" lon="6.02351">
        <ele>290.79998779297</ele>
        <time>2017-03-08T15:01:59Z</time>
      </trkpt>
      <trkpt lat="43.44166" lon="6.0238">
        <ele>290.79998779297</ele>
        <time>2017-03-08T15:02:07Z</time>
      </trkpt>
      <trkpt lat="43.44161" lon="6.0242">
        <ele>291.20001220703</ele>
        <time>2017-03-08T15:02:17Z</time>
      </trkpt>
      <trkpt lat="43.44159" lon="6.02429">
        <ele>291.20001220703</ele>
        <time>2017-03-08T15:02:20Z</time>
      </trkpt>
      <trkpt lat="43.44156" lon="6.02454">
        <ele>291.39999389648</ele>
        <time>2017-03-08T15:02:27Z</time>
      </trkpt>
      <trkpt lat="43.44153" lon="6.02474">
        <ele>291.39999389648</ele>
        <time>2017-03-08T15:02:34Z</time>
      </trkpt>
      <trkpt lat="43.44152" lon="6.02484">
        <ele>291.60000610352</ele>
        <time>2017-03-08T15:02:37Z</time>
      </trkpt>
      <trkpt lat="43.44152" lon="6.02519">
        <ele>291.60000610352</ele>
        <time>2017-03-08T15:02:47Z</time>
      </trkpt>
      <trkpt lat="43.44155" lon="6.0253">
        <ele>291.79998779297</ele>
        <time>2017-03-08T15:02:50Z</time>
      </trkpt>
      <trkpt lat="43.44161" lon="6.02555">
        <ele>292.39999389648</ele>
        <time>2017-03-08T15:02:57Z</time>
      </trkpt>
      <trkpt lat="43.44165" lon="6.02571">
        <ele>292.79998779297</ele>
        <time>2017-03-08T15:03:02Z</time>
      </trkpt>
      <trkpt lat="43.44168" lon="6.02582">
        <ele>293.60000610352</ele>
        <time>2017-03-08T15:03:07Z</time>
      </trkpt>
      <trkpt lat="43.44168" lon="6.02595">
        <ele>294</ele>
        <time>2017-03-08T15:03:12Z</time>
      </trkpt>
      <trkpt lat="43.44169" lon="6.02603">
        <ele>294.39999389648</ele>
        <time>2017-03-08T15:03:17Z</time>
      </trkpt>
      <trkpt lat="43.44165" lon="6.02608">
        <ele>294.60000610352</ele>
        <time>2017-03-08T15:03:27Z</time>
      </trkpt>
      <trkpt lat="43.44162" lon="6.02609">
        <ele>294.20001220703</ele>
        <time>2017-03-08T15:03:36Z</time>
      </trkpt>
      <trkpt lat="43.44162" lon="6.02608">
        <ele>294.20001220703</ele>
        <time>2017-03-08T15:03:37Z</time>
      </trkpt>
      <trkpt lat="43.44161" lon="6.02605">
        <ele>293.79998779297</ele>
        <time>2017-03-08T15:03:47Z</time>
      </trkpt>
      <trkpt lat="43.44161" lon="6.02604">
        <ele>293.79998779297</ele>
        <time>2017-03-08T15:03:50Z</time>
      </trkpt>
      <trkpt lat="43.4416" lon="6.02604">
        <ele>294</ele>
        <time>2017-03-08T15:03:57Z</time>
      </trkpt>
      <trkpt lat="43.44161" lon="6.02603">
        <ele>294</ele>
        <time>2017-03-08T15:04:02Z</time>
      </trkpt>
      <trkpt lat="43.44161" lon="6.02603">
        <ele>294.60000610352</ele>
        <time>2017-03-08T15:04:07Z</time>
      </trkpt>
      <trkpt lat="43.44162" lon="6.02602">
        <ele>294.20001220703</ele>
        <time>2017-03-08T15:04:17Z</time>
      </trkpt>
      <trkpt lat="43.44161" lon="6.02604">
        <ele>294.20001220703</ele>
        <time>2017-03-08T15:04:23Z</time>
      </trkpt>
      <trkpt lat="43.4416" lon="6.02604">
        <ele>294</ele>
        <time>2017-03-08T15:04:27Z</time>
      </trkpt>
      <trkpt lat="43.44162" lon="6.02605">
        <ele>294</ele>
        <time>2017-03-08T15:04:32Z</time>
      </trkpt>
      <trkpt lat="43.44162" lon="6.02605">
        <ele>294.20001220703</ele>
        <time>2017-03-08T15:04:37Z</time>
      </trkpt>
      <trkpt lat="43.44162" lon="6.02607">
        <ele>293.39999389648</ele>
        <time>2017-03-08T15:04:45Z</time>
      </trkpt>
      <trkpt lat="43.44162" lon="6.02606">
        <ele>293.39999389648</ele>
        <time>2017-03-08T15:04:47Z</time>
      </trkpt>
      <trkpt lat="43.4416" lon="6.02607">
        <ele>293.39999389648</ele>
        <time>2017-03-08T15:04:57Z</time>
      </trkpt>
      <trkpt lat="43.44159" lon="6.02605">
        <ele>293.39999389648</ele>
        <time>2017-03-08T15:05:00Z</time>
      </trkpt>
      <trkpt lat="43.44157" lon="6.02604">
        <ele>293.39999389648</ele>
        <time>2017-03-08T15:05:06Z</time>
      </trkpt>
      <trkpt lat="43.44157" lon="6.02604">
        <ele>293.39999389648</ele>
        <time>2017-03-08T15:05:07Z</time>
      </trkpt>
      <trkpt lat="43.44156" lon="6.02603">
        <ele>293.39999389648</ele>
        <time>2017-03-08T15:05:17Z</time>
      </trkpt>
      <trkpt lat="43.44155" lon="6.026">
        <ele>293.39999389648</ele>
        <time>2017-03-08T15:05:25Z</time>
      </trkpt>
      <trkpt lat="43.44152" lon="6.02598">
        <ele>293.20001220703</ele>
        <time>2017-03-08T15:05:27Z</time>
      </trkpt>
      <trkpt lat="43.44148" lon="6.026">
        <ele>293</ele>
        <time>2017-03-08T15:05:30Z</time>
      </trkpt>
      <trkpt lat="43.44139" lon="6.02604">
        <ele>292.20001220703</ele>
        <time>2017-03-08T15:05:37Z</time>
      </trkpt>
      <trkpt lat="43.44133" lon="6.02609">
        <ele>291.79998779297</ele>
        <time>2017-03-08T15:05:40Z</time>
      </trkpt>
      <trkpt lat="43.44126" lon="6.02622">
        <ele>290.79998779297</ele>
        <time>2017-03-08T15:05:44Z</time>
      </trkpt>
      <trkpt lat="43.44125" lon="6.02629">
        <ele>290.20001220703</ele>
        <time>2017-03-08T15:05:47Z</time>
      </trkpt>
      <trkpt lat="43.44123" lon="6.02631">
        <ele>290.60000610352</ele>
        <time>2017-03-08T15:05:57Z</time>
      </trkpt>
      <trkpt lat="43.44123" lon="6.02629">
        <ele>290.20001220703</ele>
        <time>2017-03-08T15:06:07Z</time>
      </trkpt>
      <trkpt lat="43.44122" lon="6.02626">
        <ele>290.39999389648</ele>
        <time>2017-03-08T15:06:34Z</time>
      </trkpt>
      <trkpt lat="43.44122" lon="6.02626">
        <ele>290.20001220703</ele>
        <time>2017-03-08T15:06:37Z</time>
      </trkpt>
      <trkpt lat="43.4412" lon="6.02626">
        <ele>289.60000610352</ele>
        <time>2017-03-08T15:06:44Z</time>
      </trkpt>
      <trkpt lat="43.44119" lon="6.02628">
        <ele>289.60000610352</ele>
        <time>2017-03-08T15:06:47Z</time>
      </trkpt>
      <trkpt lat="43.44119" lon="6.02629">
        <ele>289.79998779297</ele>
        <time>2017-03-08T15:06:51Z</time>
      </trkpt>
      <trkpt lat="43.44118" lon="6.02634">
        <ele>289.60000610352</ele>
        <time>2017-03-08T15:06:57Z</time>
      </trkpt>
      <trkpt lat="43.44114" lon="6.02639">
        <ele>289.39999389648</ele>
        <time>2017-03-08T15:07:04Z</time>
      </trkpt>
      <trkpt lat="43.44112" lon="6.02644">
        <ele>289.39999389648</ele>
        <time>2017-03-08T15:07:07Z</time>
      </trkpt>
      <trkpt lat="43.44104" lon="6.02662">
        <ele>288.60000610352</ele>
        <time>2017-03-08T15:07:13Z</time>
      </trkpt>
      <trkpt lat="43.44094" lon="6.02678">
        <ele>287.60000610352</ele>
        <time>2017-03-08T15:07:17Z</time>
      </trkpt>
      <trkpt lat="43.44076" lon="6.02715">
        <ele>287.20001220703</ele>
        <time>2017-03-08T15:07:26Z</time>
      </trkpt>
      <trkpt lat="43.44075" lon="6.02719">
        <ele>287</ele>
        <time>2017-03-08T15:07:27Z</time>
      </trkpt>
      <trkpt lat="43.44073" lon="6.02728">
        <ele>286.39999389648</ele>
        <time>2017-03-08T15:07:29Z</time>
      </trkpt>
      <trkpt lat="43.44065" lon="6.02763">
        <ele>286</ele>
        <time>2017-03-08T15:07:35Z</time>
      </trkpt>
      <trkpt lat="43.44064" lon="6.02773">
        <ele>286</ele>
        <time>2017-03-08T15:07:37Z</time>
      </trkpt>
      <trkpt lat="43.44061" lon="6.02791">
        <ele>285.39999389648</ele>
        <time>2017-03-08T15:07:41Z</time>
      </trkpt>
      <trkpt lat="43.44059" lon="6.02813">
        <ele>285.79998779297</ele>
        <time>2017-03-08T15:07:46Z</time>
      </trkpt>
      <trkpt lat="43.44062" lon="6.02843">
        <ele>286.39999389648</ele>
        <time>2017-03-08T15:07:54Z</time>
      </trkpt>
      <trkpt lat="43.44062" lon="6.02854">
        <ele>286.60000610352</ele>
        <time>2017-03-08T15:07:57Z</time>
      </trkpt>
      <trkpt lat="43.44061" lon="6.02865">
        <ele>287.20001220703</ele>
        <time>2017-03-08T15:08:00Z</time>
      </trkpt>
      <trkpt lat="43.44061" lon="6.02875">
        <ele>287.60000610352</ele>
        <time>2017-03-08T15:08:03Z</time>
      </trkpt>
      <trkpt lat="43.44059" lon="6.02888">
        <ele>287.60000610352</ele>
        <time>2017-03-08T15:08:07Z</time>
      </trkpt>
      <trkpt lat="43.44054" lon="6.02924">
        <ele>287.79998779297</ele>
        <time>2017-03-08T15:08:17Z</time>
      </trkpt>
      <trkpt lat="43.4405" lon="6.02948">
        <ele>287.60000610352</ele>
        <time>2017-03-08T15:08:22Z</time>
      </trkpt>
      <trkpt lat="43.44048" lon="6.02976">
        <ele>287</ele>
        <time>2017-03-08T15:08:27Z</time>
      </trkpt>
      <trkpt lat="43.44047" lon="6.02989">
        <ele>286.79998779297</ele>
        <time>2017-03-08T15:08:29Z</time>
      </trkpt>
      <trkpt lat="43.44048" lon="6.03003">
        <ele>286.39999389648</ele>
        <time>2017-03-08T15:08:31Z</time>
      </trkpt>
      <trkpt lat="43.44049" lon="6.03015">
        <ele>286</ele>
        <time>2017-03-08T15:08:33Z</time>
      </trkpt>
      <trkpt lat="43.44048" lon="6.03028">
        <ele>285.20001220703</ele>
        <time>2017-03-08T15:08:36Z</time>
      </trkpt>
      <trkpt lat="43.44046" lon="6.03032">
        <ele>285.20001220703</ele>
        <time>2017-03-08T15:08:37Z</time>
      </trkpt>
      <trkpt lat="43.44036" lon="6.03057">
        <ele>284</ele>
        <time>2017-03-08T15:08:42Z</time>
      </trkpt>
      <trkpt lat="43.44027" lon="6.03083">
        <ele>283</ele>
        <time>2017-03-08T15:08:47Z</time>
      </trkpt>
      <trkpt lat="43.44019" lon="6.03101">
        <ele>282</ele>
        <time>2017-03-08T15:08:51Z</time>
      </trkpt>
      <trkpt lat="43.44018" lon="6.03107">
        <ele>281.39999389648</ele>
        <time>2017-03-08T15:08:52Z</time>
      </trkpt>
      <trkpt lat="43.44014" lon="6.03118">
        <ele>280.79998779297</ele>
        <time>2017-03-08T15:08:54Z</time>
      </trkpt>
      <trkpt lat="43.44005" lon="6.03135">
        <ele>280</ele>
        <time>2017-03-08T15:08:57Z</time>
      </trkpt>
      <trkpt lat="43.43999" lon="6.03147">
        <ele>279.39999389648</ele>
        <time>2017-03-08T15:08:59Z</time>
      </trkpt>
      <trkpt lat="43.43989" lon="6.03166">
        <ele>278.39999389648</ele>
        <time>2017-03-08T15:09:02Z</time>
      </trkpt>
      <trkpt lat="43.43973" lon="6.03193">
        <ele>277.79998779297</ele>
        <time>2017-03-08T15:09:07Z</time>
      </trkpt>
      <trkpt lat="43.43963" lon="6.0321">
        <ele>277</ele>
        <time>2017-03-08T15:09:10Z</time>
      </trkpt>
      <trkpt lat="43.43944" lon="6.03245">
        <ele>276.39999389648</ele>
        <time>2017-03-08T15:09:17Z</time>
      </trkpt>
      <trkpt lat="43.43918" lon="6.03288">
        <ele>276</ele>
        <time>2017-03-08T15:09:27Z</time>
      </trkpt>
      <trkpt lat="43.43895" lon="6.03302">
        <ele>275.60000610352</ele>
        <time>2017-03-08T15:09:37Z</time>
      </trkpt>
      <trkpt lat="43.43895" lon="6.03302">
        <ele>275.60000610352</ele>
        <time>2017-03-08T15:09:47Z</time>
      </trkpt>
      <trkpt lat="43.43894" lon="6.03301">
        <ele>275.79998779297</ele>
        <time>2017-03-08T15:09:57Z</time>
      </trkpt>
      <trkpt lat="43.43893" lon="6.03301">
        <ele>275.60000610352</ele>
        <time>2017-03-08T15:10:07Z</time>
      </trkpt>
      <trkpt lat="43.43893" lon="6.03301">
        <ele>275.60000610352</ele>
        <time>2017-03-08T15:10:11Z</time>
      </trkpt>
      <trkpt lat="43.43878" lon="6.03298">
        <ele>275.39999389648</ele>
        <time>2017-03-08T15:10:17Z</time>
      </trkpt>
      <trkpt lat="43.43871" lon="6.03295">
        <ele>274.79998779297</ele>
        <time>2017-03-08T15:10:19Z</time>
      </trkpt>
      <trkpt lat="43.43863" lon="6.03291">
        <ele>273.79998779297</ele>
        <time>2017-03-08T15:10:21Z</time>
      </trkpt>
      <trkpt lat="43.43859" lon="6.03289">
        <ele>273.39999389648</ele>
        <time>2017-03-08T15:10:22Z</time>
      </trkpt>
      <trkpt lat="43.43843" lon="6.03279">
        <ele>272.79998779297</ele>
        <time>2017-03-08T15:10:26Z</time>
      </trkpt>
      <trkpt lat="43.43839" lon="6.03276">
        <ele>272.39999389648</ele>
        <time>2017-03-08T15:10:27Z</time>
      </trkpt>
      <trkpt lat="43.43819" lon="6.03263">
        <ele>271</ele>
        <time>2017-03-08T15:10:31Z</time>
      </trkpt>
      <trkpt lat="43.43807" lon="6.03262">
        <ele>269.60000610352</ele>
        <time>2017-03-08T15:10:33Z</time>
      </trkpt>
      <trkpt lat="43.43791" lon="6.03266">
        <ele>268.39999389648</ele>
        <time>2017-03-08T15:10:36Z</time>
      </trkpt>
      <trkpt lat="43.43787" lon="6.03267">
        <ele>268.20001220703</ele>
        <time>2017-03-08T15:10:37Z</time>
      </trkpt>
      <trkpt lat="43.43773" lon="6.03268">
        <ele>267.20001220703</ele>
        <time>2017-03-08T15:10:41Z</time>
      </trkpt>
      <trkpt lat="43.4376" lon="6.03271">
        <ele>266</ele>
        <time>2017-03-08T15:10:46Z</time>
      </trkpt>
      <trkpt lat="43.43758" lon="6.03271">
        <ele>265.60000610352</ele>
        <time>2017-03-08T15:10:47Z</time>
      </trkpt>
      <trkpt lat="43.43744" lon="6.03275">
        <ele>264.20001220703</ele>
        <time>2017-03-08T15:10:53Z</time>
      </trkpt>
      <trkpt lat="43.43737" lon="6.03274">
        <ele>264</ele>
        <time>2017-03-08T15:10:57Z</time>
      </trkpt>
      <trkpt lat="43.43735" lon="6.03273">
        <ele>263.79998779297</ele>
        <time>2017-03-08T15:10:58Z</time>
      </trkpt>
      <trkpt lat="43.43733" lon="6.03272">
        <ele>263.39999389648</ele>
        <time>2017-03-08T15:11:01Z</time>
      </trkpt>
      <trkpt lat="43.43732" lon="6.0327">
        <ele>263.60000610352</ele>
        <time>2017-03-08T15:11:04Z</time>
      </trkpt>
      <trkpt lat="43.43731" lon="6.03269">
        <ele>264</ele>
        <time>2017-03-08T15:11:07Z</time>
      </trkpt>
      <trkpt lat="43.43731" lon="6.03267">
        <ele>263.79998779297</ele>
        <time>2017-03-08T15:11:12Z</time>
      </trkpt>
      <trkpt lat="43.4373" lon="6.03268">
        <ele>263.60000610352</ele>
        <time>2017-03-08T15:11:17Z</time>
      </trkpt>
      <trkpt lat="43.43731" lon="6.0327">
        <ele>263.39999389648</ele>
        <time>2017-03-08T15:11:23Z</time>
      </trkpt>
      <trkpt lat="43.43731" lon="6.03271">
        <ele>263.39999389648</ele>
        <time>2017-03-08T15:11:24Z</time>
      </trkpt>
      <trkpt lat="43.43732" lon="6.03271">
        <ele>263</ele>
        <time>2017-03-08T15:11:27Z</time>
      </trkpt>
      <trkpt lat="43.43733" lon="6.03272">
        <ele>263</ele>
        <time>2017-03-08T15:11:37Z</time>
      </trkpt>
      <trkpt lat="43.43734" lon="6.03274">
        <ele>263.39999389648</ele>
        <time>2017-03-08T15:11:43Z</time>
      </trkpt>
      <trkpt lat="43.43734" lon="6.03275">
        <ele>263.20001220703</ele>
        <time>2017-03-08T15:11:47Z</time>
      </trkpt>
      <trkpt lat="43.43739" lon="6.03274">
        <ele>263.60000610352</ele>
        <time>2017-03-08T15:11:57Z</time>
      </trkpt>
      <trkpt lat="43.43739" lon="6.03274">
        <ele>263.60000610352</ele>
        <time>2017-03-08T15:12:03Z</time>
      </trkpt>
      <trkpt lat="43.43739" lon="6.03274">
        <ele>263.39999389648</ele>
        <time>2017-03-08T15:12:07Z</time>
      </trkpt>
      <trkpt lat="43.43737" lon="6.03272">
        <ele>263.39999389648</ele>
        <time>2017-03-08T15:12:17Z</time>
      </trkpt>
      <trkpt lat="43.43737" lon="6.0327">
        <ele>263.39999389648</ele>
        <time>2017-03-08T15:12:24Z</time>
      </trkpt>
      <trkpt lat="43.43737" lon="6.03269">
        <ele>263.39999389648</ele>
        <time>2017-03-08T15:12:27Z</time>
      </trkpt>
      <trkpt lat="43.43735" lon="6.03268">
        <ele>263.39999389648</ele>
        <time>2017-03-08T15:12:36Z</time>
      </trkpt>
      <trkpt lat="43.43734" lon="6.03268">
        <ele>263.39999389648</ele>
        <time>2017-03-08T15:12:37Z</time>
      </trkpt>
      <trkpt lat="43.4373" lon="6.03267">
        <ele>263.60000610352</ele>
        <time>2017-03-08T15:12:40Z</time>
      </trkpt>
      <trkpt lat="43.43727" lon="6.03264">
        <ele>264.20001220703</ele>
        <time>2017-03-08T15:12:47Z</time>
      </trkpt>
      <trkpt lat="43.43726" lon="6.03265">
        <ele>264.39999389648</ele>
        <time>2017-03-08T15:12:51Z</time>
      </trkpt>
      <trkpt lat="43.43724" lon="6.03264">
        <ele>263.79998779297</ele>
        <time>2017-03-08T15:12:57Z</time>
      </trkpt>
      <trkpt lat="43.43724" lon="6.03263">
        <ele>263.79998779297</ele>
        <time>2017-03-08T15:13:06Z</time>
      </trkpt>
      <trkpt lat="43.43723" lon="6.03263">
        <ele>263.79998779297</ele>
        <time>2017-03-08T15:13:07Z</time>
      </trkpt>
      <trkpt lat="43.43721" lon="6.03262">
        <ele>263.79998779297</ele>
        <time>2017-03-08T15:13:08Z</time>
      </trkpt>
      <trkpt lat="43.43719" lon="6.03255">
        <ele>263.60000610352</ele>
        <time>2017-03-08T15:13:11Z</time>
      </trkpt>
      <trkpt lat="43.43717" lon="6.03252">
        <ele>263.60000610352</ele>
        <time>2017-03-08T15:13:13Z</time>
      </trkpt>
      <trkpt lat="43.43716" lon="6.03249">
        <ele>263.79998779297</ele>
        <time>2017-03-08T15:13:15Z</time>
      </trkpt>
      <trkpt lat="43.43716" lon="6.03249">
        <ele>264.20001220703</ele>
        <time>2017-03-08T15:13:17Z</time>
      </trkpt>
      <trkpt lat="43.43716" lon="6.03249">
        <ele>264.60000610352</ele>
        <time>2017-03-08T15:13:24Z</time>
      </trkpt>
      <trkpt lat="43.43717" lon="6.03249">
        <ele>264.60000610352</ele>
        <time>2017-03-08T15:13:27Z</time>
      </trkpt>
      <trkpt lat="43.43717" lon="6.03247">
        <ele>264.60000610352</ele>
        <time>2017-03-08T15:13:30Z</time>
      </trkpt>
      <trkpt lat="43.43716" lon="6.03245">
        <ele>264.60000610352</ele>
        <time>2017-03-08T15:13:32Z</time>
      </trkpt>
      <trkpt lat="43.43715" lon="6.03244">
        <ele>264.79998779297</ele>
        <time>2017-03-08T15:13:34Z</time>
      </trkpt>
      <trkpt lat="43.43714" lon="6.03243">
        <ele>265</ele>
        <time>2017-03-08T15:13:37Z</time>
      </trkpt>
      <trkpt lat="43.43712" lon="6.03242">
        <ele>265</ele>
        <time>2017-03-08T15:13:47Z</time>
      </trkpt>
      <trkpt lat="43.4371" lon="6.03243">
        <ele>264.79998779297</ele>
        <time>2017-03-08T15:13:57Z</time>
      </trkpt>
      <trkpt lat="43.43707" lon="6.03241">
        <ele>265.39999389648</ele>
        <time>2017-03-08T15:14:07Z</time>
      </trkpt>
      <trkpt lat="43.43707" lon="6.03241">
        <ele>265.60000610352</ele>
        <time>2017-03-08T15:14:09Z</time>
      </trkpt>
      <trkpt lat="43.43706" lon="6.03241">
        <ele>265.79998779297</ele>
        <time>2017-03-08T15:14:12Z</time>
      </trkpt>
      <trkpt lat="43.43705" lon="6.03241">
        <ele>266</ele>
        <time>2017-03-08T15:14:13Z</time>
      </trkpt>
      <trkpt lat="43.43702" lon="6.03242">
        <ele>266.39999389648</ele>
        <time>2017-03-08T15:14:17Z</time>
      </trkpt>
      <trkpt lat="43.43701" lon="6.03242">
        <ele>266.39999389648</ele>
        <time>2017-03-08T15:14:18Z</time>
      </trkpt>
      <trkpt lat="43.437" lon="6.03242">
        <ele>266.60000610352</ele>
        <time>2017-03-08T15:14:19Z</time>
      </trkpt>
      <trkpt lat="43.437" lon="6.03242">
        <ele>266.79998779297</ele>
        <time>2017-03-08T15:14:21Z</time>
      </trkpt>
      <trkpt lat="43.437" lon="6.03243">
        <ele>266.79998779297</ele>
        <time>2017-03-08T15:14:22Z</time>
      </trkpt>
      <trkpt lat="43.437" lon="6.03242">
        <ele>267</ele>
        <time>2017-03-08T15:14:25Z</time>
      </trkpt>
      <trkpt lat="43.437" lon="6.03242">
        <ele>266.79998779297</ele>
        <time>2017-03-08T15:14:27Z</time>
      </trkpt>
      <trkpt lat="43.43699" lon="6.03243">
        <ele>266.79998779297</ele>
        <time>2017-03-08T15:14:30Z</time>
      </trkpt>
      <trkpt lat="43.43696" lon="6.03246">
        <ele>266.79998779297</ele>
        <time>2017-03-08T15:14:33Z</time>
      </trkpt>
      <trkpt lat="43.43692" lon="6.03251">
        <ele>267</ele>
        <time>2017-03-08T15:14:36Z</time>
      </trkpt>
      <trkpt lat="43.43692" lon="6.03252">
        <ele>267.20001220703</ele>
        <time>2017-03-08T15:14:37Z</time>
      </trkpt>
      <trkpt lat="43.43689" lon="6.03259">
        <ele>267.79998779297</ele>
        <time>2017-03-08T15:14:47Z</time>
      </trkpt>
      <trkpt lat="43.43689" lon="6.0326">
        <ele>267.60000610352</ele>
        <time>2017-03-08T15:14:57Z</time>
      </trkpt>
      <trkpt lat="43.43686" lon="6.0327">
        <ele>267.39999389648</ele>
        <time>2017-03-08T15:15:09Z</time>
      </trkpt>
      <trkpt lat="43.43678" lon="6.03291">
        <ele>267</ele>
        <time>2017-03-08T15:15:17Z</time>
      </trkpt>
      <trkpt lat="43.43674" lon="6.03296">
        <ele>266.20001220703</ele>
        <time>2017-03-08T15:15:22Z</time>
      </trkpt>
      <trkpt lat="43.43673" lon="6.03298">
        <ele>266.39999389648</ele>
        <time>2017-03-08T15:15:27Z</time>
      </trkpt>
      <trkpt lat="43.43673" lon="6.03299">
        <ele>266.39999389648</ele>
        <time>2017-03-08T15:15:37Z</time>
      </trkpt>
      <trkpt lat="43.43673" lon="6.03299">
        <ele>266.20001220703</ele>
        <time>2017-03-08T15:15:47Z</time>
      </trkpt>
      <trkpt lat="43.43672" lon="6.033">
        <ele>266.20001220703</ele>
        <time>2017-03-08T15:15:57Z</time>
      </trkpt>
      <trkpt lat="43.43668" lon="6.03304">
        <ele>266.20001220703</ele>
        <time>2017-03-08T15:16:04Z</time>
      </trkpt>
      <trkpt lat="43.43668" lon="6.03305">
        <ele>266.20001220703</ele>
        <time>2017-03-08T15:16:05Z</time>
      </trkpt>
      <trkpt lat="43.43666" lon="6.03307">
        <ele>266.20001220703</ele>
        <time>2017-03-08T15:16:07Z</time>
      </trkpt>
      <trkpt lat="43.43666" lon="6.03311">
        <ele>266</ele>
        <time>2017-03-08T15:16:13Z</time>
      </trkpt>
      <trkpt lat="43.43666" lon="6.03314">
        <ele>266</ele>
        <time>2017-03-08T15:16:15Z</time>
      </trkpt>
      <trkpt lat="43.43666" lon="6.03318">
        <ele>266</ele>
        <time>2017-03-08T15:16:17Z</time>
      </trkpt>
      <trkpt lat="43.43665" lon="6.0332">
        <ele>266</ele>
        <time>2017-03-08T15:16:18Z</time>
      </trkpt>
      <trkpt lat="43.4366" lon="6.03332">
        <ele>266.39999389648</ele>
        <time>2017-03-08T15:16:27Z</time>
      </trkpt>
      <trkpt lat="43.43659" lon="6.03333">
        <ele>266.60000610352</ele>
        <time>2017-03-08T15:16:37Z</time>
      </trkpt>
      <trkpt lat="43.43659" lon="6.03332">
        <ele>266.79998779297</ele>
        <time>2017-03-08T15:16:57Z</time>
      </trkpt>
      <trkpt lat="43.43659" lon="6.03332">
        <ele>266.20001220703</ele>
        <time>2017-03-08T15:17:07Z</time>
      </trkpt>
      <trkpt lat="43.43659" lon="6.03332">
        <ele>266.60000610352</ele>
        <time>2017-03-08T15:17:17Z</time>
      </trkpt>
      <trkpt lat="43.43659" lon="6.03332">
        <ele>266.39999389648</ele>
        <time>2017-03-08T15:17:37Z</time>
      </trkpt>
      <trkpt lat="43.43659" lon="6.03333">
        <ele>266.39999389648</ele>
        <time>2017-03-08T15:17:46Z</time>
      </trkpt>
      <trkpt lat="43.43659" lon="6.03333">
        <ele>266.39999389648</ele>
        <time>2017-03-08T15:17:47Z</time>
      </trkpt>
      <trkpt lat="43.43658" lon="6.03336">
        <ele>266.39999389648</ele>
        <time>2017-03-08T15:17:50Z</time>
      </trkpt>
      <trkpt lat="43.43656" lon="6.03339">
        <ele>266.79998779297</ele>
        <time>2017-03-08T15:17:52Z</time>
      </trkpt>
      <trkpt lat="43.43653" lon="6.03343">
        <ele>267.20001220703</ele>
        <time>2017-03-08T15:17:55Z</time>
      </trkpt>
      <trkpt lat="43.4365" lon="6.03348">
        <ele>267.20001220703</ele>
        <time>2017-03-08T15:17:57Z</time>
      </trkpt>
      <trkpt lat="43.43638" lon="6.03373">
        <ele>267</ele>
        <time>2017-03-08T15:18:07Z</time>
      </trkpt>
      <trkpt lat="43.43629" lon="6.03404">
        <ele>267.20001220703</ele>
        <time>2017-03-08T15:18:17Z</time>
      </trkpt>
      <trkpt lat="43.43629" lon="6.03418">
        <ele>268</ele>
        <time>2017-03-08T15:18:21Z</time>
      </trkpt>
      <trkpt lat="43.43628" lon="6.03445">
        <ele>267.60000610352</ele>
        <time>2017-03-08T15:18:27Z</time>
      </trkpt>
      <trkpt lat="43.43626" lon="6.03455">
        <ele>267.20001220703</ele>
        <time>2017-03-08T15:18:29Z</time>
      </trkpt>
      <trkpt lat="43.4362" lon="6.03472">
        <ele>266.60000610352</ele>
        <time>2017-03-08T15:18:32Z</time>
      </trkpt>
      <trkpt lat="43.43616" lon="6.03483">
        <ele>266.20001220703</ele>
        <time>2017-03-08T15:18:34Z</time>
      </trkpt>
      <trkpt lat="43.43614" lon="6.03501">
        <ele>265.79998779297</ele>
        <time>2017-03-08T15:18:37Z</time>
      </trkpt>
      <trkpt lat="43.43612" lon="6.03513">
        <ele>265.60000610352</ele>
        <time>2017-03-08T15:18:39Z</time>
      </trkpt>
      <trkpt lat="43.43607" lon="6.03528">
        <ele>265.20001220703</ele>
        <time>2017-03-08T15:18:42Z</time>
      </trkpt>
      <trkpt lat="43.43588" lon="6.03574">
        <ele>264.60000610352</ele>
        <time>2017-03-08T15:18:51Z</time>
      </trkpt>
      <trkpt lat="43.43585" lon="6.03604">
        <ele>264.60000610352</ele>
        <time>2017-03-08T15:18:57Z</time>
      </trkpt>
      <trkpt lat="43.43584" lon="6.03644">
        <ele>264.79998779297</ele>
        <time>2017-03-08T15:19:07Z</time>
      </trkpt>
      <trkpt lat="43.43579" lon="6.03674">
        <ele>265.39999389648</ele>
        <time>2017-03-08T15:19:17Z</time>
      </trkpt>
      <trkpt lat="43.43574" lon="6.03696">
        <ele>265.20001220703</ele>
        <time>2017-03-08T15:19:27Z</time>
      </trkpt>
      <trkpt lat="43.43573" lon="6.037">
        <ele>265.39999389648</ele>
        <time>2017-03-08T15:19:34Z</time>
      </trkpt>
      <trkpt lat="43.43573" lon="6.03708">
        <ele>265.20001220703</ele>
        <time>2017-03-08T15:19:37Z</time>
      </trkpt>
      <trkpt lat="43.43574" lon="6.03746">
        <ele>264.79998779297</ele>
        <time>2017-03-08T15:19:47Z</time>
      </trkpt>
      <trkpt lat="43.43576" lon="6.03765">
        <ele>265.60000610352</ele>
        <time>2017-03-08T15:19:56Z</time>
      </trkpt>
      <trkpt lat="43.43576" lon="6.03766">
        <ele>265.79998779297</ele>
        <time>2017-03-08T15:19:57Z</time>
      </trkpt>
      <trkpt lat="43.43573" lon="6.03773">
        <ele>266.20001220703</ele>
        <time>2017-03-08T15:20:03Z</time>
      </trkpt>
      <trkpt lat="43.43573" lon="6.03779">
        <ele>266.60000610352</ele>
        <time>2017-03-08T15:20:07Z</time>
      </trkpt>
      <trkpt lat="43.43573" lon="6.03781">
        <ele>266.60000610352</ele>
        <time>2017-03-08T15:20:08Z</time>
      </trkpt>
      <trkpt lat="43.43575" lon="6.03792">
        <ele>266.79998779297</ele>
        <time>2017-03-08T15:20:14Z</time>
      </trkpt>
      <trkpt lat="43.43576" lon="6.03797">
        <ele>267.20001220703</ele>
        <time>2017-03-08T15:20:17Z</time>
      </trkpt>
      <trkpt lat="43.43588" lon="6.03817">
        <ele>266.20001220703</ele>
        <time>2017-03-08T15:20:24Z</time>
      </trkpt>
      <trkpt lat="43.43594" lon="6.03829">
        <ele>266</ele>
        <time>2017-03-08T15:20:27Z</time>
      </trkpt>
      <trkpt lat="43.43597" lon="6.03847">
        <ele>265.20001220703</ele>
        <time>2017-03-08T15:20:31Z</time>
      </trkpt>
      <trkpt lat="43.43597" lon="6.03868">
        <ele>265.20001220703</ele>
        <time>2017-03-08T15:20:37Z</time>
      </trkpt>
      <trkpt lat="43.436" lon="6.03894">
        <ele>264</ele>
        <time>2017-03-08T15:20:44Z</time>
      </trkpt>
      <trkpt lat="43.43601" lon="6.03899">
        <ele>263.79998779297</ele>
        <time>2017-03-08T15:20:45Z</time>
      </trkpt>
      <trkpt lat="43.43605" lon="6.0391">
        <ele>263.39999389648</ele>
        <time>2017-03-08T15:20:47Z</time>
      </trkpt>
      <trkpt lat="43.43609" lon="6.03921">
        <ele>263</ele>
        <time>2017-03-08T15:20:49Z</time>
      </trkpt>
      <trkpt lat="43.43613" lon="6.03937">
        <ele>262.20001220703</ele>
        <time>2017-03-08T15:20:52Z</time>
      </trkpt>
      <trkpt lat="43.43615" lon="6.03944">
        <ele>262</ele>
        <time>2017-03-08T15:20:53Z</time>
      </trkpt>
      <trkpt lat="43.43615" lon="6.03956">
        <ele>261.79998779297</ele>
        <time>2017-03-08T15:20:55Z</time>
      </trkpt>
      <trkpt lat="43.43614" lon="6.03966">
        <ele>262.39999389648</ele>
        <time>2017-03-08T15:20:57Z</time>
      </trkpt>
      <trkpt lat="43.43613" lon="6.03971">
        <ele>263</ele>
        <time>2017-03-08T15:20:58Z</time>
      </trkpt>
      <trkpt lat="43.43612" lon="6.03978">
        <ele>264</ele>
        <time>2017-03-08T15:21:00Z</time>
      </trkpt>
      <trkpt lat="43.43609" lon="6.03986">
        <ele>264.79998779297</ele>
        <time>2017-03-08T15:21:02Z</time>
      </trkpt>
      <trkpt lat="43.43608" lon="6.03989">
        <ele>265.20001220703</ele>
        <time>2017-03-08T15:21:03Z</time>
      </trkpt>
      <trkpt lat="43.43604" lon="6.04003">
        <ele>266.20001220703</ele>
        <time>2017-03-08T15:21:07Z</time>
      </trkpt>
      <trkpt lat="43.43601" lon="6.04009">
        <ele>266</ele>
        <time>2017-03-08T15:21:10Z</time>
      </trkpt>
      <trkpt lat="43.43592" lon="6.04028">
        <ele>265.20001220703</ele>
        <time>2017-03-08T15:21:16Z</time>
      </trkpt>
      <trkpt lat="43.4359" lon="6.04032">
        <ele>265</ele>
        <time>2017-03-08T15:21:17Z</time>
      </trkpt>
      <trkpt lat="43.43582" lon="6.04046">
        <ele>264</ele>
        <time>2017-03-08T15:21:20Z</time>
      </trkpt>
      <trkpt lat="43.43572" lon="6.04063">
        <ele>262.60000610352</ele>
        <time>2017-03-08T15:21:23Z</time>
      </trkpt>
      <trkpt lat="43.43567" lon="6.04077">
        <ele>262</ele>
        <time>2017-03-08T15:21:25Z</time>
      </trkpt>
      <trkpt lat="43.43563" lon="6.04092">
        <ele>261.39999389648</ele>
        <time>2017-03-08T15:21:27Z</time>
      </trkpt>
      <trkpt lat="43.4356" lon="6.04106">
        <ele>261.20001220703</ele>
        <time>2017-03-08T15:21:29Z</time>
      </trkpt>
      <trkpt lat="43.43544" lon="6.04138">
        <ele>261.79998779297</ele>
        <time>2017-03-08T15:21:37Z</time>
      </trkpt>
      <trkpt lat="43.43536" lon="6.04159">
        <ele>262</ele>
        <time>2017-03-08T15:21:41Z</time>
      </trkpt>
      <trkpt lat="43.43536" lon="6.04171">
        <ele>261.39999389648</ele>
        <time>2017-03-08T15:21:43Z</time>
      </trkpt>
      <trkpt lat="43.43539" lon="6.04186">
        <ele>261</ele>
        <time>2017-03-08T15:21:45Z</time>
      </trkpt>
      <trkpt lat="43.43542" lon="6.04202">
        <ele>260.20001220703</ele>
        <time>2017-03-08T15:21:47Z</time>
      </trkpt>
      <trkpt lat="43.43539" lon="6.04216">
        <ele>259.39999389648</ele>
        <time>2017-03-08T15:21:49Z</time>
      </trkpt>
      <trkpt lat="43.4353" lon="6.04233">
        <ele>258.39999389648</ele>
        <time>2017-03-08T15:21:52Z</time>
      </trkpt>
      <trkpt lat="43.43522" lon="6.04241">
        <ele>258.79998779297</ele>
        <time>2017-03-08T15:21:54Z</time>
      </trkpt>
      <trkpt lat="43.43514" lon="6.04247">
        <ele>259.20001220703</ele>
        <time>2017-03-08T15:21:56Z</time>
      </trkpt>
      <trkpt lat="43.43511" lon="6.04251">
        <ele>259.60000610352</ele>
        <time>2017-03-08T15:21:57Z</time>
      </trkpt>
      <trkpt lat="43.43508" lon="6.04256">
        <ele>259.79998779297</ele>
        <time>2017-03-08T15:21:58Z</time>
      </trkpt>
      <trkpt lat="43.43494" lon="6.04307">
        <ele>260.20001220703</ele>
        <time>2017-03-08T15:22:07Z</time>
      </trkpt>
      <trkpt lat="43.43491" lon="6.0434">
        <ele>261</ele>
        <time>2017-03-08T15:22:13Z</time>
      </trkpt>
      <trkpt lat="43.43489" lon="6.04361">
        <ele>261.39999389648</ele>
        <time>2017-03-08T15:22:17Z</time>
      </trkpt>
      <trkpt lat="43.43487" lon="6.04409">
        <ele>261.20001220703</ele>
        <time>2017-03-08T15:22:25Z</time>
      </trkpt>
      <trkpt lat="43.43486" lon="6.04422">
        <ele>261</ele>
        <time>2017-03-08T15:22:27Z</time>
      </trkpt>
      <trkpt lat="43.43484" lon="6.04434">
        <ele>261</ele>
        <time>2017-03-08T15:22:29Z</time>
      </trkpt>
      <trkpt lat="43.43484" lon="6.04447">
        <ele>260.79998779297</ele>
        <time>2017-03-08T15:22:31Z</time>
      </trkpt>
      <trkpt lat="43.43489" lon="6.04463">
        <ele>261</ele>
        <time>2017-03-08T15:22:34Z</time>
      </trkpt>
      <trkpt lat="43.43491" lon="6.0448">
        <ele>261</ele>
        <time>2017-03-08T15:22:37Z</time>
      </trkpt>
      <trkpt lat="43.43491" lon="6.04485">
        <ele>261.20001220703</ele>
        <time>2017-03-08T15:22:38Z</time>
      </trkpt>
      <trkpt lat="43.43477" lon="6.04534">
        <ele>261</ele>
        <time>2017-03-08T15:22:47Z</time>
      </trkpt>
      <trkpt lat="43.43467" lon="6.0456">
        <ele>261.39999389648</ele>
        <time>2017-03-08T15:22:52Z</time>
      </trkpt>
      <trkpt lat="43.43461" lon="6.04589">
        <ele>261.60000610352</ele>
        <time>2017-03-08T15:22:57Z</time>
      </trkpt>
      <trkpt lat="43.43451" lon="6.04657">
        <ele>260</ele>
        <time>2017-03-08T15:23:07Z</time>
      </trkpt>
      <trkpt lat="43.43449" lon="6.04664">
        <ele>259.60000610352</ele>
        <time>2017-03-08T15:23:08Z</time>
      </trkpt>
      <trkpt lat="43.43443" lon="6.04711">
        <ele>258.79998779297</ele>
        <time>2017-03-08T15:23:15Z</time>
      </trkpt>
      <trkpt lat="43.43442" lon="6.04724">
        <ele>258.79998779297</ele>
        <time>2017-03-08T15:23:17Z</time>
      </trkpt>
      <trkpt lat="43.4344" lon="6.04758">
        <ele>258.39999389648</ele>
        <time>2017-03-08T15:23:22Z</time>
      </trkpt>
      <trkpt lat="43.43438" lon="6.04795">
        <ele>257.39999389648</ele>
        <time>2017-03-08T15:23:27Z</time>
      </trkpt>
      <trkpt lat="43.43436" lon="6.04825">
        <ele>256.60000610352</ele>
        <time>2017-03-08T15:23:31Z</time>
      </trkpt>
      <trkpt lat="43.43434" lon="6.04867">
        <ele>256.60000610352</ele>
        <time>2017-03-08T15:23:37Z</time>
      </trkpt>
      <trkpt lat="43.43433" lon="6.04896">
        <ele>256.60000610352</ele>
        <time>2017-03-08T15:23:41Z</time>
      </trkpt>
      <trkpt lat="43.43432" lon="6.04911">
        <ele>256.39999389648</ele>
        <time>2017-03-08T15:23:43Z</time>
      </trkpt>
      <trkpt lat="43.43429" lon="6.0494">
        <ele>255.39999389648</ele>
        <time>2017-03-08T15:23:47Z</time>
      </trkpt>
      <trkpt lat="43.43428" lon="6.04959">
        <ele>255.39999389648</ele>
        <time>2017-03-08T15:23:50Z</time>
      </trkpt>
      <trkpt lat="43.43422" lon="6.04988">
        <ele>256</ele>
        <time>2017-03-08T15:23:55Z</time>
      </trkpt>
      <trkpt lat="43.43416" lon="6.05021">
        <ele>256.79998779297</ele>
        <time>2017-03-08T15:24:01Z</time>
      </trkpt>
      <trkpt lat="43.43414" lon="6.05036">
        <ele>257.20001220703</ele>
        <time>2017-03-08T15:24:04Z</time>
      </trkpt>
      <trkpt lat="43.43413" lon="6.05041">
        <ele>257.39999389648</ele>
        <time>2017-03-08T15:24:05Z</time>
      </trkpt>
      <trkpt lat="43.43411" lon="6.0505">
        <ele>257.79998779297</ele>
        <time>2017-03-08T15:24:07Z</time>
      </trkpt>
      <trkpt lat="43.4341" lon="6.05058">
        <ele>258.39999389648</ele>
        <time>2017-03-08T15:24:09Z</time>
      </trkpt>
      <trkpt lat="43.43407" lon="6.05075">
        <ele>259.60000610352</ele>
        <time>2017-03-08T15:24:14Z</time>
      </trkpt>
      <trkpt lat="43.43405" lon="6.05085">
        <ele>260.39999389648</ele>
        <time>2017-03-08T15:24:17Z</time>
      </trkpt>
      <trkpt lat="43.43402" lon="6.05092">
        <ele>260.79998779297</ele>
        <time>2017-03-08T15:24:19Z</time>
      </trkpt>
      <trkpt lat="43.43398" lon="6.05107">
        <ele>261</ele>
        <time>2017-03-08T15:24:23Z</time>
      </trkpt>
      <trkpt lat="43.43392" lon="6.0512">
        <ele>261</ele>
        <time>2017-03-08T15:24:27Z</time>
      </trkpt>
      <trkpt lat="43.43383" lon="6.05148">
        <ele>260</ele>
        <time>2017-03-08T15:24:33Z</time>
      </trkpt>
      <trkpt lat="43.43379" lon="6.0516">
        <ele>259.60000610352</ele>
        <time>2017-03-08T15:24:35Z</time>
      </trkpt>
      <trkpt lat="43.43374" lon="6.05174">
        <ele>259.20001220703</ele>
        <time>2017-03-08T15:24:37Z</time>
      </trkpt>
      <trkpt lat="43.43367" lon="6.05194">
        <ele>258.39999389648</ele>
        <time>2017-03-08T15:24:40Z</time>
      </trkpt>
      <trkpt lat="43.43357" lon="6.05224">
        <ele>257.39999389648</ele>
        <time>2017-03-08T15:24:44Z</time>
      </trkpt>
      <trkpt lat="43.43354" lon="6.0523">
        <ele>257</ele>
        <time>2017-03-08T15:24:45Z</time>
      </trkpt>
      <trkpt lat="43.4335" lon="6.0524">
        <ele>256.60000610352</ele>
        <time>2017-03-08T15:24:47Z</time>
      </trkpt>
      <trkpt lat="43.43341" lon="6.05263">
        <ele>256.79998779297</ele>
        <time>2017-03-08T15:24:52Z</time>
      </trkpt>
      <trkpt lat="43.43321" lon="6.05323">
        <ele>257.79998779297</ele>
        <time>2017-03-08T15:25:05Z</time>
      </trkpt>
      <trkpt lat="43.43317" lon="6.05332">
        <ele>258</ele>
        <time>2017-03-08T15:25:07Z</time>
      </trkpt>
      <trkpt lat="43.43312" lon="6.0534">
        <ele>258.39999389648</ele>
        <time>2017-03-08T15:25:09Z</time>
      </trkpt>
      <trkpt lat="43.433" lon="6.05369">
        <ele>259</ele>
        <time>2017-03-08T15:25:17Z</time>
      </trkpt>
      <trkpt lat="43.43288" lon="6.05399">
        <ele>258.20001220703</ele>
        <time>2017-03-08T15:25:24Z</time>
      </trkpt>
      <trkpt lat="43.43283" lon="6.05411">
        <ele>258.20001220703</ele>
        <time>2017-03-08T15:25:27Z</time>
      </trkpt>
      <trkpt lat="43.4327" lon="6.05444">
        <ele>258.39999389648</ele>
        <time>2017-03-08T15:25:35Z</time>
      </trkpt>
      <trkpt lat="43.43266" lon="6.05453">
        <ele>258.60000610352</ele>
        <time>2017-03-08T15:25:37Z</time>
      </trkpt>
      <trkpt lat="43.43261" lon="6.05462">
        <ele>259.39999389648</ele>
        <time>2017-03-08T15:25:40Z</time>
      </trkpt>
      <trkpt lat="43.43257" lon="6.05475">
        <ele>260.60000610352</ele>
        <time>2017-03-08T15:25:44Z</time>
      </trkpt>
      <trkpt lat="43.43254" lon="6.05483">
        <ele>261.20001220703</ele>
        <time>2017-03-08T15:25:47Z</time>
      </trkpt>
      <trkpt lat="43.43253" lon="6.05489">
        <ele>261.60000610352</ele>
        <time>2017-03-08T15:25:49Z</time>
      </trkpt>
      <trkpt lat="43.4325" lon="6.05501">
        <ele>262.39999389648</ele>
        <time>2017-03-08T15:25:53Z</time>
      </trkpt>
      <trkpt lat="43.4325" lon="6.05503">
        <ele>262.60000610352</ele>
        <time>2017-03-08T15:25:54Z</time>
      </trkpt>
      <trkpt lat="43.43247" lon="6.0551">
        <ele>263</ele>
        <time>2017-03-08T15:25:57Z</time>
      </trkpt>
      <trkpt lat="43.43243" lon="6.05531">
        <ele>263.60000610352</ele>
        <time>2017-03-08T15:26:04Z</time>
      </trkpt>
      <trkpt lat="43.4324" lon="6.05541">
        <ele>263.79998779297</ele>
        <time>2017-03-08T15:26:07Z</time>
      </trkpt>
      <trkpt lat="43.43232" lon="6.05578">
        <ele>264.39999389648</ele>
        <time>2017-03-08T15:26:17Z</time>
      </trkpt>
      <trkpt lat="43.43229" lon="6.05608">
        <ele>264.60000610352</ele>
        <time>2017-03-08T15:26:24Z</time>
      </trkpt>
      <trkpt lat="43.43227" lon="6.05621">
        <ele>265</ele>
        <time>2017-03-08T15:26:27Z</time>
      </trkpt>
      <trkpt lat="43.43221" lon="6.05668">
        <ele>265.39999389648</ele>
        <time>2017-03-08T15:26:37Z</time>
      </trkpt>
      <trkpt lat="43.43219" lon="6.05686">
        <ele>265.79998779297</ele>
        <time>2017-03-08T15:26:41Z</time>
      </trkpt>
      <trkpt lat="43.43216" lon="6.05713">
        <ele>265.79998779297</ele>
        <time>2017-03-08T15:26:47Z</time>
      </trkpt>
      <trkpt lat="43.43213" lon="6.05768">
        <ele>265.79998779297</ele>
        <time>2017-03-08T15:26:57Z</time>
      </trkpt>
      <trkpt lat="43.43212" lon="6.05779">
        <ele>265.60000610352</ele>
        <time>2017-03-08T15:26:59Z</time>
      </trkpt>
      <trkpt lat="43.43211" lon="6.05785">
        <ele>265.39999389648</ele>
        <time>2017-03-08T15:27:00Z</time>
      </trkpt>
      <trkpt lat="43.43208" lon="6.05803">
        <ele>265</ele>
        <time>2017-03-08T15:27:03Z</time>
      </trkpt>
      <trkpt lat="43.43204" lon="6.05827">
        <ele>264.79998779297</ele>
        <time>2017-03-08T15:27:07Z</time>
      </trkpt>
      <trkpt lat="43.43201" lon="6.05856">
        <ele>264.60000610352</ele>
        <time>2017-03-08T15:27:12Z</time>
      </trkpt>
      <trkpt lat="43.43195" lon="6.05883">
        <ele>264.60000610352</ele>
        <time>2017-03-08T15:27:17Z</time>
      </trkpt>
      <trkpt lat="43.43186" lon="6.0591">
        <ele>264.60000610352</ele>
        <time>2017-03-08T15:27:24Z</time>
      </trkpt>
      <trkpt lat="43.43184" lon="6.0592">
        <ele>264.39999389648</ele>
        <time>2017-03-08T15:27:27Z</time>
      </trkpt>
      <trkpt lat="43.43172" lon="6.05963">
        <ele>264.60000610352</ele>
        <time>2017-03-08T15:27:36Z</time>
      </trkpt>
      <trkpt lat="43.43163" lon="6.06002">
        <ele>264.60000610352</ele>
        <time>2017-03-08T15:27:44Z</time>
      </trkpt>
      <trkpt lat="43.4316" lon="6.06018">
        <ele>264.60000610352</ele>
        <time>2017-03-08T15:27:47Z</time>
      </trkpt>
      <trkpt lat="43.43155" lon="6.06043">
        <ele>264.79998779297</ele>
        <time>2017-03-08T15:27:52Z</time>
      </trkpt>
      <trkpt lat="43.43151" lon="6.06062">
        <ele>265.79998779297</ele>
        <time>2017-03-08T15:27:56Z</time>
      </trkpt>
      <trkpt lat="43.43141" lon="6.06105">
        <ele>265.79998779297</ele>
        <time>2017-03-08T15:28:05Z</time>
      </trkpt>
      <trkpt lat="43.43139" lon="6.06115">
        <ele>265.79998779297</ele>
        <time>2017-03-08T15:28:07Z</time>
      </trkpt>
      <trkpt lat="43.43135" lon="6.0614">
        <ele>264.39999389648</ele>
        <time>2017-03-08T15:28:12Z</time>
      </trkpt>
      <trkpt lat="43.43132" lon="6.0616">
        <ele>264.20001220703</ele>
        <time>2017-03-08T15:28:16Z</time>
      </trkpt>
      <trkpt lat="43.43131" lon="6.06165">
        <ele>264.20001220703</ele>
        <time>2017-03-08T15:28:17Z</time>
      </trkpt>
      <trkpt lat="43.43129" lon="6.06216">
        <ele>264</ele>
        <time>2017-03-08T15:28:27Z</time>
      </trkpt>
      <trkpt lat="43.4313" lon="6.06238">
        <ele>263</ele>
        <time>2017-03-08T15:28:30Z</time>
      </trkpt>
      <trkpt lat="43.43132" lon="6.0627">
        <ele>262</ele>
        <time>2017-03-08T15:28:34Z</time>
      </trkpt>
      <trkpt lat="43.43133" lon="6.06276">
        <ele>261.79998779297</ele>
        <time>2017-03-08T15:28:35Z</time>
      </trkpt>
      <trkpt lat="43.43134" lon="6.06282">
        <ele>261.60000610352</ele>
        <time>2017-03-08T15:28:36Z</time>
      </trkpt>
      <trkpt lat="43.43134" lon="6.06288">
        <ele>261.60000610352</ele>
        <time>2017-03-08T15:28:37Z</time>
      </trkpt>
      <trkpt lat="43.43135" lon="6.063">
        <ele>261.39999389648</ele>
        <time>2017-03-08T15:28:39Z</time>
      </trkpt>
      <trkpt lat="43.4314" lon="6.06336">
        <ele>260.79998779297</ele>
        <time>2017-03-08T15:28:44Z</time>
      </trkpt>
      <trkpt lat="43.43142" lon="6.06358">
        <ele>259.79998779297</ele>
        <time>2017-03-08T15:28:47Z</time>
      </trkpt>
      <trkpt lat="43.43142" lon="6.06367">
        <ele>259.20001220703</ele>
        <time>2017-03-08T15:28:48Z</time>
      </trkpt>
      <trkpt lat="43.43143" lon="6.06375">
        <ele>258.79998779297</ele>
        <time>2017-03-08T15:28:49Z</time>
      </trkpt>
      <trkpt lat="43.43145" lon="6.06395">
        <ele>258</ele>
        <time>2017-03-08T15:28:52Z</time>
      </trkpt>
      <trkpt lat="43.43148" lon="6.06414">
        <ele>257.20001220703</ele>
        <time>2017-03-08T15:28:57Z</time>
      </trkpt>
      <trkpt lat="43.43149" lon="6.06424">
        <ele>257</ele>
        <time>2017-03-08T15:28:59Z</time>
      </trkpt>
      <trkpt lat="43.43155" lon="6.06471">
        <ele>256.20001220703</ele>
        <time>2017-03-08T15:29:07Z</time>
      </trkpt>
      <trkpt lat="43.43145" lon="6.06484">
        <ele>257.60000610352</ele>
        <time>2017-03-08T15:29:14Z</time>
      </trkpt>
      <trkpt lat="43.43142" lon="6.06484">
        <ele>258</ele>
        <time>2017-03-08T15:29:16Z</time>
      </trkpt>
      <trkpt lat="43.4314" lon="6.06484">
        <ele>258.20001220703</ele>
        <time>2017-03-08T15:29:17Z</time>
      </trkpt>
      <trkpt lat="43.43137" lon="6.06483">
        <ele>258.60000610352</ele>
        <time>2017-03-08T15:29:19Z</time>
      </trkpt>
      <trkpt lat="43.43134" lon="6.06482">
        <ele>259</ele>
        <time>2017-03-08T15:29:21Z</time>
      </trkpt>
      <trkpt lat="43.4313" lon="6.06484">
        <ele>259.20001220703</ele>
        <time>2017-03-08T15:29:24Z</time>
      </trkpt>
      <trkpt lat="43.43127" lon="6.06484">
        <ele>259.60000610352</ele>
        <time>2017-03-08T15:29:26Z</time>
      </trkpt>
      <trkpt lat="43.43126" lon="6.06484">
        <ele>259.79998779297</ele>
        <time>2017-03-08T15:29:27Z</time>
      </trkpt>
      <trkpt lat="43.43123" lon="6.06484">
        <ele>260.39999389648</ele>
        <time>2017-03-08T15:29:29Z</time>
      </trkpt>
      <trkpt lat="43.43121" lon="6.06482">
        <ele>261.39999389648</ele>
        <time>2017-03-08T15:29:32Z</time>
      </trkpt>
      <trkpt lat="43.4312" lon="6.06481">
        <ele>261.39999389648</ele>
        <time>2017-03-08T15:29:33Z</time>
      </trkpt>
      <trkpt lat="43.43119" lon="6.06474">
        <ele>262.39999389648</ele>
        <time>2017-03-08T15:29:37Z</time>
      </trkpt>
      <trkpt lat="43.43119" lon="6.06471">
        <ele>262.60000610352</ele>
        <time>2017-03-08T15:29:38Z</time>
      </trkpt>
      <trkpt lat="43.43118" lon="6.06455">
        <ele>263.79998779297</ele>
        <time>2017-03-08T15:29:46Z</time>
      </trkpt>
      <trkpt lat="43.43117" lon="6.06453">
        <ele>263.79998779297</ele>
        <time>2017-03-08T15:29:47Z</time>
      </trkpt>
      <trkpt lat="43.43113" lon="6.06443">
        <ele>264.39999389648</ele>
        <time>2017-03-08T15:29:53Z</time>
      </trkpt>
      <trkpt lat="43.4311" lon="6.06437">
        <ele>265</ele>
        <time>2017-03-08T15:29:57Z</time>
      </trkpt>
      <trkpt lat="43.43103" lon="6.06427">
        <ele>266</ele>
        <time>2017-03-08T15:30:04Z</time>
      </trkpt>
      <trkpt lat="43.43101" lon="6.06422">
        <ele>266</ele>
        <time>2017-03-08T15:30:07Z</time>
      </trkpt>
      <trkpt lat="43.43096" lon="6.06402">
        <ele>266.79998779297</ele>
        <time>2017-03-08T15:30:17Z</time>
      </trkpt>
      <trkpt lat="43.43095" lon="6.06398">
        <ele>267</ele>
        <time>2017-03-08T15:30:19Z</time>
      </trkpt>
      <trkpt lat="43.4309" lon="6.06386">
        <ele>267.20001220703</ele>
        <time>2017-03-08T15:30:26Z</time>
      </trkpt>
      <trkpt lat="43.43089" lon="6.06384">
        <ele>267.20001220703</ele>
        <time>2017-03-08T15:30:27Z</time>
      </trkpt>
      <trkpt lat="43.43085" lon="6.0637">
        <ele>268</ele>
        <time>2017-03-08T15:30:33Z</time>
      </trkpt>
      <trkpt lat="43.43082" lon="6.06362">
        <ele>268.20001220703</ele>
        <time>2017-03-08T15:30:37Z</time>
      </trkpt>
      <trkpt lat="43.43076" lon="6.06355">
        <ele>268.20001220703</ele>
        <time>2017-03-08T15:30:42Z</time>
      </trkpt>
      <trkpt lat="43.43073" lon="6.06354">
        <ele>268.20001220703</ele>
        <time>2017-03-08T15:30:44Z</time>
      </trkpt>
      <trkpt lat="43.43068" lon="6.06352">
        <ele>267.79998779297</ele>
        <time>2017-03-08T15:30:47Z</time>
      </trkpt>
      <trkpt lat="43.43058" lon="6.06351">
        <ele>268</ele>
        <time>2017-03-08T15:30:52Z</time>
      </trkpt>
      <trkpt lat="43.43051" lon="6.06349">
        <ele>268.20001220703</ele>
        <time>2017-03-08T15:30:56Z</time>
      </trkpt>
      <trkpt lat="43.4305" lon="6.06348">
        <ele>268.39999389648</ele>
        <time>2017-03-08T15:30:57Z</time>
      </trkpt>
      <trkpt lat="43.43044" lon="6.06345">
        <ele>269</ele>
        <time>2017-03-08T15:31:01Z</time>
      </trkpt>
      <trkpt lat="43.43037" lon="6.06333">
        <ele>269.20001220703</ele>
        <time>2017-03-08T15:31:07Z</time>
      </trkpt>
      <trkpt lat="43.4303" lon="6.06315">
        <ele>269.39999389648</ele>
        <time>2017-03-08T15:31:14Z</time>
      </trkpt>
      <trkpt lat="43.43026" lon="6.06314">
        <ele>269.79998779297</ele>
        <time>2017-03-08T15:31:17Z</time>
      </trkpt>
      <trkpt lat="43.43014" lon="6.06314">
        <ele>270</ele>
        <time>2017-03-08T15:31:22Z</time>
      </trkpt>
      <trkpt lat="43.43005" lon="6.06314">
        <ele>270.39999389648</ele>
        <time>2017-03-08T15:31:27Z</time>
      </trkpt>
      <trkpt lat="43.42995" lon="6.06314">
        <ele>270.79998779297</ele>
        <time>2017-03-08T15:31:32Z</time>
      </trkpt>
      <trkpt lat="43.42986" lon="6.06308">
        <ele>271.20001220703</ele>
        <time>2017-03-08T15:31:37Z</time>
      </trkpt>
      <trkpt lat="43.42968" lon="6.06308">
        <ele>272.20001220703</ele>
        <time>2017-03-08T15:31:46Z</time>
      </trkpt>
      <trkpt lat="43.42967" lon="6.06307">
        <ele>272.39999389648</ele>
        <time>2017-03-08T15:31:47Z</time>
      </trkpt>
      <trkpt lat="43.4296" lon="6.06304">
        <ele>273</ele>
        <time>2017-03-08T15:31:52Z</time>
      </trkpt>
      <trkpt lat="43.42954" lon="6.06296">
        <ele>273.60000610352</ele>
        <time>2017-03-08T15:31:57Z</time>
      </trkpt>
      <trkpt lat="43.42946" lon="6.06284">
        <ele>274.39999389648</ele>
        <time>2017-03-08T15:32:04Z</time>
      </trkpt>
      <trkpt lat="43.42944" lon="6.06283">
        <ele>274.39999389648</ele>
        <time>2017-03-08T15:32:05Z</time>
      </trkpt>
      <trkpt lat="43.42942" lon="6.06282">
        <ele>274.79998779297</ele>
        <time>2017-03-08T15:32:07Z</time>
      </trkpt>
      <trkpt lat="43.42935" lon="6.0628">
        <ele>275.60000610352</ele>
        <time>2017-03-08T15:32:12Z</time>
      </trkpt>
      <trkpt lat="43.42933" lon="6.0628">
        <ele>276.20001220703</ele>
        <time>2017-03-08T15:32:16Z</time>
      </trkpt>
      <trkpt lat="43.42931" lon="6.0628">
        <ele>276.20001220703</ele>
        <time>2017-03-08T15:32:17Z</time>
      </trkpt>
      <trkpt lat="43.42927" lon="6.06285">
        <ele>276.39999389648</ele>
        <time>2017-03-08T15:32:26Z</time>
      </trkpt>
      <trkpt lat="43.42927" lon="6.06287">
        <ele>276.39999389648</ele>
        <time>2017-03-08T15:32:27Z</time>
      </trkpt>
      <trkpt lat="43.42927" lon="6.06288">
        <ele>276.60000610352</ele>
        <time>2017-03-08T15:32:30Z</time>
      </trkpt>
      <trkpt lat="43.42927" lon="6.06288">
        <ele>276.60000610352</ele>
        <time>2017-03-08T15:32:31Z</time>
      </trkpt>
      <trkpt lat="43.42924" lon="6.06289">
        <ele>277.20001220703</ele>
        <time>2017-03-08T15:32:37Z</time>
      </trkpt>
      <trkpt lat="43.42921" lon="6.06293">
        <ele>277.60000610352</ele>
        <time>2017-03-08T15:32:44Z</time>
      </trkpt>
      <trkpt lat="43.4292" lon="6.06293">
        <ele>277.79998779297</ele>
        <time>2017-03-08T15:32:47Z</time>
      </trkpt>
      <trkpt lat="43.4292" lon="6.06292">
        <ele>278.20001220703</ele>
        <time>2017-03-08T15:32:51Z</time>
      </trkpt>
      <trkpt lat="43.4292" lon="6.06292">
        <ele>278.20001220703</ele>
        <time>2017-03-08T15:32:57Z</time>
      </trkpt>
      <trkpt lat="43.4292" lon="6.06292">
        <ele>278.20001220703</ele>
        <time>2017-03-08T15:33:02Z</time>
      </trkpt>
      <trkpt lat="43.42918" lon="6.06294">
        <ele>278.39999389648</ele>
        <time>2017-03-08T15:33:07Z</time>
      </trkpt>
      <trkpt lat="43.42917" lon="6.06297">
        <ele>278.79998779297</ele>
        <time>2017-03-08T15:33:12Z</time>
      </trkpt>
      <trkpt lat="43.42916" lon="6.063">
        <ele>279.39999389648</ele>
        <time>2017-03-08T15:33:17Z</time>
      </trkpt>
      <trkpt lat="43.42915" lon="6.06301">
        <ele>279.79998779297</ele>
        <time>2017-03-08T15:33:22Z</time>
      </trkpt>
      <trkpt lat="43.42915" lon="6.06302">
        <ele>280.60000610352</ele>
        <time>2017-03-08T15:33:27Z</time>
      </trkpt>
      <trkpt lat="43.42914" lon="6.06301">
        <ele>280.79998779297</ele>
        <time>2017-03-08T15:33:32Z</time>
      </trkpt>
      <trkpt lat="43.42912" lon="6.06304">
        <ele>281</ele>
        <time>2017-03-08T15:33:37Z</time>
      </trkpt>
      <trkpt lat="43.42912" lon="6.06305">
        <ele>281.60000610352</ele>
        <time>2017-03-08T15:33:45Z</time>
      </trkpt>
      <trkpt lat="43.42911" lon="6.06304">
        <ele>281.79998779297</ele>
        <time>2017-03-08T15:33:47Z</time>
      </trkpt>
      <trkpt lat="43.4291" lon="6.06305">
        <ele>282</ele>
        <time>2017-03-08T15:33:48Z</time>
      </trkpt>
      <trkpt lat="43.42906" lon="6.06309">
        <ele>282.79998779297</ele>
        <time>2017-03-08T15:33:56Z</time>
      </trkpt>
      <trkpt lat="43.42906" lon="6.06309">
        <ele>282.79998779297</ele>
        <time>2017-03-08T15:33:57Z</time>
      </trkpt>
      <trkpt lat="43.42905" lon="6.0631">
        <ele>283</ele>
        <time>2017-03-08T15:34:03Z</time>
      </trkpt>
      <trkpt lat="43.42905" lon="6.06311">
        <ele>282.79998779297</ele>
        <time>2017-03-08T15:34:07Z</time>
      </trkpt>
      <trkpt lat="43.42907" lon="6.06314">
        <ele>283</ele>
        <time>2017-03-08T15:34:14Z</time>
      </trkpt>
      <trkpt lat="43.42907" lon="6.06314">
        <ele>283.20001220703</ele>
        <time>2017-03-08T15:34:17Z</time>
      </trkpt>
      <trkpt lat="43.42907" lon="6.06315">
        <ele>283.20001220703</ele>
        <time>2017-03-08T15:34:23Z</time>
      </trkpt>
      <trkpt lat="43.42908" lon="6.06316">
        <ele>283.39999389648</ele>
        <time>2017-03-08T15:34:27Z</time>
      </trkpt>
      <trkpt lat="43.42906" lon="6.06317">
        <ele>283.79998779297</ele>
        <time>2017-03-08T15:34:33Z</time>
      </trkpt>
      <trkpt lat="43.42906" lon="6.06317">
        <ele>283.60000610352</ele>
        <time>2017-03-08T15:34:37Z</time>
      </trkpt>
      <trkpt lat="43.42907" lon="6.06316">
        <ele>283.39999389648</ele>
        <time>2017-03-08T15:34:42Z</time>
      </trkpt>
      <trkpt lat="43.42907" lon="6.06316">
        <ele>283.39999389648</ele>
        <time>2017-03-08T15:34:47Z</time>
      </trkpt>
      <trkpt lat="43.42907" lon="6.06316">
        <ele>283.39999389648</ele>
        <time>2017-03-08T15:34:51Z</time>
      </trkpt>
      <trkpt lat="43.42906" lon="6.06316">
        <ele>283.20001220703</ele>
        <time>2017-03-08T15:34:57Z</time>
      </trkpt>
      <trkpt lat="43.42905" lon="6.06315">
        <ele>283.60000610352</ele>
        <time>2017-03-08T15:35:07Z</time>
      </trkpt>
      <trkpt lat="43.42905" lon="6.06314">
        <ele>283.60000610352</ele>
        <time>2017-03-08T15:35:17Z</time>
      </trkpt>
      <trkpt lat="43.42905" lon="6.06314">
        <ele>283.39999389648</ele>
        <time>2017-03-08T15:35:22Z</time>
      </trkpt>
      <trkpt lat="43.42905" lon="6.06314">
        <ele>283.39999389648</ele>
        <time>2017-03-08T15:35:27Z</time>
      </trkpt>
      <trkpt lat="43.42904" lon="6.06314">
        <ele>283.39999389648</ele>
        <time>2017-03-08T15:35:33Z</time>
      </trkpt>
      <trkpt lat="43.42902" lon="6.06314">
        <ele>283.39999389648</ele>
        <time>2017-03-08T15:35:37Z</time>
      </trkpt>
      <trkpt lat="43.42902" lon="6.06315">
        <ele>283.39999389648</ele>
        <time>2017-03-08T15:35:47Z</time>
      </trkpt>
      <trkpt lat="43.42902" lon="6.06315">
        <ele>283.39999389648</ele>
        <time>2017-03-08T15:35:57Z</time>
      </trkpt>
      <trkpt lat="43.42901" lon="6.06314">
        <ele>283.39999389648</ele>
        <time>2017-03-08T15:36:05Z</time>
      </trkpt>
      <trkpt lat="43.429" lon="6.06315">
        <ele>283.39999389648</ele>
        <time>2017-03-08T15:36:07Z</time>
      </trkpt>
      <trkpt lat="43.429" lon="6.06316">
        <ele>283.39999389648</ele>
        <time>2017-03-08T15:36:09Z</time>
      </trkpt>
      <trkpt lat="43.429" lon="6.06316">
        <ele>283.39999389648</ele>
        <time>2017-03-08T15:36:10Z</time>
      </trkpt>
      <trkpt lat="43.42899" lon="6.06316">
        <ele>283.39999389648</ele>
        <time>2017-03-08T15:36:11Z</time>
      </trkpt>
      <trkpt lat="43.42898" lon="6.06316">
        <ele>283.39999389648</ele>
        <time>2017-03-08T15:36:13Z</time>
      </trkpt>
      <trkpt lat="43.42898" lon="6.06316">
        <ele>283.39999389648</ele>
        <time>2017-03-08T15:36:15Z</time>
      </trkpt>
      <trkpt lat="43.42898" lon="6.06316">
        <ele>283.39999389648</ele>
        <time>2017-03-08T15:36:16Z</time>
      </trkpt>
      <trkpt lat="43.42898" lon="6.06316">
        <ele>283.39999389648</ele>
        <time>2017-03-08T15:36:17Z</time>
      </trkpt>
      <trkpt lat="43.42896" lon="6.06316">
        <ele>283.39999389648</ele>
        <time>2017-03-08T15:36:19Z</time>
      </trkpt>
      <trkpt lat="43.42892" lon="6.06317">
        <ele>284</ele>
        <time>2017-03-08T15:36:22Z</time>
      </trkpt>
      <trkpt lat="43.42891" lon="6.06317">
        <ele>284</ele>
        <time>2017-03-08T15:36:23Z</time>
      </trkpt>
      <trkpt lat="43.42885" lon="6.06318">
        <ele>284.60000610352</ele>
        <time>2017-03-08T15:36:27Z</time>
      </trkpt>
      <trkpt lat="43.42877" lon="6.06319">
        <ele>285</ele>
        <time>2017-03-08T15:36:33Z</time>
      </trkpt>
      <trkpt lat="43.42871" lon="6.06317">
        <ele>285.60000610352</ele>
        <time>2017-03-08T15:36:37Z</time>
      </trkpt>
      <trkpt lat="43.42865" lon="6.06315">
        <ele>285.79998779297</ele>
        <time>2017-03-08T15:36:41Z</time>
      </trkpt>
      <trkpt lat="43.4286" lon="6.06314">
        <ele>286.20001220703</ele>
        <time>2017-03-08T15:36:44Z</time>
      </trkpt>
      <trkpt lat="43.42854" lon="6.06316">
        <ele>286.60000610352</ele>
        <time>2017-03-08T15:36:47Z</time>
      </trkpt>
      <trkpt lat="43.42841" lon="6.06326">
        <ele>286.79998779297</ele>
        <time>2017-03-08T15:36:53Z</time>
      </trkpt>
      <trkpt lat="43.42828" lon="6.06337">
        <ele>287</ele>
        <time>2017-03-08T15:36:57Z</time>
      </trkpt>
      <trkpt lat="43.42819" lon="6.06344">
        <ele>286</ele>
        <time>2017-03-08T15:36:59Z</time>
      </trkpt>
      <trkpt lat="43.4281" lon="6.06348">
        <ele>284.60000610352</ele>
        <time>2017-03-08T15:37:01Z</time>
      </trkpt>
      <trkpt lat="43.42799" lon="6.06348">
        <ele>283.20001220703</ele>
        <time>2017-03-08T15:37:03Z</time>
      </trkpt>
      <trkpt lat="43.42788" lon="6.06346">
        <ele>281.79998779297</ele>
        <time>2017-03-08T15:37:05Z</time>
      </trkpt>
      <trkpt lat="43.42782" lon="6.06344">
        <ele>280.79998779297</ele>
        <time>2017-03-08T15:37:06Z</time>
      </trkpt>
      <trkpt lat="43.42777" lon="6.06343">
        <ele>280.20001220703</ele>
        <time>2017-03-08T15:37:07Z</time>
      </trkpt>
      <trkpt lat="43.42771" lon="6.06343">
        <ele>279.39999389648</ele>
        <time>2017-03-08T15:37:08Z</time>
      </trkpt>
      <trkpt lat="43.42757" lon="6.06347">
        <ele>278</ele>
        <time>2017-03-08T15:37:10Z</time>
      </trkpt>
      <trkpt lat="43.42744" lon="6.06352">
        <ele>276.79998779297</ele>
        <time>2017-03-08T15:37:12Z</time>
      </trkpt>
      <trkpt lat="43.42723" lon="6.06356">
        <ele>276</ele>
        <time>2017-03-08T15:37:15Z</time>
      </trkpt>
      <trkpt lat="43.4271" lon="6.06355">
        <ele>275.60000610352</ele>
        <time>2017-03-08T15:37:17Z</time>
      </trkpt>
      <trkpt lat="43.42686" lon="6.06335">
        <ele>276.79998779297</ele>
        <time>2017-03-08T15:37:24Z</time>
      </trkpt>
      <trkpt lat="43.4268" lon="6.0633">
        <ele>276.79998779297</ele>
        <time>2017-03-08T15:37:27Z</time>
      </trkpt>
      <trkpt lat="43.42664" lon="6.06328">
        <ele>275.79998779297</ele>
        <time>2017-03-08T15:37:32Z</time>
      </trkpt>
      <trkpt lat="43.42646" lon="6.06326">
        <ele>274.79998779297</ele>
        <time>2017-03-08T15:37:37Z</time>
      </trkpt>
      <trkpt lat="43.42642" lon="6.06325">
        <ele>274.60000610352</ele>
        <time>2017-03-08T15:37:38Z</time>
      </trkpt>
      <trkpt lat="43.42638" lon="6.06324">
        <ele>274.20001220703</ele>
        <time>2017-03-08T15:37:39Z</time>
      </trkpt>
      <trkpt lat="43.42624" lon="6.06318">
        <ele>273.39999389648</ele>
        <time>2017-03-08T15:37:42Z</time>
      </trkpt>
      <trkpt lat="43.42619" lon="6.06316">
        <ele>273.20001220703</ele>
        <time>2017-03-08T15:37:43Z</time>
      </trkpt>
      <trkpt lat="43.42603" lon="6.06316">
        <ele>272.20001220703</ele>
        <time>2017-03-08T15:37:47Z</time>
      </trkpt>
      <trkpt lat="43.42579" lon="6.06333">
        <ele>271.60000610352</ele>
        <time>2017-03-08T15:37:53Z</time>
      </trkpt>
      <trkpt lat="43.42571" lon="6.06339">
        <ele>271.20001220703</ele>
        <time>2017-03-08T15:37:55Z</time>
      </trkpt>
      <trkpt lat="43.42563" lon="6.06345">
        <ele>270.60000610352</ele>
        <time>2017-03-08T15:37:57Z</time>
      </trkpt>
      <trkpt lat="43.42549" lon="6.06353">
        <ele>268.39999389648</ele>
        <time>2017-03-08T15:38:00Z</time>
      </trkpt>
      <trkpt lat="43.42534" lon="6.0636">
        <ele>267.79998779297</ele>
        <time>2017-03-08T15:38:03Z</time>
      </trkpt>
      <trkpt lat="43.42517" lon="6.06364">
        <ele>267.20001220703</ele>
        <time>2017-03-08T15:38:06Z</time>
      </trkpt>
      <trkpt lat="43.42511" lon="6.06367">
        <ele>267.20001220703</ele>
        <time>2017-03-08T15:38:07Z</time>
      </trkpt>
      <trkpt lat="43.42491" lon="6.06376">
        <ele>266</ele>
        <time>2017-03-08T15:38:10Z</time>
      </trkpt>
      <trkpt lat="43.42469" lon="6.06378">
        <ele>264.79998779297</ele>
        <time>2017-03-08T15:38:13Z</time>
      </trkpt>
      <trkpt lat="43.42455" lon="6.06379">
        <ele>264.39999389648</ele>
        <time>2017-03-08T15:38:15Z</time>
      </trkpt>
      <trkpt lat="43.42444" lon="6.06385">
        <ele>264</ele>
        <time>2017-03-08T15:38:17Z</time>
      </trkpt>
      <trkpt lat="43.4244" lon="6.06389">
        <ele>263.79998779297</ele>
        <time>2017-03-08T15:38:18Z</time>
      </trkpt>
      <trkpt lat="43.42435" lon="6.06393">
        <ele>263.60000610352</ele>
        <time>2017-03-08T15:38:19Z</time>
      </trkpt>
      <trkpt lat="43.4242" lon="6.06403">
        <ele>263.39999389648</ele>
        <time>2017-03-08T15:38:22Z</time>
      </trkpt>
      <trkpt lat="43.4241" lon="6.06403">
        <ele>263.39999389648</ele>
        <time>2017-03-08T15:38:24Z</time>
      </trkpt>
      <trkpt lat="43.424" lon="6.06401">
        <ele>263.39999389648</ele>
        <time>2017-03-08T15:38:26Z</time>
      </trkpt>
      <trkpt lat="43.42394" lon="6.06399">
        <ele>263.20001220703</ele>
        <time>2017-03-08T15:38:27Z</time>
      </trkpt>
      <trkpt lat="43.42389" lon="6.06398">
        <ele>263</ele>
        <time>2017-03-08T15:38:28Z</time>
      </trkpt>
      <trkpt lat="43.42382" lon="6.06398">
        <ele>262.60000610352</ele>
        <time>2017-03-08T15:38:29Z</time>
      </trkpt>
      <trkpt lat="43.42377" lon="6.064">
        <ele>262</ele>
        <time>2017-03-08T15:38:30Z</time>
      </trkpt>
      <trkpt lat="43.42367" lon="6.06414">
        <ele>261.20001220703</ele>
        <time>2017-03-08T15:38:32Z</time>
      </trkpt>
      <trkpt lat="43.42351" lon="6.0643">
        <ele>260.60000610352</ele>
        <time>2017-03-08T15:38:35Z</time>
      </trkpt>
      <trkpt lat="43.4234" lon="6.06438">
        <ele>260.39999389648</ele>
        <time>2017-03-08T15:38:37Z</time>
      </trkpt>
      <trkpt lat="43.42323" lon="6.0645">
        <ele>260.39999389648</ele>
        <time>2017-03-08T15:38:40Z</time>
      </trkpt>
      <trkpt lat="43.42299" lon="6.06477">
        <ele>260.20001220703</ele>
        <time>2017-03-08T15:38:44Z</time>
      </trkpt>
      <trkpt lat="43.42294" lon="6.06486">
        <ele>259.60000610352</ele>
        <time>2017-03-08T15:38:45Z</time>
      </trkpt>
      <trkpt lat="43.42289" lon="6.06493">
        <ele>258.79998779297</ele>
        <time>2017-03-08T15:38:46Z</time>
      </trkpt>
      <trkpt lat="43.42284" lon="6.06501">
        <ele>257.79998779297</ele>
        <time>2017-03-08T15:38:47Z</time>
      </trkpt>
      <trkpt lat="43.4227" lon="6.06513">
        <ele>256</ele>
        <time>2017-03-08T15:38:49Z</time>
      </trkpt>
      <trkpt lat="43.42258" lon="6.0652">
        <ele>254.60000610352</ele>
        <time>2017-03-08T15:38:51Z</time>
      </trkpt>
      <trkpt lat="43.42247" lon="6.06519">
        <ele>253.80000305176</ele>
        <time>2017-03-08T15:38:53Z</time>
      </trkpt>
      <trkpt lat="43.42226" lon="6.06513">
        <ele>253.80000305176</ele>
        <time>2017-03-08T15:38:57Z</time>
      </trkpt>
      <trkpt lat="43.42214" lon="6.06513">
        <ele>253.39999389648</ele>
        <time>2017-03-08T15:38:59Z</time>
      </trkpt>
      <trkpt lat="43.42201" lon="6.06514">
        <ele>252</ele>
        <time>2017-03-08T15:39:02Z</time>
      </trkpt>
      <trkpt lat="43.42196" lon="6.06502">
        <ele>251</ele>
        <time>2017-03-08T15:39:05Z</time>
      </trkpt>
      <trkpt lat="43.42194" lon="6.06491">
        <ele>250.80000305176</ele>
        <time>2017-03-08T15:39:07Z</time>
      </trkpt>
      <trkpt lat="43.42191" lon="6.06474">
        <ele>250.60000610352</ele>
        <time>2017-03-08T15:39:10Z</time>
      </trkpt>
      <trkpt lat="43.42182" lon="6.0643">
        <ele>250.39999389648</ele>
        <time>2017-03-08T15:39:17Z</time>
      </trkpt>
      <trkpt lat="43.42171" lon="6.06379">
        <ele>250.19999694824</ele>
        <time>2017-03-08T15:39:25Z</time>
      </trkpt>
      <trkpt lat="43.42165" lon="6.06347">
        <ele>249.80000305176</ele>
        <time>2017-03-08T15:39:30Z</time>
      </trkpt>
      <trkpt lat="43.42162" lon="6.06334">
        <ele>249.80000305176</ele>
        <time>2017-03-08T15:39:32Z</time>
      </trkpt>
      <trkpt lat="43.4216" lon="6.06321">
        <ele>250.39999389648</ele>
        <time>2017-03-08T15:39:34Z</time>
      </trkpt>
      <trkpt lat="43.42159" lon="6.06303">
        <ele>251.19999694824</ele>
        <time>2017-03-08T15:39:37Z</time>
      </trkpt>
      <trkpt lat="43.42158" lon="6.06292">
        <ele>251.60000610352</ele>
        <time>2017-03-08T15:39:39Z</time>
      </trkpt>
      <trkpt lat="43.42158" lon="6.06287">
        <ele>252</ele>
        <time>2017-03-08T15:39:40Z</time>
      </trkpt>
      <trkpt lat="43.42159" lon="6.06277">
        <ele>253.19999694824</ele>
        <time>2017-03-08T15:39:42Z</time>
      </trkpt>
      <trkpt lat="43.42159" lon="6.06263">
        <ele>254.39999389648</ele>
        <time>2017-03-08T15:39:45Z</time>
      </trkpt>
      <trkpt lat="43.42159" lon="6.06259">
        <ele>254.80000305176</ele>
        <time>2017-03-08T15:39:46Z</time>
      </trkpt>
      <trkpt lat="43.42159" lon="6.06247">
        <ele>255.60000610352</ele>
        <time>2017-03-08T15:39:49Z</time>
      </trkpt>
      <trkpt lat="43.42159" lon="6.06244">
        <ele>255.80000305176</ele>
        <time>2017-03-08T15:39:50Z</time>
      </trkpt>
      <trkpt lat="43.42158" lon="6.06233">
        <ele>256.60000610352</ele>
        <time>2017-03-08T15:39:53Z</time>
      </trkpt>
      <trkpt lat="43.42157" lon="6.06226">
        <ele>257</ele>
        <time>2017-03-08T15:39:55Z</time>
      </trkpt>
      <trkpt lat="43.42155" lon="6.06219">
        <ele>257.60000610352</ele>
        <time>2017-03-08T15:39:58Z</time>
      </trkpt>
      <trkpt lat="43.42147" lon="6.06215">
        <ele>257.79998779297</ele>
        <time>2017-03-08T15:40:02Z</time>
      </trkpt>
      <trkpt lat="43.42143" lon="6.06216">
        <ele>257.60000610352</ele>
        <time>2017-03-08T15:40:04Z</time>
      </trkpt>
      <trkpt lat="43.42139" lon="6.06217">
        <ele>257.60000610352</ele>
        <time>2017-03-08T15:40:06Z</time>
      </trkpt>
      <trkpt lat="43.42138" lon="6.06217">
        <ele>257.60000610352</ele>
        <time>2017-03-08T15:40:07Z</time>
      </trkpt>
      <trkpt lat="43.42136" lon="6.06218">
        <ele>257.60000610352</ele>
        <time>2017-03-08T15:40:14Z</time>
      </trkpt>
      <trkpt lat="43.4213" lon="6.06221">
        <ele>257.39999389648</ele>
        <time>2017-03-08T15:40:17Z</time>
      </trkpt>
      <trkpt lat="43.4212" lon="6.06226">
        <ele>256.79998779297</ele>
        <time>2017-03-08T15:40:21Z</time>
      </trkpt>
      <trkpt lat="43.42117" lon="6.06227">
        <ele>256.60000610352</ele>
        <time>2017-03-08T15:40:22Z</time>
      </trkpt>
      <trkpt lat="43.42109" lon="6.06229">
        <ele>256.20001220703</ele>
        <time>2017-03-08T15:40:24Z</time>
      </trkpt>
      <trkpt lat="43.421" lon="6.06232">
        <ele>255.19999694824</ele>
        <time>2017-03-08T15:40:26Z</time>
      </trkpt>
      <trkpt lat="43.42094" lon="6.06234">
        <ele>254.80000305176</ele>
        <time>2017-03-08T15:40:27Z</time>
      </trkpt>
      <trkpt lat="43.42082" lon="6.06239">
        <ele>253.39999389648</ele>
        <time>2017-03-08T15:40:29Z</time>
      </trkpt>
      <trkpt lat="43.42075" lon="6.06241">
        <ele>252.19999694824</ele>
        <time>2017-03-08T15:40:30Z</time>
      </trkpt>
      <trkpt lat="43.42059" lon="6.06246">
        <ele>250.60000610352</ele>
        <time>2017-03-08T15:40:32Z</time>
      </trkpt>
      <trkpt lat="43.42041" lon="6.06252">
        <ele>249.39999389648</ele>
        <time>2017-03-08T15:40:34Z</time>
      </trkpt>
      <trkpt lat="43.4202" lon="6.06259">
        <ele>247.60000610352</ele>
        <time>2017-03-08T15:40:36Z</time>
      </trkpt>
      <trkpt lat="43.42009" lon="6.06262">
        <ele>246.19999694824</ele>
        <time>2017-03-08T15:40:37Z</time>
      </trkpt>
      <trkpt lat="43.41998" lon="6.06266">
        <ele>244.80000305176</ele>
        <time>2017-03-08T15:40:38Z</time>
      </trkpt>
      <trkpt lat="43.41986" lon="6.0627">
        <ele>242.80000305176</ele>
        <time>2017-03-08T15:40:39Z</time>
      </trkpt>
      <trkpt lat="43.41975" lon="6.06274">
        <ele>241.39999389648</ele>
        <time>2017-03-08T15:40:40Z</time>
      </trkpt>
      <trkpt lat="43.41964" lon="6.06278">
        <ele>239.39999389648</ele>
        <time>2017-03-08T15:40:41Z</time>
      </trkpt>
      <trkpt lat="43.41954" lon="6.06282">
        <ele>238.19999694824</ele>
        <time>2017-03-08T15:40:42Z</time>
      </trkpt>
      <trkpt lat="43.41945" lon="6.06285">
        <ele>237</ele>
        <time>2017-03-08T15:40:43Z</time>
      </trkpt>
      <trkpt lat="43.41937" lon="6.06288">
        <ele>236</ele>
        <time>2017-03-08T15:40:44Z</time>
      </trkpt>
      <trkpt lat="43.4192" lon="6.06293">
        <ele>235.19999694824</ele>
        <time>2017-03-08T15:40:47Z</time>
      </trkpt>
      <trkpt lat="43.41898" lon="6.06296">
        <ele>235.60000610352</ele>
        <time>2017-03-08T15:40:51Z</time>
      </trkpt>
      <trkpt lat="43.41877" lon="6.06294">
        <ele>235</ele>
        <time>2017-03-08T15:40:54Z</time>
      </trkpt>
      <trkpt lat="43.41854" lon="6.06292">
        <ele>233.39999389648</ele>
        <time>2017-03-08T15:40:57Z</time>
      </trkpt>
      <trkpt lat="43.41836" lon="6.06292">
        <ele>231.80000305176</ele>
        <time>2017-03-08T15:40:59Z</time>
      </trkpt>
      <trkpt lat="43.41818" lon="6.06292">
        <ele>229.80000305176</ele>
        <time>2017-03-08T15:41:01Z</time>
      </trkpt>
      <trkpt lat="43.4181" lon="6.06291">
        <ele>228.19999694824</ele>
        <time>2017-03-08T15:41:02Z</time>
      </trkpt>
      <trkpt lat="43.41802" lon="6.06287">
        <ele>227</ele>
        <time>2017-03-08T15:41:03Z</time>
      </trkpt>
      <trkpt lat="43.41795" lon="6.06282">
        <ele>226.19999694824</ele>
        <time>2017-03-08T15:41:04Z</time>
      </trkpt>
      <trkpt lat="43.41789" lon="6.06276">
        <ele>225.60000610352</ele>
        <time>2017-03-08T15:41:05Z</time>
      </trkpt>
      <trkpt lat="43.41782" lon="6.06271">
        <ele>225.39999389648</ele>
        <time>2017-03-08T15:41:06Z</time>
      </trkpt>
      <trkpt lat="43.41775" lon="6.06266">
        <ele>225.39999389648</ele>
        <time>2017-03-08T15:41:07Z</time>
      </trkpt>
      <trkpt lat="43.41759" lon="6.06258">
        <ele>225.19999694824</ele>
        <time>2017-03-08T15:41:09Z</time>
      </trkpt>
      <trkpt lat="43.41733" lon="6.06252">
        <ele>224.39999389648</ele>
        <time>2017-03-08T15:41:12Z</time>
      </trkpt>
      <trkpt lat="43.41705" lon="6.06251">
        <ele>223.39999389648</ele>
        <time>2017-03-08T15:41:15Z</time>
      </trkpt>
      <trkpt lat="43.41697" lon="6.06251">
        <ele>223</ele>
        <time>2017-03-08T15:41:16Z</time>
      </trkpt>
      <trkpt lat="43.41688" lon="6.0625">
        <ele>222.60000610352</ele>
        <time>2017-03-08T15:41:17Z</time>
      </trkpt>
      <trkpt lat="43.4165" lon="6.06243">
        <ele>222</ele>
        <time>2017-03-08T15:41:22Z</time>
      </trkpt>
      <trkpt lat="43.41625" lon="6.06232">
        <ele>222.39999389648</ele>
        <time>2017-03-08T15:41:27Z</time>
      </trkpt>
      <trkpt lat="43.41606" lon="6.06238">
        <ele>222.19999694824</ele>
        <time>2017-03-08T15:41:37Z</time>
      </trkpt>
      <trkpt lat="43.41605" lon="6.06239">
        <ele>222.19999694824</ele>
        <time>2017-03-08T15:41:46Z</time>
      </trkpt>
      <trkpt lat="43.41605" lon="6.0624">
        <ele>222.39999389648</ele>
        <time>2017-03-08T15:41:47Z</time>
      </trkpt>
      <trkpt lat="43.41604" lon="6.06244">
        <ele>222.19999694824</ele>
        <time>2017-03-08T15:41:49Z</time>
      </trkpt>
      <trkpt lat="43.41603" lon="6.06251">
        <ele>221.80000305176</ele>
        <time>2017-03-08T15:41:51Z</time>
      </trkpt>
      <trkpt lat="43.416" lon="6.06257">
        <ele>221.80000305176</ele>
        <time>2017-03-08T15:41:53Z</time>
      </trkpt>
      <trkpt lat="43.41587" lon="6.06268">
        <ele>221.80000305176</ele>
        <time>2017-03-08T15:41:57Z</time>
      </trkpt>
      <trkpt lat="43.41583" lon="6.06279">
        <ele>221.39999389648</ele>
        <time>2017-03-08T15:41:59Z</time>
      </trkpt>
      <trkpt lat="43.41584" lon="6.06294">
        <ele>221</ele>
        <time>2017-03-08T15:42:01Z</time>
      </trkpt>
      <trkpt lat="43.41584" lon="6.06301">
        <ele>220.80000305176</ele>
        <time>2017-03-08T15:42:02Z</time>
      </trkpt>
      <trkpt lat="43.41581" lon="6.06317">
        <ele>220.60000610352</ele>
        <time>2017-03-08T15:42:04Z</time>
      </trkpt>
      <trkpt lat="43.41573" lon="6.0633">
        <ele>219.80000305176</ele>
        <time>2017-03-08T15:42:06Z</time>
      </trkpt>
      <trkpt lat="43.41564" lon="6.06345">
        <ele>218.80000305176</ele>
        <time>2017-03-08T15:42:08Z</time>
      </trkpt>
      <trkpt lat="43.41557" lon="6.06364">
        <ele>217.19999694824</ele>
        <time>2017-03-08T15:42:10Z</time>
      </trkpt>
      <trkpt lat="43.41552" lon="6.06386">
        <ele>216.19999694824</ele>
        <time>2017-03-08T15:42:12Z</time>
      </trkpt>
      <trkpt lat="43.41545" lon="6.0642">
        <ele>215</ele>
        <time>2017-03-08T15:42:15Z</time>
      </trkpt>
      <trkpt lat="43.41542" lon="6.06441">
        <ele>214</ele>
        <time>2017-03-08T15:42:17Z</time>
      </trkpt>
      <trkpt lat="43.41542" lon="6.06449">
        <ele>213.60000610352</ele>
        <time>2017-03-08T15:42:18Z</time>
      </trkpt>
      <trkpt lat="43.41541" lon="6.06464">
        <ele>213.39999389648</ele>
        <time>2017-03-08T15:42:25Z</time>
      </trkpt>
      <trkpt lat="43.41541" lon="6.06463">
        <ele>213.60000610352</ele>
        <time>2017-03-08T15:42:27Z</time>
      </trkpt>
      <trkpt lat="43.41541" lon="6.06463">
        <ele>213.80000305176</ele>
        <time>2017-03-08T15:42:37Z</time>
      </trkpt>
      <trkpt lat="43.41541" lon="6.06463">
        <ele>213.60000610352</ele>
        <time>2017-03-08T15:42:41Z</time>
      </trkpt>
      <trkpt lat="43.41539" lon="6.06464">
        <ele>213.60000610352</ele>
        <time>2017-03-08T15:42:43Z</time>
      </trkpt>
      <trkpt lat="43.41532" lon="6.06473">
        <ele>212.19999694824</ele>
        <time>2017-03-08T15:42:46Z</time>
      </trkpt>
      <trkpt lat="43.41531" lon="6.06478">
        <ele>211.39999389648</ele>
        <time>2017-03-08T15:42:47Z</time>
      </trkpt>
      <trkpt lat="43.41531" lon="6.06484">
        <ele>211</ele>
        <time>2017-03-08T15:42:48Z</time>
      </trkpt>
      <trkpt lat="43.41527" lon="6.06496">
        <ele>210.60000610352</ele>
        <time>2017-03-08T15:42:50Z</time>
      </trkpt>
      <trkpt lat="43.41524" lon="6.06509">
        <ele>210.60000610352</ele>
        <time>2017-03-08T15:42:52Z</time>
      </trkpt>
      <trkpt lat="43.41518" lon="6.06543">
        <ele>211.60000610352</ele>
        <time>2017-03-08T15:42:57Z</time>
      </trkpt>
      <trkpt lat="43.41506" lon="6.06623">
        <ele>211.39999389648</ele>
        <time>2017-03-08T15:43:07Z</time>
      </trkpt>
      <trkpt lat="43.41496" lon="6.067">
        <ele>210.39999389648</ele>
        <time>2017-03-08T15:43:16Z</time>
      </trkpt>
      <trkpt lat="43.41496" lon="6.06709">
        <ele>210.39999389648</ele>
        <time>2017-03-08T15:43:17Z</time>
      </trkpt>
      <trkpt lat="43.41494" lon="6.06736">
        <ele>210</ele>
        <time>2017-03-08T15:43:20Z</time>
      </trkpt>
      <trkpt lat="43.41488" lon="6.06784">
        <ele>208.80000305176</ele>
        <time>2017-03-08T15:43:25Z</time>
      </trkpt>
      <trkpt lat="43.41484" lon="6.06805">
        <ele>208</ele>
        <time>2017-03-08T15:43:27Z</time>
      </trkpt>
      <trkpt lat="43.41481" lon="6.06814">
        <ele>207.60000610352</ele>
        <time>2017-03-08T15:43:28Z</time>
      </trkpt>
      <trkpt lat="43.41474" lon="6.0685">
        <ele>207.39999389648</ele>
        <time>2017-03-08T15:43:32Z</time>
      </trkpt>
      <trkpt lat="43.41473" lon="6.06856">
        <ele>208.39999389648</ele>
        <time>2017-03-08T15:43:37Z</time>
      </trkpt>
      <trkpt lat="43.41473" lon="6.06855">
        <ele>208.80000305176</ele>
        <time>2017-03-08T15:43:38Z</time>
      </trkpt>
      <trkpt lat="43.41473" lon="6.06855">
        <ele>209.19999694824</ele>
        <time>2017-03-08T15:43:57Z</time>
      </trkpt>
      <trkpt lat="43.41473" lon="6.06855">
        <ele>209</ele>
        <time>2017-03-08T15:44:07Z</time>
      </trkpt>
      <trkpt lat="43.41471" lon="6.0686">
        <ele>208.80000305176</ele>
        <time>2017-03-08T15:44:14Z</time>
      </trkpt>
      <trkpt lat="43.41473" lon="6.06867">
        <ele>208.60000610352</ele>
        <time>2017-03-08T15:44:17Z</time>
      </trkpt>
      <trkpt lat="43.41475" lon="6.06876">
        <ele>208.60000610352</ele>
        <time>2017-03-08T15:44:21Z</time>
      </trkpt>
      <trkpt lat="43.41475" lon="6.06878">
        <ele>209.19999694824</ele>
        <time>2017-03-08T15:44:27Z</time>
      </trkpt>
      <trkpt lat="43.41475" lon="6.06883">
        <ele>208.80000305176</ele>
        <time>2017-03-08T15:44:37Z</time>
      </trkpt>
      <trkpt lat="43.41474" lon="6.06887">
        <ele>208.60000610352</ele>
        <time>2017-03-08T15:44:41Z</time>
      </trkpt>
      <trkpt lat="43.41473" lon="6.06892">
        <ele>208.60000610352</ele>
        <time>2017-03-08T15:44:43Z</time>
      </trkpt>
      <trkpt lat="43.41475" lon="6.06906">
        <ele>208.60000610352</ele>
        <time>2017-03-08T15:44:47Z</time>
      </trkpt>
      <trkpt lat="43.41468" lon="6.0693">
        <ele>208.19999694824</ele>
        <time>2017-03-08T15:44:53Z</time>
      </trkpt>
      <trkpt lat="43.41477" lon="6.06943">
        <ele>207.80000305176</ele>
        <time>2017-03-08T15:44:57Z</time>
      </trkpt>
      <trkpt lat="43.41498" lon="6.06963">
        <ele>207.80000305176</ele>
        <time>2017-03-08T15:45:04Z</time>
      </trkpt>
      <trkpt lat="43.41507" lon="6.06968">
        <ele>207.19999694824</ele>
        <time>2017-03-08T15:45:07Z</time>
      </trkpt>
      <trkpt lat="43.41539" lon="6.06971">
        <ele>207.60000610352</ele>
        <time>2017-03-08T15:45:17Z</time>
      </trkpt>
      <trkpt lat="43.41564" lon="6.0697">
        <ele>208.80000305176</ele>
        <time>2017-03-08T15:45:27Z</time>
      </trkpt>
      <trkpt lat="43.41579" lon="6.06989">
        <ele>209</ele>
        <time>2017-03-08T15:45:37Z</time>
      </trkpt>
      <trkpt lat="43.41584" lon="6.07029">
        <ele>209.19999694824</ele>
        <time>2017-03-08T15:45:47Z</time>
      </trkpt>
      <trkpt lat="43.41582" lon="6.07033">
        <ele>209.39999389648</ele>
        <time>2017-03-08T15:45:57Z</time>
      </trkpt>
    </trkseg>
  </trk>
</gpx>